     2.11           OBSERVATION DATA    G (GPS)             RINEX VERSION / TYPE
teqc 2010Oct21 OPUS Account 20111026 15:55:58UTC            PGM / RUN BY / DATE
Y 1522                                                      MARKER NAME
1178                                                        MARKER NUMBER
CSMIDDLETON NGS                                             OBSERVER / AGENCY
0220390627 TRIMBLE R7 2.32                                  REC # / TYPE / VERS
60124849 TRM41249.00 NONE                                   ANT # / TYPE
  -742750.5640 -5504649.8528  3124595.7354                  APPROX POSITION XYZ
        2.0010        0.0000        0.0000                  ANTENNA: DELTA H/E/N
     1     1                                                WAVELENGTH FACT L1/2
     5    L1    L2    C1    P1    P2                        # / TYPES OF OBSERV
    15                                                      LEAP SECONDS
  2011     7    31     0     0   30.0000000     GPS         TIME OF FIRST OBS
                                                            END OF HEADER
 11  7 31  0  0 30.0000000  0  8G17G10G09G02G04G27G20G28
 -41223019.21557 -32091457.64156  21589224.1564                   21589223.0744
 -12043722.08657  -9359351.30554  23109036.3054                   23109039.0274
 -14087898.90657  -9812933.73055  22138558.4844                   22138558.3714
 -21576336.46158 -16782042.34456  21996769.4224                   21996767.4224
 -39657235.66458 -30868557.76256  19912915.9534                   19912914.8674
 -22913049.44557 -15345803.62555  22434872.2974                   22434872.8404
 -10637169.12915                  24482102.563
 -39822198.48857 -31012352.96955  22081121.8834                   22081121.3834
 11  7 31  0  1  0.0000000  0  8G17G10G09G02G04G27G20G28
 -41231640.93447 -32098175.89146  21587583.8524                   21587582.3674
 -12176157.31246  -9462547.46144  23083834.9614                   23083837.8094
 -14142510.84047  -9855488.47345  22128165.6884                   22128166.0984
 -21689208.38748 -16869994.43045  21975290.9144                   21975288.3714
 -39698016.18448 -30900334.78546  19905155.3674                   19905154.3524
 -22954083.36747 -15377778.17645  22427063.5234                   22427064.2774
 -10631055.164 5                  24483265.523
 -39805113.07847 -30999039.72745  22084372.7734                   22084372.5434
 11  7 31  0  1 30.0000000  0  8G17G10G09G02G04G27G20G28
 -41240161.34847 -32104815.18446  21585962.1024                   21585961.0124
 -12308445.53547  -9565629.05944  23058660.7974                   23058663.6954
 -14196464.73847  -9897530.45745  22117898.7734                   22117899.1094
 -21801738.25448 -16957679.96546  21953876.9844                   21953875.0744
 -39738221.01648 -30931663.20746  19897504.9924                   19897503.7774
 -22994614.55947 -15409360.97345  22419350.4774                   22419351.3634
 -10624454.641 5                  24484521.766
 -39787637.36347 -30985422.35545  22087698.3364                   22087697.9574
 11  7 31  0  2  0.0000000  0  8G17G10G09G02G04G27G20G28
 -41248588.79747 -32111382.05146  21584358.5004                   21584357.6294
 -12440591.18447  -9668599.57044  23033515.2584                   23033517.2074
 -14249768.64147  -9939065.95345  22107755.3754                   22107755.7074
 -21913932.86748 -17045104.27046  21932526.8054                   21932524.9534
 -39777858.64848 -30962549.66446  19889962.1414                   19889961.1214
 -23034651.12147 -15440558.34045  22411732.5704                   22411732.8014
 -10617376.008 5                  24485868.492
 -39769779.10547 -30971506.89845  22091096.7194                   22091096.5394
 11  7 31  0  2 30.0000000  0  8G17G10G09G02G04G27G20G28
 -41256927.02747 -32117879.39546  21582771.9064                   21582770.9224
 -12572594.53147  -9771459.18744  23008394.7344                   23008397.3094
 -14302426.44547  -9980098.00445  22097734.5944                   22097735.2814
 -22025794.80548 -17132269.35946  21911240.1564                   21911238.3554
 -39816933.98848 -30992997.98046  19882526.2194                   19882525.1214
 -23074197.58247 -15471373.82845  22404207.6094                   22404207.5594
 -10609824.18415                  24487307.648
 -39751542.70747 -30957296.79745  22094567.5474                   22094566.1994
 11  7 31  0  3  0.0000000  0  8G17G10G09G02G04G27G20G28
 -41265168.35947 -32124301.23046  21581203.7114                   21581202.2424
 -12704444.94947  -9874199.66844  22983304.6094                   22983306.6294
 -14354430.51247 -10020620.64145  22087839.1334                   22087839.2974
 -22137315.33648 -17219168.40246  21890018.4924                   21890016.7304
 -39855440.39148 -31023002.96947  19875198.8834                   19875197.6724
 -23113246.78147 -15501801.82445  22396776.5164                   22396776.8014
 -10601792.96515                  24488833.500
 -39732920.56647 -30942786.10245  22098111.1724                   22098110.2894
 11  7 31  0  3 30.0000000  0  9G17G10G09G12G02G04G27G20G28
 -41273314.13347 -32130648.60246  21579653.6954                   21579652.8134
 -12836140.12147  -9976819.16044  22958243.7814                   22958245.6954
 -14405781.85247 -10060634.65645  22078066.5944                   22078067.0044
   -370332.68755    -28305.02052  24579997.2814                   24579999.6294
 -22248494.28548 -17305801.28546  21868861.5704                   21868859.8404
 -39893379.18448 -31052565.65646  19867979.2114                   19867978.0634
 -23151800.07047 -15531843.37945  22389439.5944                   22389440.1294
                                  24490453.016
 -39713913.73447 -30927975.64545  22101727.9694                   22101727.0864
 11  7 31  0  4  0.0000000  0  9G17G10G09G12G02G04G27G20G28
 -41281363.61747 -32136920.93446  21578121.6174                   21578120.7304
 -12967676.13746 -10079314.64544  22933213.3984                   22933214.9304
 -14456480.21547 -10100139.88745  22068419.6334                   22068419.7704
   -508537.21945   -135996.76642  24553698.1724                   24553700.6914
 -22359330.01248 -17392166.71146  21847770.4224                   21847768.5354
 -39930751.41848 -31081686.86346  19860867.3914                   19860866.6024
 -23189857.64547 -15561498.67245  22382197.7424                   22382197.9884
 -10584299.23815                  24492163.211
 -39694522.39547 -30912865.55945  22105417.9844                   22105417.4144
 11  7 31  0  4 30.0000000  0  9G17G10G09G12G02G04G27G20G28
 -41289313.53148 -32143115.67646  21576609.0234                   21576607.8404
 -13099046.26247 -10181680.84444  22908214.2034                   22908215.8554
 -14506522.48047 -10139133.86345  22058896.7424                   22058896.0664
   -646741.91845   -243688.66442  24527398.0634                   24527401.8204
 -22469818.44548 -17478261.52746  21826745.0474                   21826743.4844
 -39967554.54748 -31110364.62546  19853864.2034                   19853863.1954
 -23227416.84847 -15590765.62145  22375050.7894                   22375050.6054
 -10574835.10915                  24493964.188
 -39674743.57847 -30897453.56645  22109182.0164                   22109181.2114
 11  7 31  0  5  0.0000000  0  9G17G10G09G12G02G04G27G20G28
 -41297168.66047 -32149236.57446  21575114.1254                   21575113.3524
 -13230251.85547 -10283918.84444  22883246.6724                   22883248.3364
 -14555913.31247 -10177620.26645  22049497.4534                   22049498.1564
   -784949.62545   -351382.83642  24501097.6884                   24501103.0784
 -22579963.16048 -17564088.51246  21805785.2584                   21805783.5124
 -40003794.11748 -31138603.24246  19846968.0234                   19846966.8754
 -23264482.93747 -15619648.32445  22367996.9614                   22367997.4774
 -10564898.00415                  24495854.898
 -39654582.12547 -30881743.40245  22113018.6724                   22113018.5004
 11  7 31  0  5 30.0000000  0  9G17G10G09G12G02G04G27G20G28
 -41304926.09447 -32155281.32846  21573637.9064                   21573636.5124
 -13361286.53147 -10386023.65644  22858311.1884                   22858313.2344
 -14604649.91047 -10215596.83245  22040222.8674                   22040224.0124
   -923155.52745   -459075.69542  24474797.3674                   24474803.0354
 -22689759.87148 -17649644.32846  21784891.3444                   21784889.6844
 -40039467.96148 -31166401.03546  19840179.5704                   19840178.2424
 -23301053.27747 -15648144.72745  22361037.8674                   22361037.9924
 -10554485.90215                  24497835.852
 -39634035.19947 -30865732.86745  22116928.1724                   22116928.3134
 11  7 31  0  6  0.0000000  0  9G17G10G09G12G02G04G27G20G28
 -41312573.46147 -32161240.31646  21572182.7584                   21572181.5984
 -13492134.69147 -10487983.13344  22833411.6174                   22833413.9494
 -14652720.31247 -10253054.30545  22031075.9774                   22031076.9534
  -1061345.570 5                  24448503.602
 -22799195.35248 -17734918.66446  21764066.4614                   21764064.4494
 -40074565.35248 -31193749.63746  19833500.5554                   19833499.6254
 -23337116.48447 -15676245.94545  22354175.4924                   22354175.8794
 -10543588.02715                  24499911.313
 -39613091.00447 -30849412.77745  22120914.5314                   22120913.9144
 11  7 31  0  6 30.0000000  0  9G17G10G09G12G02G04G27G20G28
 -41320122.52748 -32167122.71546  21570746.1484                   21570745.1094
 -13622804.52047 -10589803.64544  22808545.9144                   22808547.9224
 -14700136.75047 -10290002.20745  22022053.4224                   22022053.6174
  -1199529.629 6                  24422206.891
 -22908280.56248 -17819920.06246  21743308.3444                   21743306.4884
 -40109098.61348 -31220658.67246  19826929.0474                   19826928.2584
 -23372684.94547 -15703961.63745  22347406.7814                   22347406.9574
 -10532217.34415                  24502074.938
 -39591761.66847 -30832792.57045  22124973.2974                   22124972.7584
 11  7 31  0  7  0.0000000  0  9G17G10G09G12G02G04G27G20G28
 -41327568.12147 -32172924.47346  21569329.3204                   21569328.3794
 -13753287.18747 -10691478.31644  22783715.6884                   22783717.9264
 -14746894.02047 -10326436.46145  22013155.4304                   22013156.5164
  -1337701.05946   -509317.66453  24395913.0704                   24395914.5944
 -23017008.91848 -17904643.39146  21722617.5234                   21722616.0514
 -40143063.76648 -31247125.02746  19820465.6724                   19820464.3324
 -23407753.94947 -15731288.15245  22340733.4304                   22340733.8444
 -10520370.105 5                  24504328.148
 -39570042.30947 -30815868.45345  22129106.1724                   22129105.3594
 11  7 31  0  7 30.0000000  0  9G17G10G09G12G02G04G27G20G28
 -41334907.05147 -32178643.12146  21567932.9304                   21567931.4774
 -13883576.45747 -10793002.29744  22758922.3914                   22758924.0744
 -14792989.17247 -10362354.78945  22004383.8204                   22004384.7114
  -1475854.81646   -616969.83643  24369622.9924                   24369624.2194
 -23125375.93448 -17989085.16046  21701996.6954                   21701994.5944
 -40176458.35948 -31273146.78146  19814111.0704                   19814109.9454
 -23442321.11747 -15758223.61745  22334155.9224                   22334155.5984
 -10508043.96515                  24506674.078
 -39547929.89847 -30798638.05545  22133314.2194                   22133313.6524
 11  7 31  0  8  0.0000000  0  8G17G10G09G12G02G04G27G28
 -41342146.24648 -32184284.05946  21566555.1484                   21566553.8954
 -14013675.90247 -10894378.37144  22734166.2734                   22734167.3284
 -14838429.57847 -10397762.93445  21995736.8284                   21995737.7114
  -1613995.67246   -724611.89143  24343336.1954                   24343337.2664
 -23233387.86748 -18073250.23846  21681442.0394                   21681440.2544
 -40209291.02348 -31298730.66846  19807863.3754                   19807862.1214
 -23476394.12947 -15784774.02745  22327671.8674                   22327672.1564
 -39525432.16847 -30781107.41045  22137595.0704                   22137594.1724
 11  7 31  0  8 30.0000000  0  8G17G10G09G12G02G04G27G28
 -41349273.20748 -32189837.53146  21565199.2974                   21565198.2034
 -14143569.05947 -10995593.70744  22709447.2194                   22709448.9384
 -14883202.92247 -10432651.30145  21987217.1024                   21987217.7584
  -1752108.99846   -832232.49243  24317053.1484                   24317055.3164
 -23341030.94948 -18157127.90246  21660958.0944                   21660956.9574
 -40241549.59048 -31323867.19947  19801724.6414                   19801723.1484
 -23509960.84447 -15810929.93745  22321284.3914                   22321285.0474
 -39502536.60247 -30763266.77345  22141951.6024                   22141951.4304
 11  7 31  0  9  0.0000000  0  8G17G10G09G12G02G04G27G28
 -41356294.31248 -32195308.51646  21563862.9144                   21563861.6134
 -14273259.78547 -11096651.28944  22684767.9924                   22684769.6214
 -14927316.45747 -10467025.52045  21978822.4614                   21978823.1604
  -1890200.16846   -939835.89143  24290775.8444                   24290777.0554
 -23448311.16048 -18240722.80546  21640543.6804                   21640541.7274
 -40273242.21548 -31348562.73846  19795693.5784                   19795692.6054
 -23543029.03947 -15836697.35545  22314991.8134                   22314992.0204
 -39479250.36747 -30745121.69945  22146383.4304                   22146383.1994
 11  7 31  0  9 30.0000000  0  8G17G10G09G12G02G04G27G28
 -41363204.76248 -32200693.27346  21562548.0474                   21562546.8404
 -14402739.54747 -11197544.48844  22660128.7344                   22660130.8634
 -14970765.69147 -10500882.11745  21970554.5944                   21970554.9964
  -2028262.40646  -1047416.65343  24264503.1334                   24264504.4414
 -23555222.55148 -18324030.31246  21620199.0164                   21620197.3524
 -40304364.98848 -31372814.23046  19789771.1484                   19789769.9614
 -23575594.43047 -15862072.98845  22308794.4454                   22308795.2034
 -39455569.06647 -30726668.80545  22150889.7664                   22150889.8714
 11  7 31  0 10  0.0000000  0  8G17G10G09G12G02G04G27G28
 -41369999.29348 -32205987.71946  21561254.9534                   21561254.1094
 -14532000.10547 -11298266.87544  22635530.2114                   22635533.1134
 -15013546.20347 -10534217.60545  21962413.5864                   21962414.1914
  -2166288.52746  -1154969.31643  24238237.7344                   24238238.8204
 -23661759.16848 -18407045.79746  21599925.6024                   21599923.5744
 -40334914.27048 -31396618.84446  19783957.6724                   19783956.5234
 -23607653.00447 -15887053.69945  22302694.0164                   22302694.6254
 -39431488.21547 -30707904.56645  22155472.2114                   22155471.6844
 11  7 31  0 10 30.0000000  0  8G17G10G09G12G02G04G27G28
 -41376686.60548 -32211198.60946  21559982.3984                   21559981.0984
 -14661046.43047 -11398822.33644  22610974.4064                   22610975.7854
 -15055667.27747 -10567039.26645  21954398.2114                   21954398.0744
  -2304285.60246  -1262499.29343  24211977.3524                   24211978.5944
 -23767928.84048 -18489775.34846  21579722.1884                   21579720.2774
 -40364899.81648 -31419984.19146  19778251.9384                   19778250.8054
 -23639214.17247 -15911646.81245  22296688.3284                   22296688.5124
 -39407016.98047 -30688836.13345  22160129.5704                   22160128.7854
 11  7 31  0 11  0.0000000  0  8G17G10G09G12G02G04G27G28
 -41383271.60948 -32216329.78146  21558729.5944                   21558728.3954
 -14789879.84447 -11499211.90644  22586458.1884                   22586459.1604
 -15097133.68747 -10599350.77745  21946507.1254                   21946507.7894
  -2442256.18046  -1370008.64543  24185722.6564                   24185723.5664
 -23873735.12148 -18572221.72746  21559587.9454                   21559586.2234
 -40394327.41848 -31442914.77746  19772652.1024                   19772650.4184
 -23670283.15648 -15935856.41845  22290776.1564                   22290775.9574
 -39382160.18447 -30669467.26645  22164859.9694                   22164859.0164
 11  7 31  0 11 30.0000000  0  8G17G10G09G12G02G04G27G28
 -41389739.25848 -32221369.49646  21557498.6254                   21557497.6844
 -14918482.26247 -11599421.45344  22561986.1804                   22561987.1724
 -15137931.38347 -10631141.23045  21938744.1484                   21938743.8914
  -2580183.87146  -1477484.59843  24159475.0554                   24159476.3714
 -23979162.07448 -18654372.53546  21539525.7504                   21539523.8054
 -40423183.63748 -31465400.12147  19767160.9454                   19767159.6724
 -23700846.31647 -15959671.89145  22284960.2814                   22284960.3714
 -39356903.87947 -30649787.10545  22169666.0474                   22169665.0204
 11  7 31  0 12  0.0000000  0  8G17G10G09G12G02G04G27G28
 -41396099.57447 -32226325.60946  21556288.0634                   21556287.4384
 -15046860.63747 -11699456.43444  22537555.8524                   22537557.4804
 -15178071.23847 -10662419.07045  21931105.0944                   21931105.7274
  -2718076.72346  -1584933.46543  24133235.0234                   24133236.7114
 -24084219.20748 -18736235.18446  21519534.4144                   21519532.0044
 -40451480.09848 -31487449.30146  19761776.1094                   19761774.9064
 -23730914.64847 -15983101.77345  22279237.5864                   22279237.9774
 -39331258.81647 -30629804.01645  22174546.1024                   22174545.5744
 11  7 31  0 12 30.0000000  0  8G17G10G09G12G02G04G27G28
 -39826943.35247 -31003606.47346  21854888.3134                   21854887.7194
 -13599598.16447 -10571719.30545  22812960.9454                   22812962.4384
 -13642143.56247  -9465592.33645  22223382.4924                   22223383.1954
  -1280519.48446   -464758.79743  24406792.9534                   24406794.3634
 -22613493.35548 -17590214.95746  21799404.3984                   21799401.7344
 -38903808.04348 -30281471.04747  20056288.3754                   20056287.1564
 -22185079.00047 -14778554.51245  22573401.0234                   22573402.1484
 -37729817.18447 -29381927.47345  22479290.0634                   22479289.5044
 11  7 31  0 13  0.0000000  0  8G17G10G09G12G02G04G27G28
 -39833096.02047 -31008400.76246  21853717.9844                   21853716.9344
 -13727524.93747 -10671402.37945  22788616.7114                   22788618.3094
 -13680976.75847  -9495851.98445  22215993.1644                   22215993.4774
  -1418344.16845   -572154.50042  24380565.4454                   24380567.7304
 -22717815.36348 -17671504.76246  21779551.7194                   21779549.9734
 -38930995.23848 -30302655.85546  20051114.7814                   20051113.3914
 -22214167.17647 -14801220.63345  22567864.9924                   22567866.4104
 -37703402.89847 -29361344.97745  22484316.7664                   22484315.7584
 11  7 31  0 13 30.0000000  0  8G17G10G09G12G02G04G27G28
 -39839128.74247 -31013101.59046  21852570.0004                   21852568.7854
 -13855204.94147 -10770893.17244  22764320.2734                   22764321.2194
 -13719141.75047  -9525590.94945  22208730.3364                   22208731.2194
  -1556116.44546   -679509.36742  24354348.1414                   24354350.1764
 -22821752.82848 -17752494.92646  21759773.1954                   21759771.3954
 -38957614.07048 -30323397.78147  20046049.3284                   20046048.3714
 -22242750.87147 -14823493.65245  22562426.2034                   22562426.6484
 -37676589.04347 -29340451.13345  22489418.7894                   22489418.7424
 11  7 31  0 14  0.0000000  0  8G17G10G09G12G02G04G27G28
 -39845051.04747 -31017716.37146  21851442.6564                   21851441.8164
 -13982644.52347 -10870196.63344  22740069.2664                   22740070.0314
 -13756648.81647  -9554817.24645  22201593.1174                   22201593.4964
  -1693843.62946   -786829.12942  24328139.3674                   24328142.4184
 -22925314.33648 -17833192.14146  21740066.1024                   21740064.0434
 -38983675.36348 -30343705.26646  20041089.7584                   20041088.8714
 -22270840.70748 -14845381.86345  22557080.8444                   22557081.6414
 -37649385.65647 -29319253.77045  22494595.5554                   22494595.7814
 11  7 31  0 14 30.0000000  0  8G17G10G09G12G02G04G27G28
 -39850860.73048 -31022243.38746  21850337.1804                   21850336.1764
 -14109838.13747 -10969308.40645  22715864.9304                   22715866.0864
 -13793496.59447  -9583529.80945  22194580.9064                   22194581.8594
  -1831521.555 6                  24301940.070
 -23028496.55548 -17913593.80546  21720431.1884                   21720429.1214
 -39009178.54348 -30363577.86346  20036236.9614                   20036235.7774
 -22298435.50447 -14866884.32045  22551830.1024                   22551830.4304
 -37621791.28947 -29297751.73045  22499846.7344                   22499846.4884
 11  7 31  0 15  0.0000000  0  8G17G10G09G12G02G04G27G28
 -39856568.60548 -31026691.08646  21849251.0784                   21849249.9184
 -14236793.06247 -11068234.18445  22691705.8444                   22691707.3204
 -13829696.71147  -9611737.70745  22187692.9224                   22187693.4024
  -1969159.293 5                  24275748.477
 -23131310.07048 -17993708.15646  21700866.0944                   21700863.8364
 -39034135.65648 -30383024.95746  20031487.4304                   20031486.5124
 -22325547.30948 -14888010.43745  22546671.0394                   22546671.3134
 -37593817.64147 -29275954.15245  22505170.2424                   22505169.8954
 11  7 31  0 15 30.0000000  0  8G17G10G09G12G02G04G27G28
 -39862168.49248 -31031054.62946  21848185.6884                   21848184.3524
 -14363499.96547 -11166966.71944  22667594.5164                   22667595.7774
 -13865244.32447  -9639437.13745  22180928.1484                   22180929.3484
  -2106748.957 5                  24249566.117
 -23233747.82048 -18073529.71546  21681372.8134                   21681370.8914
 -39058542.10948 -30402042.96546  20026843.4534                   20026842.2734
 -22352171.02048 -14908756.21145  22541604.7894                   22541605.2074
 -37565459.39147 -29253856.88345  22510566.5474                   22510566.2194
 11  7 31  0 16  0.0000000  0  8G17G10G09G12G02G04G27G28
 -39867661.96948 -31035335.27346  21847140.2114                   21847139.3094
 -14489957.40647 -11265504.86744  22643530.4924                   22643531.5354
 -13900141.75847  -9666629.96545  22174287.3594                   22174288.1884
  -2244289.855 6                  24223393.328
 -23335810.94548 -18153059.36346  21661950.8054                   21661948.9184
 -39082401.17648 -30420634.44946  20022303.0944                   20022302.3364
 -22378309.46948 -14929123.86745  22536630.3914                   22536630.7154
 -37536718.73047 -29231461.63745  22516035.6644                   22516035.5554
 11  7 31  0 16 30.0000000  0  8G17G10G09G12G02G04G27G28
 -39873033.78548 -31039521.10546  21846118.0164                   21846116.9144
 -14616146.20747 -11363833.66445  22619518.3914                   22619519.1374
 -13934374.61747  -9693304.91845  22167772.8444                   22167773.7544
  -2381765.320 6                  24197233.469
 -23437483.25048 -18232284.47346  21642603.2344                   21642600.9804
 -39105698.87948 -30438788.50446  20017869.2034                   20017868.3914
 -22403948.17247 -14949102.11345  22531751.8524                   22531751.7344
 -37507580.96147 -29208756.95745  22521580.1884                   22521580.3674
 11  7 31  0 17  0.0000000  0  8G17G10G09G12G02G04G27G28
 -39878287.66047 -31043615.03146  21845118.1414                   21845117.4024
 -14742066.98847 -11461953.63745  22595555.6094                   22595557.1024
 -13967947.61747  -9719465.70345  22161384.4144                   22161384.9454
  -2519176.949 6                  24171083.492
 -23538767.63748 -18311207.30546  21623329.5394                   21623327.0004
 -39128440.53548 -30456509.28147  20013542.0004                   20013540.6524
 -22429092.26247 -14968694.95345  22526967.0704                   22526967.0124
 -37478050.91447 -29185746.59844  22527200.1484                   22527199.8284
 11  7 31  0 17 30.0000000  0  8G17G10G09G12G02G04G27G28
 -39883433.69948 -31047624.92646  21844139.1564                   21844137.9144
 -14867727.19147 -11559870.55945  22571643.4694                   22571644.3914
 -14000872.26647  -9745121.27745  22155119.3364                   22155119.8364
  -2656533.387 6                  24144944.781
 -23639673.89848 -18389835.48846  21604127.7424                   21604125.3874
 -39150638.34048 -30473806.26646  20009317.7734                   20009316.7664
 -22453753.56247 -14987911.57045  22522273.7344                   22522274.0394
 -37448139.55547 -29162439.10944  22532891.7344                   22532891.5634
 11  7 31  0 18  0.0000000  0  8G17G10G09G12G02G04G27G28
 -39888466.58248 -31051546.64846  21843181.3834                   21843180.1484
 -14993117.63747 -11657577.28145  22547782.0084                   22547783.3834
 -14033143.84847  -9770267.98045  22148977.7814                   22148978.8014
  -2793826.926 6                  24118819.930
 -23740195.72748 -18468164.12146  21584999.1884                   21584996.8554
 -39172287.86748 -30490676.02346  20005197.9384                   20005196.7624
 -22477927.49647 -15006748.43445  22517673.6334                   22517674.5514
 -37417841.98047 -29138830.68745  22538657.2034                   22538656.9694
 11  7 31  0 18 30.0000000  0  8G17G10G09G12G02G04G27G28
 -39893393.64548 -31055385.91446  21842243.7114                   21842242.3364
 -15118242.95347 -11755077.39545  22523971.4224                   22523972.2504
 -14064771.27747  -9794912.75445  22142959.6094                   22142960.1764
  -2931063.48046   -845348.43052  24092705.1724                   24092705.0394
 -23840340.39548 -18546198.85546  21565942.3834                   21565939.9414
 -39193398.44548 -30507125.83247  20001181.0944                   20001179.7664
 -22501622.97747 -15025212.49245  22513164.9534                   22513165.1644
 -37387166.81247 -29114928.03144  22544494.5234                   22544494.1134
 11  7 31  0 19  0.0000000  0  8G17G10G09G12G02G04G27G28
 -39898206.29748 -31059136.02746  21841328.2034                   21841327.2974
 -15243090.65247 -11852361.19145  22500213.4304                   22500214.4454
 -14095747.05147  -9819049.71145  22137065.0004                   22137064.9184
  -3068232.23045   -952233.02742  24066601.6024                   24066603.1054
 -23940098.60548 -18623932.46146  21546958.4454                   21546956.3364
 -39213962.99248 -30523150.14146  19997267.7114                   19997266.6914
 -22524832.55148 -15043297.93045  22508748.6254                   22508748.7344
 -37356106.24647 -29090725.07845  22550405.8674                   22550405.4184
 11  7 31  0 19 30.0000000  0  8G17G10G09G12G02G04G27G28
 -39902904.80548 -31062797.18446  21840434.0314                   21840432.8404
 -15367658.32447 -11949426.79745  22476508.9534                   22476509.9964
 -14126072.88347  -9842680.24645  22131294.3134                   22131294.6024
  -3205332.05145  -1059063.93042  24040512.7274                   24040515.0744
 -24039470.26648 -18701364.84846  21528048.8134                   21528046.4534
 -39233983.95348 -30538750.87146  19993457.7424                   19993456.6294
 -22547558.08647 -15061006.16045  22504423.8054                   22504424.3244
 -37324661.73447 -29066222.93745  22556389.2504                   22556389.5554
 11  7 31  0 20  0.0000000  0  8G17G10G09G12G02G04G27G28
 -39907486.44148 -31066367.30146  21839561.9844                   21839560.8554
 -15491939.94147 -12046269.51645  22452858.7274                   22452859.5634
 -14155747.15647  -9865803.04745  22125647.8054                   22125648.2154
  -3342358.43745  -1165837.52042  24014437.4534                   24014440.4494
 -24138451.94948 -18778493.37146  21509213.3984                   21509210.7074
 -39253460.10248 -30553927.09046  19989751.6094                   19989750.4694
 -22569798.16447 -15078336.13345  22500191.5554                   22500192.0864
 -37292831.33247 -29041420.10245  22562446.1644                   22562446.7154
 11  7 31  0 20 30.0000000  0  8G17G10G09G12G02G04G27G28
 -39911951.36348 -31069846.45746  21838712.0704                   21838711.2544
 -15615932.19547 -12142886.73845  22429264.1724                   22429264.3914
 -14184770.96947  -9888419.03545  22120124.5864                   22120124.3834
  -3479309.078 5                  23988376.094
 -24237043.08248 -18855317.55946  21490451.5704                   21490449.2624
 -39272393.04348 -30568680.02747  19986148.6094                   19986147.5234
 -22591554.32047 -15095289.01645  22496051.7814                   22496052.4344
 -37260615.92647 -29016317.25845  22568576.9454                   22568577.2464
 11  7 31  0 21  0.0000000  0  8G17G10G09G12G02G04G27G28
 -39916294.03548 -31073230.37546  21837886.1644                   21837884.9304
 -15739626.87547 -12239272.09445  22405725.6484                   22405725.9614
 -14213140.94148  -9910525.52045  22114726.0234                   22114725.9494
  -3616177.121 5                  23962330.586
 -24335238.16048 -18931833.13746  21471766.1564                   21471763.5354
 -39290779.56648 -30583007.18447  19982649.4774                   19982648.7274
 -22612822.71948 -15111861.82045  22492004.3054                   22492005.2704
 -37228011.47747 -28990911.29345  22574781.6174                   22574780.8794
 11  7 31  0 21 30.0000000  0  8G17G10G09G12G02G04G27G28
 -39920536.84048 -31076536.46146  21837078.2584                   21837077.5704
 -15863042.73047 -12335440.18045  22382240.2114                   22382240.8794
 -14240880.23047  -9932140.56645  22109447.2034                   22109447.7424
  -3752982.92646  -1201402.28553  23936297.5784                   23936297.5864
 -24433058.74248 -19008056.90646  21453151.1884                   21453149.2424
 -39308643.48848 -30596927.11746  19979250.3674                   19979249.5704
 -22633626.88347 -15128072.90245  22488045.5554                   22488046.1484
 -37195041.09047 -28965220.16445  22581055.5634                   22581055.6844
 11  7 31  0 22  0.0000000  0  8G17G10G09G12G02G04G27G28
 -39924672.82448 -31079759.30946  21836291.3284                   21836290.0474
 -15986169.44547 -12431382.96145  22358809.6804                   22358810.2074
 -14267982.95748  -9953259.58645  22104289.7974                   22104290.5124
  -3889717.14146  -1307948.31243  23910278.4454                   23910278.3874
 -24530497.45748 -19083983.11746  21434609.0944                   21434606.8324
 -39325979.38348 -30610435.59046  19975951.4774                   19975950.5004
 -22653961.29348 -15143917.94545  22484175.7584                   22484176.8324
 -37161698.40647 -28939238.92644  22587400.8674                   22587400.9024
 11  7 31  0 22 30.0000000  0  8G17G10G09G12G02G04G27G28
 -39928693.59447 -31082892.37946  21835526.2974                   21835525.0474
 -16108995.97747 -12527091.82845  22335436.2584                   22335437.1884
 -14294442.93747  -9973877.75845  22099255.0784                   22099254.9654
  -4026369.88746  -1414430.88343  23884273.2584                   23884273.7584
 -24627545.84048 -19159605.17246  21416141.4844                   21416139.0864
 -39342781.28148 -30623527.98046  19972754.1414                   19972753.2074
 -22673819.22347 -15159391.69145  22480397.3914                   22480397.4064
 -37127976.52047 -28912962.21545  22593817.5164                   22593817.5274
 11  7 31  0 23  0.0000000  0  8G17G10G09G12G02G04G27G28
 -39932592.68747 -31085930.64846  21834784.2894                   21834783.1414
 -16231512.53147 -12622559.16845  22312122.4694                   22312122.9104
 -14320255.09447  -9993991.12945  22094342.7274                   22094343.2274
  -4162932.81646  -1520843.47743  23858285.8594                   23858286.0904
 -24724196.57048 -19234917.37146  21397748.8914                   21397746.6764
 -39359044.21148 -30636200.39146  19969659.6414                   19969658.4454
 -22693195.71947 -15174490.28945  22476709.8754                   22476710.6764
 -37093870.25447 -28886386.00044  22600307.7504                   22600308.0004
 11  7 31  0 23 30.0000000  0  8G17G10G09G12G02G04G27G28
 -39936383.88347 -31088884.82845  21834063.0704                   21834061.9774
 -16353729.58647 -12717793.12145  22288865.2664                   22288865.5204
 -14345434.46947 -10013611.41845  22089551.1644                   22089551.6334
  -4299418.29346  -1627195.77042  23832313.5004                   23832313.7304
 -24820463.29748 -19309930.34046  21379429.9694                   21379427.7154
 -39374784.05948 -30648465.19946  19966664.0704                   19966663.2304
 -22712106.07447 -15189225.66845  22473111.4304                   22473111.9144
 -37059394.27047 -28859521.68744  22606868.6954                   22606868.5354
 11  7 31  0 24  0.0000000  0  8G17G10G09G12G02G04G27G28
 -39940062.61347 -31091751.37946  21833362.8284                   21833361.8834
 -16475639.41047 -12812787.66445  22265666.4144                   22265667.0044
 -14369977.77747 -10032736.08245  22084880.4924                   22084881.1764
  -4435819.39145  -1733482.19942  23806357.6414                   23806357.8444
 -24916340.87148 -19384640.07446  21361185.1174                   21361182.5784
 -39389997.93448 -30660320.16846  19963769.0394                   19963767.7664
 -22730547.15247 -15203595.36745  22469602.6484                   22469602.4964
 -37024544.85247 -28832366.37144  22613500.0234                   22613500.3284
 11  7 31  0 24 30.0000000  0  8G17G10G09G12G02G04G27G28
 -39943623.16448 -31094525.85946  21832685.5864                   21832684.1294
 -16597233.61347 -12907536.28145  22242527.8524                   22242528.5984
 -14393881.66847 -10051362.48445  22080332.1484                   22080332.5784
  -4572128.76645  -1839697.24642  23780418.0004                   23780419.8054
 -25011823.69148 -19459042.21546  21343015.6724                   21343013.3324
 -39404682.50848 -30671762.70346  19960974.8444                   19960973.7624
 -22748515.42647 -15217596.65245  22466183.3524                   22466183.8874
 -36989317.88747 -28804916.88744  22620203.4064                   22620202.9454
 11  7 31  0 25  0.0000000  0  8G17G10G09G12G02G04G27G28
 -39947075.12147 -31097215.70746  21832028.5554                   21832027.6764
 -16718518.32847 -13002043.73845  22219447.3754                   22219448.7584
 -14417156.92248 -10069499.06645  22075903.3834                   22075903.1724
  -4708353.91845  -1945846.57842  23754494.9774                   23754497.1684
 -25106920.87948 -19533143.86346  21324918.7504                   21324916.5784
 -39418849.16048 -30682801.65646  19958278.9924                   19958277.9454
 -22766021.85947 -15231238.06245  22462851.4534                   22462852.4144
 -36953724.03147 -28777181.50844  22626976.9844                   22626976.7344
 11  7 31  0 25 30.0000000  0  8G17G10G09G12G02G04G27G28
 -39950410.64848 -31099814.82446  21831394.0944                   21831393.0704
 -16839482.55147 -13096301.46545  22196429.2974                   22196429.6374
 -14439797.14847 -10087140.80945  22071594.8364                   22071594.8404
  -4844484.70745  -2051922.35942  23728590.6644                   23728592.5664
 -25201624.25048 -19606938.62946  21306897.4384                   21306894.7544
 -39432491.49648 -30693432.04746  19955682.9694                   19955682.0314
 -22783059.88747 -15244514.46945  22459609.7424                   22459610.1174
 -36917756.31247 -28749154.81644  22633821.3444                   22633821.2194
 11  7 31  0 26  0.0000000  0  8G17G10G09G12G02G04G27G28
 -39953623.90248 -31102318.67246  21830782.5234                   21830781.4734
 -16960117.52747 -13190302.61345  22173472.9454                   22173473.5904
 -14461798.11747 -10104284.41845  22067407.8054                   22067407.6724
  -4980514.08645  -2157919.10942  23702703.6644                   23702705.5904
 -25295927.28148 -19680421.44146  21288952.0004                   21288949.6484
 -39445606.09448 -30703651.21946  19953187.6174                   19953186.8404
 -22799625.54347 -15257422.79345  22456457.2344                   22456458.2114
 -36881410.52747 -28720833.48444  22640738.2424                   22640737.6134
 11  7 31  0 26 30.0000000  0  8G17G10G09G12G02G04G27G28
 -39956719.89148 -31104731.14546  21830193.5004                   21830192.2934
 -17080424.61347 -13284048.28545  22150579.4774                   22150579.4144
 -14483166.62547 -10120935.22345  22063341.7034                   22063341.7814
  -5116444.85246  -2263839.06642  23676838.1484                   23676838.6914
 -25389834.78548 -19753596.06246  21271082.3364                   21271079.5984
 -39458199.62948 -30713464.35946  19950790.7034                   19950789.5984
 -22815725.37547 -15269968.14845  22453393.3754                   22453394.3634
 -36844692.38347 -28692222.05544  22647725.2344                   22647725.3914
 11  7 31  0 27  0.0000000  0  8G17G10G09G12G02G04G27G28
 -39959687.17648 -31107043.32446  21829628.3834                   21829627.3444
 -17200389.79747 -13377527.54345  22127750.2734                   22127750.5944
 -14503893.57047 -10137086.10945  22059397.6094                   22059398.0514
  -5252263.96546  -2369672.02743  23650992.4144                   23650992.7734
 -25483335.86748 -19826453.99246  21253289.5634                   21253287.1994
 -39470263.34848 -30722864.66446  19948495.4534                   19948494.0004
 -22831350.37947 -15282143.50445  22450420.6254                   22450420.9924
 -36807592.15647 -28663312.85244  22654785.3364                   22654785.0044
 11  7 31  0 27 30.0000000  0  8G17G10G09G12G02G04G27G28
 -39962530.57048 -31109258.96946  21829087.5554                   21829086.4104
 -17320014.99247 -13470741.87545  22104986.2424                   22104987.1484
 -14523985.25447 -10152741.98445  22055574.1484                   22055574.5704
  -5387974.24746  -2475420.16843  23625167.0164                   23625167.9304
 -25576434.45348 -19898998.28146  21235573.1564                   21235570.9694
 -39481803.75848 -30731857.18446  19946299.0864                   19946297.9844
 -22846506.79347 -15293953.71945  22447535.5634                   22447536.8554
 -36770115.66447 -28634110.46944  22661917.0634                   22661916.6914
 11  7 31  0 28  0.0000000  0  8G17G10G09G12G02G04G27G28
 -39965259.31248 -31111385.27745  21828567.9694                   21828566.9964
 -17439306.41447 -13563696.12945  22082285.7194                   22082286.1524
 -14543452.91048 -10167911.59445  22051869.8674                   22051870.4884
  -5523582.82446  -2581089.08642  23599361.9694                   23599362.1764
 -25669139.80148 -19971236.14846  21217931.9384                   21217929.6914
 -39492832.14848 -30740450.72746  19944200.6644                   19944199.4614
 -22861205.47347 -15305407.27345  22444739.2034                   22444740.1174
 -36732273.69147 -28604623.28944  22669117.9614                   22669118.1764
 11  7 31  0 28 30.0000000  0  8G17G10G09G12G02G04G27G28
 -39967874.95748 -31113423.44546  21828070.3594                   21828069.5274
 -17558261.95347 -13656388.66845  22059649.1954                   22059649.5234
 -14562299.35547 -10182597.16045  22048283.9224                   22048283.7304
  -5659089.09046  -2686678.37142  23573576.0864                   23573576.0474
 -25761452.71948 -20043168.23446  21200365.4924                   21200363.0824
 -39503352.05548 -30748648.05146  19942198.5634                   19942197.2974
 -22875449.53947 -15316506.57845  22442028.7114                   22442029.4064
 -36694068.59447 -28574853.16844  22676388.0944                   22676388.8674
 11  7 31  0 29  0.0000000  0  8G17G10G09G12G02G04G27G28
 -39970373.93448 -31115370.71946  21827595.1804                   21827594.2664
 -17676874.80147 -13748814.16445  22037078.4694                   22037078.4884
 -14580523.07447 -10196797.47345  22044815.7734                   22044815.7464
  -5794487.88345  -2792183.84442  23547810.0554                   23547811.9304
 -25853369.86748 -20114791.92246  21182874.3444                   21182871.5824
 -39513361.98848 -30756447.99646  19940293.7894                   19940292.7774
 -22889237.44547 -15327250.44145  22439404.7504                   22439405.6454
 -36655498.37947 -28544798.54744  22683727.6884                   22683728.8014
 11  7 31  0 29 30.0000000  0  8G17G10G09G12G02G04G27G28
 -39972750.29348 -31117222.44946  21827142.7194                   21827141.8014
 -17795136.83647 -13840966.31245  22014573.1804                   22014573.8284
 -14598120.51247 -10210509.77745  22041467.4144                   22041466.8714
  -5929772.00046  -2897599.86343  23522065.6724                   23522067.5004
 -25944885.89848 -20186103.04746  21165459.3984                   21165456.8834
 -39522858.64848 -30763847.97346  19938486.2424                   19938484.9104
 -22902565.74247 -15337636.18745  22436868.7664                   22436869.1564
 -36616558.93747 -28514456.20744  22691138.1804                   22691138.2304
 11  7 31  0 30  0.0000000  0  8G17G10G09G12G02G04G27G28
 -39975003.73448 -31118978.39146  21826713.9614                   21826712.7504
 -17913044.20747 -13932842.10545  21992136.5634                   21992136.5164
 -14615092.71147 -10223734.89545  22038237.2424                   22038237.9064
  -6064938.27746  -3002924.11343  23496345.6954                   23496345.7424
 -26035999.49248 -20257100.59446  21148120.9774                   21148118.5124
 -39531843.35948 -30770849.03546  19936776.6254                   19936775.6954
 -22915435.35247 -15347664.48845  22434419.5554                   22434420.0554
 -36577250.62147 -28483826.42644  22698617.9144                   22698618.4414
 11  7 31  0 30 30.0000000  0  8G17G10G09G12G02G04G27G28
 -39977143.75047 -31120645.96146  21826306.5784                   21826305.6024
 -18030603.69147 -14024446.82045  21969765.8134                   21969766.1214
 -14631451.39847 -10236481.93045  22035123.8984                   22035124.8404
  -6199994.67646  -3108162.75443  23470644.7734                   23470644.8674
 -26126720.23848 -20327792.02346  21130857.5314                   21130855.1334
 -39540327.97348 -30777460.41046  19935162.2034                   19935161.1994
 -22927857.77747 -15357344.35245  22432055.3914                   22432055.7584
 -36537584.55147 -28452917.89544  22706166.2034                   22706167.0944
 11  7 31  0 31  0.0000000  0  8G17G10G09G12G02G04G27G28
 -39979159.11747 -31122216.40646  21825923.5554                   21825922.1414
 -18147801.07047 -14115769.37945  21947463.6564                   21947464.0784
 -14647187.49647 -10248743.84445  22032129.6094                   22032130.2734
  -6334927.55946  -3213305.13743  23444967.8674                   23444968.2114
 -26217036.79748 -20398168.50846  21113670.4774                   21113668.1764
 -39548303.55148 -30783675.13746  19933644.5004                   19933643.4454
 -22939823.84447 -15366668.61745  22429778.5314                   22429779.4534
 -36497550.91047 -28421722.92644  22713784.6254                   22713784.9454
 11  7 31  0 31 30.0000000  0  8G17G10G09G12G02G04G27G28
 -39981063.69547 -31123700.52345  21825560.6884                   21825559.7464
 -18264647.18447 -14206818.20745  21925228.6024                   21925228.5474
 -14662316.82847 -10260532.93745  22029250.8054                   22029251.0744
  -6469749.67647  -3318361.28543  23419311.8834                   23419312.1684
 -26306962.85248 -20468240.68746  21096558.1804                   21096555.5044
 -39555786.03948 -30789505.64846  19932220.5234                   19932219.3874
 -22951349.35947 -15375649.58645  22427585.2664                   22427586.4534
 -36457164.87547 -28390253.37944  22721469.7734                   22721470.4024
 11  7 31  0 32  0.0000000  0  8G17G10G09G12G02G04G27G28
 -38407430.68747 -29897493.00445  22125013.3754                   22125012.3714
 -16805708.35947 -13069982.67245  22202855.2664                   22202855.4064
 -13101414.10947  -9044245.11745  22326280.7034                   22326280.7664
  -5029027.56247  -2195720.62543  23693472.0084                   23693471.8874
 -24821069.08648 -19310401.32046  21379314.0554                   21379311.2934
 -37987350.60548 -29567348.15646  20230683.8444                   20230682.9694
 -21387009.11747 -14156683.22345  22725269.4304                   22725270.4224
 -34841002.69147 -27130906.31644  23029014.8754                   23029015.9344
 11  7 31  0 32 30.0000000  0  8G17G10G09G12G02G04G27G28
 -38409098.48447 -29898792.60945  22124696.2974                   22124694.9264
 -16921827.74247 -13160465.21545  22180758.7734                   22180758.0984
 -13115320.72347  -9055081.44945  22323634.4064                   22323634.7584
  -5163606.59047  -2300587.28943  23667862.4924                   23667862.1884
 -24910199.44148 -19379853.48046  21362353.4224                   21362350.5124
 -37993838.45748 -29572403.62146  20229449.3134                   20229448.2464
 -21397644.14847 -14164970.32845  22723245.2814                   22723246.6054
 -34799901.46547 -27098879.47744  23036837.0394                   23036837.3754
 11  7 31  0 33  0.0000000  0  8G17G10G09G12G02G04G27G28
 -38410650.46947 -29900001.96146  22124400.4614                   22124399.4184
 -17037581.88347 -13250663.14845  22158731.2974                   22158731.0634
 -13128622.03547  -9065446.12545  22321103.1884                   22321103.1374
  -5298063.63747  -2405358.95743  23642276.4064                   23642276.3324
 -24998934.48448 -19448997.60946  21345467.1884                   21345464.4694
 -37999835.02348 -29577076.27346  20228308.2734                   20228307.0234
 -21407839.59447 -14172914.88745  22721305.6254                   22721307.0514
 -34758447.33247 -27066577.62144  23044725.2504                   23044725.8594
 11  7 31  0 33 30.0000000  0  8G17G10G09G12G02G04G27G28
 -38412068.68747 -29901107.09045  22124130.4064                   22124129.5864
 -17152949.82447 -13340560.14545  22136777.3754                   22136777.0124
 -13141302.10547  -9075326.69945  22318690.1024                   22318690.2194
  -5432378.92247  -2510020.09444  23616716.3444                   23616716.6484
 -25087255.99248 -19517819.51246  21328660.1484                   21328657.7424
 -38005324.53148 -29581353.81246  20227263.7584                   20227262.4384
 -21417579.47347 -14180504.46545  22719452.2974                   22719453.2154
 -34716623.64847 -27033987.81244  23052684.1334                   23052684.6024
 11  7 31  0 34  0.0000000  0  8G17G10G09G12G02G04G27G28
 -38413362.23448 -29902115.06645  22123884.6644                   22123883.7854
 -17267937.70347 -13430160.98045  22114895.5554                   22114895.9184
 -13153371.92647  -9084731.76645  22316393.0634                   22316393.8094
  -5566559.31647  -2614576.13344  23591182.7034                   23591183.0634
 -25175172.81648 -19586326.07446  21311930.2734                   21311927.4494
 -38010318.14548 -29585244.94546  20226313.4694                   20226312.6994
 -21426874.72747 -14187747.57845  22717683.9774                   22717684.7274
 -34674441.27347 -27001118.50044  23060711.0234                   23060711.8094
 11  7 31  0 34 30.0000000  0  8G17G10G09G12G02G04G27G28
 -38414538.60248 -29903031.74645  22123660.8674                   22123659.7704
 -17382550.39847 -13519469.48445  22093085.4454                   22093085.3094
 -13164841.95747  -9093669.47745  22314210.7584                   22314211.2624
  -5700611.10547  -2719031.98844  23565673.7504                   23565673.9654
 -25262693.21948 -19654523.74246  21295275.7734                   21295273.0864
 -38014826.37948 -29588757.85946  20225455.8984                   20225454.5044
 -21435735.57447 -14194652.19945  22715997.5004                   22715998.4964
 -34631909.52747 -26967976.94944  23068804.5164                   23068805.0554
 11  7 31  0 35  0.0000000  0  9G17G10G09G12G05G02G04G27G28
 -38415591.72348 -29903852.38345  22123460.5164                   22123459.3674
 -17496778.63348 -13608478.39845  22071348.2734                   22071348.3524
 -13175708.07047  -9102136.60245  22312143.0314                   22312143.7074
  -5834525.55547  -2823380.77744  23540190.2584                   23540190.7074
   2884461.24657   2288724.12553  24766074.0704                   24766080.7544
 -25349811.03148 -19722407.69946  21278697.6094                   21278694.9884
 -38018845.02748 -29591889.27346  20224690.5314                   20224689.5004
 -21444157.48847 -14201214.78945  22714394.5864                   22714395.7774
 -34589023.39147 -26934559.25844  23076966.1724                   23076966.5274
 11  7 31  0 35 30.0000000  0  9G17G10G09G12G05G02G04G27G28
 -38416533.36748 -29904586.14846  22123281.5784                   22123280.0554
 -17610631.28147 -13697194.64845  22049682.6254                   22049683.2974
 -13185983.82047  -9110143.68745  22310188.1334                   22310187.8484
  -5968312.60547  -2927630.30544  23514731.2974                   23514731.9224
   2740516.12146   2176559.39143  24738682.0784                   24738688.4304
 -25436537.90248 -19789987.02746  21262194.0164                   21262191.4144
 -38022388.03948 -29594650.07446  20224016.6334                   20224015.3914
 -21452154.24647 -14207446.09845  22712872.9304                   22712873.7544
 -34545796.09447 -26900875.72344  23085191.6334                   23085192.0864
 11  7 31  0 36  0.0000000  0  9G17G10G09G12G05G02G04G27G28
 -38417353.84848 -29905225.50045  22123124.9534                   22123123.9264
 -17724095.83247 -13785608.49245  22028091.4304                   22028091.4144
 -13195662.38747  -9117685.44945  22308345.5784                   22308346.6294
  -6101960.75047  -3031771.58244  23489298.9454                   23489298.8914
   2596516.02746   2064351.81343  24711279.4064                   24711285.7344
 -25522864.26248 -19857254.27046  21245766.8984                   21245764.3364
 -38025448.31248 -29597034.69546  20223434.4144                   20223433.0554
 -21459718.50447 -14213340.37945  22711433.5944                   22711434.8054
 -34502219.70747 -26866920.17644  23093484.1644                   23093484.3594
 11  7 31  0 36 30.0000000  0  9G17G10G09G12G05G02G04G27G28
 -38418063.98048 -29905778.86746  22122989.9694                   22122989.0554
 -17837180.55947 -13873726.36345  22006571.8834                   22006571.5394
 -13204757.01647  -9124772.19145  22306615.5634                   22306615.7934
  -6235479.01247  -3135811.67644  23463890.8524                   23463890.7934
   2452452.23047   1952094.63743  24683865.6174                   24683870.7704
 -25608801.07048 -19924217.96146  21229413.4384                   21229410.8484
 -38028039.03548 -29599053.44946  20222941.2664                   20222940.0274
 -21466863.42247 -14218907.91845  22710074.6484                   22710075.2344
 -34458307.19147 -26832702.69144  23101840.3444                   23101840.8484
 11  7 31  0 37  0.0000000  0  9G17G10G09G12G05G02G04G27G28
 -38418657.08247 -29906241.02746  22122877.3284                   22122876.0824
 -17949875.55147 -13961540.54345  21985126.5634                   21985126.7704
 -13213263.05547  -9131400.29345  22304996.5474                   22304997.1334
  -6368858.50847  -3239743.69545  23438510.4534                   23438509.5234
   2308333.95346   1839795.04343  24656439.3594                   24656445.2074
 -25694341.64548 -19990872.90246  21213135.5084                   21213133.0234
 -38030155.78948 -29600702.87146  20222538.4774                   20222537.2664
 -21473584.35547 -14224145.03945  22708795.1884                   22708796.3404
 -34414052.84447 -26798218.85544  23110261.6254                   23110262.7704
 11  7 31  0 37 30.0000000  0  9G17G10G09G12G05G02G04G27G28
 -38419137.33247 -29906615.25045  22122785.5084                   22122784.6954
 -18062182.39147 -14049052.28145  21963755.2034                   21963755.5474
 -13221187.19547  -9137574.98045  22303488.5234                   22303489.0864
  -6502101.96947  -3343569.68445  23413155.2114                   23413154.0084
   2164159.10247   1727451.34043  24629004.6024                   24629009.7074
 -25779490.60548 -20057222.69946  21196932.0704                   21196929.3524
 -38031805.41448 -29601988.29346  20222224.7194                   20222223.7664
 -21479887.66047 -14229056.75845  22707595.4064                   22707596.8714
 -34369462.68047 -26763473.33244  23118746.9384                   23118748.3484
 11  7 31  0 38  0.0000000  0  9G17G10G09G12G05G02G04G27G28
 -38419503.22748 -29906900.38345  22122715.8984                   22122714.9844
 -18174096.63347 -14136258.09445  21942458.8054                   21942459.4304
 -13228530.52047  -9143297.07445  22302091.2274                   22302091.6024
  -6635205.39547  -3447286.53944  23387825.7114                   23387826.0044
   2019931.30946   1615066.41443  24601557.8834                   24601563.9024
 -25864246.69948 -20123266.35546  21180803.6024                   21180800.8364
 -38032988.75848 -29602910.37946  20221999.3834                   20221998.4734
 -21485774.31647 -14233643.81245  22706475.8674                   22706476.8714
 -34324536.91847 -26728466.34044  23127296.0474                   23127296.7114
 11  7 31  0 38 30.0000000  0  9G17G10G09G12G05G02G04G27G28
 -38419741.39848 -29907085.97745  22122671.1094                   22122669.9614
 -18285602.29747 -14223145.52045  21921239.7974                   21921239.9064
 -13235282.05147  -9148558.03545  22300806.4694                   22300807.0234
  -6768153.84047  -3550882.62544  23362525.8594                   23362526.1954
   1875666.07046   1502652.29343  24574105.1484                   24574110.6454
 -25948596.63748 -20188993.53946  21164752.0474                   21164749.1724
 -38033694.77048 -29603460.51246  20221865.0084                   20221864.0354
 -21491233.15647 -14237897.48045  22705437.4534                   22705438.0944
 -34279263.82047 -26693188.64844  23135911.7274                   23135911.9224
 11  7 31  0 39  0.0000000  0  9G17G10G09G12G05G02G04G27G28
 -38419857.30548 -29907176.30546  22122648.4304                   22122647.9384
 -18396701.84448 -14309716.49645  21900098.2814                   21900098.1374
 -13241449.95347  -9153364.24245  22299633.3594                   22299633.4304
  -6900950.54347  -3654360.48844  23337256.2034                   23337255.3674
   1731360.31646   1390206.61743  24546644.7504                   24546649.7934
 -26032545.93448 -20254408.52046  21148777.2034                   21148774.2894
 -38033931.41448 -29603644.91046  20221819.9304                   20221818.7274
 -21496271.75847 -14241823.71145  22704478.1804                   22704479.4454
 -34233650.65647 -26657645.97744  23144591.2194                   23144592.1094
 11  7 31  0 39 30.0000000  0  9G17G10G09G12G05G02G04G27G28
 -38419847.45348 -29907168.64546  22122651.0554                   22122649.5474
 -18507389.01647 -14395966.15245  21879034.9454                   21879035.2114
 -13247033.01647  -9157714.73845  22298570.6804                   22298570.7504
  -7033590.16847  -3757715.97745  23312015.2424                   23312015.1564
   1587020.03546   1277734.03143  24519177.6564                   24519182.4804
 -26116091.27748 -20319508.73446  21132879.1884                   21132876.2734
 -38033697.62148 -29603462.73846  20221864.5554                   20221863.3754
 -21500888.94947 -14245421.54745  22703600.1254                   22703600.5784
 -34187695.66447 -26621836.96544  23153336.1484                   23153337.3954
 11  7 31  0 40  0.0000000  0  9G17G10G09G12G05G02G04G27G28
 -38419709.80948 -29907061.40246  22122676.8054                   22122675.7854
 -18617658.71147 -14481890.50845  21858051.5234                   21858051.2504
 -13252031.50847  -9161609.73045  22297619.5234                   22297620.0084
  -7166068.55147  -3860945.80945  23286805.7664                   23286805.2894
   1442649.47346   1165237.84844  24491703.6954                   24491709.0124
 -26199230.90248 -20384292.81646  21117058.3444                   21117055.1174
 -38032993.78948 -29602914.29346  20221998.3834                   20221997.2584
 -21505084.88747 -14248691.13745  22702801.5394                   22702802.5554
 -34141398.23047 -26585761.10544  23162146.7114                   23162147.1484
 11  7 31  0 40 30.0000000  0  9G17G10G09G12G05G02G04G27G28
 -38419451.51247 -29906860.14845  22122725.9454                   22122724.8014
 -18727515.60247 -14567493.20345  21837146.2034                   21837146.1914
 -13256455.39547  -9165056.97745  22296777.6954                   22296778.1094
  -7298391.07047  -3964054.22744  23261625.1254                   23261624.3984
   1298243.65246   1052714.18844  24464224.0474                   24464228.6804
 -26281972.10948 -20448766.43746  21101313.2034                   21101309.9924
 -38031829.75448 -29602007.24646  20222219.7504                   20222218.6884
 -21508869.12547 -14251639.90645  22702081.3284                   22702082.2344
 -34094767.44947 -26549425.48844  23171020.4924                   23171020.9384
 11  7 31  0 41  0.0000000  0  9G17G10G09G12G05G02G04G27G28
 -38419071.91047 -29906564.35946  22122798.1644                   22122797.8754
 -18836956.33647 -14652771.60945  21816319.9304                   21816320.0234
 -13260306.82047  -9168058.15245  22296044.7584                   22296045.8444
  -7430555.03147  -4067039.07445  23236474.8524                   23236474.6844
   1153805.28546    940165.12944  24436738.5944                   24436743.4534
 -26364314.59848 -20512929.37146  21085643.7814                   21085640.9454
 -38030207.33248 -29600743.01246  20222528.7504                   20222527.6804
 -21512243.16447 -14254269.07445  22701439.5394                   22701440.5004
 -34047804.48447 -26512831.04744  23179956.7034                   23179957.7734
 11  7 31  0 41 30.0000000  0  9G17G10G09G12G05G02G04G27G28
 -38418569.12147 -29906172.58645  22122894.1334                   22122892.7234
 -18945976.52747 -14737722.32845  21795574.4304                   21795574.0824
 -13263586.44147  -9170613.76645  22295420.9924                   22295421.2934
  -7562556.82447  -4169897.53545  23211356.0864                   23211355.8364
   1009338.32846    827593.78944  24409246.8754                   24409252.0274
 -26446256.99648 -20576780.55546  21070050.5394                   21070047.5124
 -38028127.09048 -29599122.04746  20222924.6484                   20222923.5824
 -21515207.84847 -14256579.24645  22700874.9144                   22700876.2704
 -34000509.32447 -26475977.74244  23188956.8754                   23188957.8364
 11  7 31  0 42  0.0000000  0  9G17G10G09G12G05G02G04G27G28
 -38417938.28147 -29905681.05146  22123013.8134                   22123013.3324
 -19054568.45748 -14822339.33245  21774909.7974                   21774909.6454
 -13266291.92647  -9172722.00445  22294906.3134                   22294906.2974
  -7694389.36347  -4272624.15645  23186269.4534                   23186268.5164
    864850.39547    715006.10244  24381751.8444                   24381756.4264
 -26527794.78148 -20640316.44146  21054534.7274                   21054531.5394
 -38025586.72748 -29597142.54346  20223407.6254                   20223406.9614
 -21517760.44147 -14258568.30545  22700388.9534                   22700390.3284
 -33952878.77047 -26438863.08644  23198021.0164                   23198021.6214
 11  7 31  0 42 30.0000000  0  9G17G10G09G12G05G02G04G27G28
 -38417182.27348 -29905091.98045  22123157.8134                   22123157.0634
 -19162732.53148 -14906622.94145  21754327.2584                   21754326.6684
 -13268429.30147  -9174387.56645  22294499.4144                   22294499.6254
  -7826053.56247  -4375219.60245  23161214.6884                   23161213.6804
    720340.34446    602401.16044  24354252.0314                   24354257.3364
 -26608931.45348 -20703539.78946  21039094.3204                   21039091.7704
 -38022592.05548 -29594809.03146  20223977.5864                   20223976.7074
 -21519906.69947 -14260240.75445  22699980.3914                   22699981.8244
 -33904917.58647 -26401490.81244  23207148.0084                   23207148.2854
 11  7 31  0 43  0.0000000  0  9G17G10G09G12G05G02G04G27G28
 -38416299.79747 -29904404.35945  22123326.0474                   22123324.7344
 -19270463.98047 -14990569.46145  21733826.6024                   21733826.4024
 -13269999.32047  -9175611.02745  22294200.6564                   22294200.8754
  -7957545.96147  -4477681.14544  23136192.2344                   23136191.5004
    575812.49647    489782.34444  24326748.9224                   24326754.1914
 -26689665.32048 -20766449.26246  21023731.5784                   21023728.4414
 -38019143.58248 -29592121.91846  20224633.8984                   20224633.0944
 -21521647.07047 -14261596.93445  22699649.7814                   22699650.8554
 -33856625.90247 -26363860.98044  23216337.0394                   23216337.3404
 11  7 31  0 43 30.0000000  0  9G17G10G09G12G05G02G04G27G28
 -38415290.90247 -29903618.23845  22123517.4064                   22123517.1724
 -19377760.65247 -15074177.17645  21713408.5704                   21713408.3364
 -13271005.07447  -9176394.79345  22294009.4064                   22294010.0004
  -8088864.83247  -4580007.48045  23111202.5004                   23111202.6094
    431268.66847    377151.08244  24299243.5784                   24299248.3794
 -26769997.04748 -20829045.37146  21008444.4304                   21008441.9534
 -38015244.30948 -29589083.52346  20225375.9774                   20225375.5474
 -21522984.36747 -14262639.03145  22699395.1484                   22699396.3794
 -33808006.17247 -26325975.53544  23225589.3674                   23225589.8404
 11  7 31  0 44  0.0000000  0  9G17G10G09G12G05G02G04G27G28
 -38414146.41447 -29902726.46545  22123735.1724                   22123734.9384
 -19484610.97747 -15157437.09845  21693075.4224                   21693075.5204
 -13271440.17647  -9176733.89845  22293926.4614                   22293926.5634
  -8219999.47347  -4682190.28545  23086248.8134                   23086248.5314
    286720.14846    264516.14144  24271736.0554                   24271740.8914
 -26849917.97748 -20891321.39546  20993236.4614                   20993233.3444
 -38010887.75448 -29585688.81246  20226204.8754                   20226204.3954
 -21523912.12547 -14263362.00845  22699218.4614                   22699220.0554
 -33759050.90647 -26287828.64843  23234904.7504                   23234905.5744
 11  7 31  0 44 30.0000000  0  9G17G10G09G12G05G02G04G27G28
 -38412883.75048 -29901742.59045  22123975.4144                   22123975.0204
 -19591029.58647 -15240360.61345  21672825.0164                   21672824.1604
 -13271325.28147  -9176644.43445  22293948.7814                   22293949.6214
  -8350965.05547  -4784241.34445  23061326.7584                   23061326.7774
    142151.53146    151865.55544  24244224.6954                   24244230.3054
 -26929446.24648 -20953291.44546  20978102.5784                   20978099.3164
 -38006094.28548 -29581953.64846  20227117.2344                   20227116.3054
 -21524450.54347 -14263781.60245  22699116.0864                   22699117.1054
 -33709780.17647 -26249435.94943  23244281.1174                   23244281.8914
 11  7 31  0 45  0.0000000  0  9G17G10G09G12G05G02G04G27G28
 -38411497.72748 -29900662.59845  22124239.8524                   22124238.8324
 -19697008.27347 -15322941.33645  21652657.7974                   21652657.4184
 -13270657.24247  -9176123.93745  22294074.8444                   22294076.2934
  -8481753.82447  -4886154.61345  23036439.0944                   23036438.7304
     -2428.89846     39205.74643  24216712.7734                   24216717.4414
 -27008576.58248 -21014951.41046  20963044.5004                   20963041.6334
 -38000860.55948 -29577875.42246  20228113.3834                   20228112.4614
 -21524596.11347 -14263895.07845  22699089.0004                   22699089.7384
 -33660189.53147 -26210793.96944  23253717.8754                   23253719.2344
 11  7 31  0 45 30.0000000  0  9G17G10G09G12G05G02G04G27G28
 -38409980.99647 -29899480.74245  22124528.3134                   22124527.3204
 -19802537.78148 -15405172.04745  21632575.5944                   21632575.0664
 -13269432.08247  -9175169.33245  22294308.3134                   22294309.6804
  -8612357.14147  -4987923.39145  23011585.3134                   23011585.0044
   -147012.28946    -73456.35543  24189199.1954                   24189202.8714
 -27087302.45748 -21076296.21546  20948063.4534                   20948060.4654
 -37995182.39548 -29573450.87546  20229193.5944                   20229192.4734
 -21524344.41447 -14263699.00844  22699135.9384                   22699137.2154
 -33610273.91047 -26171898.79344  23263216.5234                   23263218.1374
 11  7 31  0 46  0.0000000  0  9G17G10G09G12G05G02G04G27G28
 -38408332.31247 -29898196.07045  22124841.4614                   22124841.0204
 -19907613.92647 -15487049.48845  21612580.6094                   21612579.9024
 -13267651.12947  -9173781.60545  22294647.6174                   22294648.2814
  -8742771.50047  -5089544.91045  22986768.8674                   22986767.6414
   -291594.58646   -186117.64544  24161685.5164                   24161689.6134
 -27165622.69548 -21137324.94946  20933159.5084                   20933156.5354
 -37989060.90248 -29568680.88746  20230358.6334                   20230357.2894
 -21523696.55947 -14263194.25845  22699259.5164                   22699260.9344
 -33560033.91447 -26132750.81244  23272777.4304                   23272778.6484
 11  7 31  0 46 30.0000000  0  9G17G10G09G12G05G02G04G27G28
 -38406553.36748 -29896809.89545  22125180.9144                   22125180.0354
 -20012235.99648 -15568573.10545  21592671.4304                   21592671.0434
 -13265319.02347  -9171964.44145  22295091.8754                   22295092.1604
  -8872996.43047  -5191018.84044  22961987.6334                   22961986.8524
   -436175.43746   -298777.69544  24134172.3444                   24134176.2664
 -27243539.60548 -21198039.39146  20918332.3284                   20918329.4804
 -37982500.52048 -29563568.90646  20231606.9844                   20231606.0744
 -21522656.98447 -14262384.25845  22699457.6804                   22699458.9064
 -33509473.38747 -26093353.09444  23282398.4454                   23282400.2274
 11  7 31  0 47  0.0000000  0  9G17G10G09G12G05G02G04G27G28
 -38404657.57847 -29895332.67245  22125541.1724                   22125540.8244
 -20116414.34847 -15649750.96945  21572846.9534                   21572846.5984
 -13262452.10947  -9169730.53545  22295637.3364                   22295637.5394
  -9003043.52347  -5292354.18045  22937240.4454                   22937239.1724
   -580765.75046   -411445.19144  24106657.4774                   24106661.3404
 -27321066.80548 -21258450.16446  20903579.3134                   20903576.4774
 -37975517.16848 -29558127.34446  20232935.9924                   20232935.2384
 -21521241.43047 -14261281.29745  22699727.0084                   22699728.0634
 -33458607.31647 -26053717.27343  23292077.6254                   23292079.2774
 11  7 31  0 47 30.0000000  0  9G17G10G09G12G05G02G04G27G28
 -38402632.72347 -29893754.88345  22125926.3674                   22125925.3954
 -20220134.99647 -15730572.18445  21553109.4694                   21553108.9384
 -13259041.25047  -9167072.78145  22296286.3204                   22296287.4304
  -9132898.66447  -5393539.94545  22912529.6254                   22912529.1724
   -725351.28546   -524108.93044  24079143.7734                   24079147.7734
 -27398193.13348 -21318548.57446  20888902.5554                   20888899.6454
 -37968101.57048 -29552348.96146  20234346.8284                   20234346.0204
 -21519440.59447 -14259878.11345  22700069.7504                   22700070.5394
 -33407426.09847 -26013835.91444  23301817.4924                   23301818.4774
 11  7 31  0 48  0.0000000  0  9G17G10G09G12G05G02G04G27G28
 -38400482.39847 -29892079.32045  22126336.2344                   22126335.2504
 -20323398.95347 -15811037.53545  21533458.5164                   21533459.0354
 -13255093.46947  -9163996.62945  22297037.6024                   22297037.9614
  -9262563.79747  -5494577.62945  22887855.0634                   22887854.9144
   -869933.60246   -636770.18744  24051630.2504                   24051633.8984
 -27474922.70748 -21378337.82046  20874301.4224                   20874298.9694
 -37960260.27748 -29546238.87946  20235839.3444                   20235838.0314
 -21517260.97347 -14258179.77744  22700484.7194                   22700485.3954
 -33355935.62947 -25973713.54744  23311615.8674                   23311616.9694
 11  7 31  0 48 30.0000000  0  9G17G10G09G12G05G02G04G27G28
 -38398207.87948 -29890306.98445  22126768.2114                   22126768.0434
 -20426204.16847 -15891145.43045  21513895.6804                   21513895.4384
 -13250612.18747  -9160504.75845  22297890.1174                   22297890.9304
  -9392037.69947  -5595466.27345  22863217.1414                   22863216.6414
  -1014510.88346   -749427.50044  24024117.7894                   24024121.7624
 -27551256.89148 -21437818.97346  20859775.6174                   20859772.7814
 -37951996.52748 -29539799.60946  20237411.9064                   20237410.6524
 -21514705.57047 -14256188.62145  22700970.6414                   22700972.3284
 -33304138.19547 -25933352.01244  23321472.6024                   23321474.1724
 11  7 31  0 49  0.0000000  0  9G17G10G09G12G05G02G04G27G28
 -38395792.61748 -29888424.96145  22127228.5004                   22127227.2034
 -20528532.03547 -15970881.35245  21494422.8364                   21494422.4494
 -13245584.02347  -9156586.74645  22298846.7114                   22298847.1994
  -9521301.67647  -5696191.37945  22838619.2974                   22838617.7854
  -1159065.10246   -862066.87144  23996610.1484                   23996613.8014
 -27627179.83648 -21496979.67246  20845328.2894                   20845324.9804
 -37943296.79348 -29533020.60546  20239067.3284                   20239066.1914
 -21511760.91447 -14253894.14145  22701531.5944                   22701532.9064
 -33252019.46147 -25892740.12544  23331390.9774                   23331392.4224
 11  7 31  0 49 30.0000000  0  9G17G10G09G12G05G02G04G27G28
 -38393242.92647 -29886438.19145  22127713.7894                   22127712.5824
 -20630386.74647 -16050248.59045  21475040.7734                   21475040.5164
 -13240018.54347  -9152250.05145  22299906.4774                   22299906.7034
  -9650360.41447  -5796756.59045  22814060.0164                   22814058.8204
  -1303600.09046   -974691.22744  23969105.7424                   23969109.6724
 -27702698.64548 -21555825.45746  20830957.4774                   20830954.4264
 -37934170.05148 -29525908.87946  20240804.0634                   20240803.0514
 -21508436.13347 -14251303.47745  22702163.5634                   22702165.4574
 -33199588.26647 -25851884.76243  23341367.9534                   23341369.1564
 11  7 31  0 50  0.0000000  0  9G17G10G09G12G05G02G04G27G28
 -38390577.59448 -29884361.32045  22128220.8834                   22128219.8244
 -20731784.44147 -16129259.71945  21455745.2194                   21455745.3324
 -13233937.76647  -9147511.82045  22301063.6024                   22301064.4574
  -9779230.76247  -5897174.98845  22789536.5944                   22789535.5204
  -1448132.10547  -1087313.28544  23941602.3134                   23941606.0554
 -27777832.83248 -21614371.53546  20816659.8914                   20816656.6484
 -37924638.29748 -29518481.55146  20242618.1174                   20242616.7344
 -21504752.56647 -14248433.23445  22702864.9454                   22702866.5044
 -33146865.25446 -25810802.00843  23351401.5634                   23351402.0944
 11  7 31  0 50 30.0000000  0  9G17G10G09G12G05G02G04G27G28
 -38387778.26648 -29882180.03145  22128753.2894                   22128752.1804
 -20832703.80547 -16207898.11745  21436541.6094                   21436540.8754
 -13227325.92247  -9142359.77345  22302321.3594                   22302322.6884
  -9907891.89847  -5997430.38745  22765052.4924                   22765051.9844
  -1592640.00846  -1199916.56244  23914102.8754                   23914106.4844
 -27852564.21148 -21672603.75046  20802438.3984                   20802435.7854
 -37914685.13348 -29510725.85246  20244511.9534                   20244511.0124
 -21500694.51647 -14245271.18445  22703637.7194                   22703638.9534
 -33093833.76646 -25769478.88343  23361491.8284                   23361493.7194
 11  7 31  0 51  0.0000000  0  9G17G10G09G12G05G02G04G27G28
 -38384845.68748 -29879894.91845  22129311.7734                   22129310.5474
 -20933143.68447 -16286162.88346  21417427.8134                   21417427.7544
 -13220187.19147  -9136797.18045  22303679.9454                   22303681.2114
 -10036343.24247  -6097522.25045  22740609.4614                   22740609.2114
  -1737123.06246  -1312500.46544  23886608.3444                   23886611.9654
 -27926894.20748 -21730523.18446  20788294.4144                   20788291.3484
 -37904314.66048 -29502644.97346  20246485.4924                   20246484.3524
 -21496265.62947 -14241820.18445  22704480.1804                   22704481.7384
 -33040496.96146 -25727917.85543  23371642.8444                   23371643.2624
 11  7 31  0 51 30.0000000  0  9G17G10G09G12G05G02G04G27G28
 -38381789.42248 -29877513.41845  22129893.5084                   22129892.1604
 -21033111.34047 -16364059.68745  21398405.0554                   21398404.3284
 -13212534.37947  -9130833.97745  22305136.4144                   22305137.9024
 -10164591.99247  -6197456.28545  22716204.8834                   22716203.7424
  -1881588.45346  -1425070.64543  23859117.1724                   23859120.6454
 -28000833.35548 -21788138.06246  20774224.3284                   20774220.8554
 -37893538.85248 -29494248.25846  20248535.9924                   20248534.7814
 -21491478.23047 -14238089.82445  22705391.7734                   22705393.1414
 -32986866.72346 -25686128.16443  23381847.6954                   23381848.9454
 11  7 31  0 52  0.0000000  0  9G17G10G09G12G05G02G04G27G28
 -38378597.92247 -29875026.56245  22130500.5164                   22130499.2384
 -21132592.81248 -16441577.66045  21379473.9304                   21379473.6374
 -13204358.80547  -9124463.44945  22306692.3834                   22306692.9104
 -10292624.39547  -6297221.76645  22691840.8984                   22691839.8014
  -2026022.25046  -1537616.16444  23831631.8364                   23831635.3984
 -28074370.27748 -21845439.52746  20760230.5704                   20760227.1644
 -37882349.05948 -29485528.94546  20250665.0234                   20250663.8594
 -21486323.11347 -14234072.93445  22706372.0634                   22706373.8874
 -32932933.37146 -25644102.29343  23392111.5474                   23392112.3094
 11  7 31  0 52 30.0000000  0  9G17G10G09G12G05G02G04G27G28
 -36799858.93747 -28644840.35945  22430924.1484                   22430923.7464
 -19656169.98847 -15291118.24645  21660427.8524                   21660426.8794
 -11620252.14147  -7890094.66445  22608137.9844                   22608138.4654
  -8845022.07047  -5169219.89545  22967310.4064                   22967309.7894
   -595004.93047   -422537.44944  24103945.0164                   24103949.1024
 -26572091.30548 -20674832.49246  21046104.6024                   21046101.6254
 -36295335.96148 -28248895.37946  20552663.9064                   20552662.8794
 -19905391.09847 -13002177.91845  23007214.0554                   23007215.5164
 -31303288.27746 -24374249.05943  23702222.5864                   23702223.6294
 11  7 31  0 53  0.0000000  0  9G17G10G09G12G05G02G04G27G28
 -36796397.66848 -28642143.28945  22431583.2194                   22431582.0204
 -19754672.46547 -15367873.35946  21641683.4844                   21641682.8054
 -11611042.07847  -7882918.03145  22609890.6254                   22609891.1564
  -8972617.25847  -5268644.66845  22943029.3524                   22943029.1954
   -739369.23447   -535028.87544  24076473.6334                   24076477.0864
 -26644827.53548 -20731510.02346  21032263.1174                   21032260.3324
 -36283327.33248 -28239538.02046  20554948.6724                   20554947.5514
 -19899510.18047 -12997595.45344  23008332.9144                   23008334.2734
 -31248756.00047 -24331756.50444  23712599.9844                   23712601.5004
 11  7 31  0 53 30.0000000  0  9G17G10G09G12G05G02G04G27G28
 -36792796.93448 -28639337.55145  22432268.7034                   22432267.3834
 -19852677.42648 -15444240.79345  21623033.7034                   21623033.4264
 -11601314.60947  -7875338.23845  22611740.9614                   22611742.3244
  -9099985.64847  -5367892.69945  22918792.1024                   22918792.0434
   -883690.54347   -647486.78144  24049009.8674                   24049013.4534
 -26717159.21148 -20787872.33646  21018498.8914                   21018496.0594
 -36270908.53548 -28229861.03546  20557312.2584                   20557310.9024
 -19893265.71547 -12992729.70744  23009521.3134                   23009522.5634
 -31193922.90246 -24289029.55143  23723034.0704                   23723035.7034
 11  7 31  0 54  0.0000000  0  9G17G10G09G12G05G02G04G27G28
 -36789056.63748 -28636423.05945  22432980.0394                   22432979.3914
 -19950182.28547 -15520218.55145  21604478.8914                   21604478.5124
 -11591072.90647  -7867357.74245  22613690.6254                   22613690.8754
  -9227125.43047  -5466962.60545  22894598.3284                   22894597.8324
  -1027966.22747   -759909.15644  24021555.2894                   24021557.9494
 -26789087.07848 -20843919.99646  21004811.0554                   21004808.3674
 -36258082.29748 -28219866.58646  20559752.9224                   20559751.8914
 -19886660.33647 -12987582.74644  23010778.5634                   23010779.5234
 -31138790.74646 -24246069.57843  23733525.5944                   23733527.0394
 11  7 31  0 54 30.0000000  0  9G17G10G09G12G05G02G04G27G28
 -36785179.96147 -28633402.29745  22433718.2664                   22433717.1134
 -20047188.59448 -15595807.81645  21586019.1804                   21586019.3014
 -11580323.98047  -7858981.99245  22615735.9614                   22615737.2274
  -9354038.41047  -5565855.81645  22870448.0554                   22870447.1414
  -1172198.09447   -872297.38344  23994108.9224                   23994111.3054
 -26860615.91448 -20899656.71146  20991200.0164                   20991197.0704
 -36244855.20348 -28209559.77346  20562270.1094                   20562268.6994
 -19879700.54347 -12982159.60944  23012102.7974                   23012104.1564
 -31083365.66446 -24202881.32443  23744072.4924                   23744074.3984
 11  7 31  0 55  0.0000000  0  9G17G10G09G12G05G02G04G27G28
 -36781169.46947 -28630277.25445  22434481.3524                   22434480.1374
 -20143696.07048 -15671008.38345  21567654.6334                   21567654.1174
 -11569072.85947  -7850214.95345  22617877.1254                   22617878.0354
  -9480724.48847  -5664572.17645  22846339.6484                   22846339.3954
  -1316385.57847   -984651.02744  23966670.8204                   23966672.7734
 -26931748.41848 -20955084.60246  20977663.9454                   20977660.6134
 -36231232.03548 -28198944.32446  20564862.4924                   20564861.4804
 -19872391.25847 -12976464.14545  23013494.3984                   23013495.1684
 -31027651.67646 -24159467.94943  23754674.9224                   23754676.5594
 11  7 31  0 55 30.0000000  0  9G17G10G09G12G05G02G04G27G28
 -36777011.85247 -28627037.58245  22435272.6174                   22435271.2194
 -20239689.04347 -15745808.04345  21549387.7504                   21549386.8134
 -11557309.66047  -7841048.87945  22620115.5004                   22620116.2734
  -9607168.25847  -5763099.74245  22822278.6564                   22822277.9344
  -1460513.14847  -1096958.00844  23939244.2274                   23939246.2974
 -27002471.91448 -21010193.78546  20964205.6334                   20964202.1954
 -36217202.38348 -28188012.14546  20567532.1484                   20567531.2974
 -19864721.96147 -12970488.14545  23014953.7504                   23014954.8014
 -30971637.78146 -24115820.87144  23765333.7664                   23765335.9494
 11  7 31  0 56  0.0000000  0  9G17G10G09G12G05G02G04G27G28
 -36772720.74647 -28623693.88745  22436088.7974                   22436087.7544
 -20335178.99247 -15820215.74246  21531215.9384                   21531215.7074
 -11545051.61347  -7831497.21144  22622448.0004                   22622448.5904
  -9733381.52047  -5861447.69145  22798260.9844                   22798260.0824
  -1604592.13347  -1209227.10944  23911826.5944                   23911828.5274
 -27072800.93748 -21064995.59446  20950822.4454                   20950819.3954
 -36202782.72748 -28176776.06646  20570276.3284                   20570275.2424
 -19856709.33647 -12964244.62545  23016478.1644                   23016479.5824
 -30915340.11747 -24071952.66843  23776047.6334                   23776048.7154
 11  7 31  0 56 30.0000000  0  9G17G10G09G12G05G02G04G27G28
 -36768286.21147 -28620238.43745  22436932.5164                   22436931.9224
 -20430154.13748 -15894222.28945  21513142.9454                   21513143.0084
 -11532292.21147  -7821554.86345  22624875.7974                   22624876.8554
  -9859352.34847  -5959606.72745  22774289.2894                   22774288.9454
  -1748610.58247  -1321449.03944  23884420.5084                   23884422.6764
 -27142726.59448 -21119483.08646  20937516.1174                   20937513.2194
 -36187966.17648 -28165230.72746  20573095.8054                   20573094.9574
 -19848346.59447 -12957728.28944  23018070.3364                   23018071.2074
 -30858750.88347 -24027857.26644  23786815.8054                   23786817.7974
 11  7 31  0 57  0.0000000  0  9G17G10G09G12G05G02G04G27G28
 -36763703.78947 -28616667.73845  22437804.7734                   22437804.5944
 -20524607.94548 -15967822.61746  21495169.0554                   21495168.8634
 -11519030.72347  -7811221.30945  22627399.7974                   22627400.5394
  -9985074.63747  -6057572.09445  22750365.3364                   22750364.0354
  -1892561.69947  -1433618.50444  23857027.3364                   23857029.7704
 -27212245.26248 -21173653.45746  20924286.8834                   20924283.6994
 -36172751.18748 -28153374.91846  20575991.1414                   20575990.2664
 -19839631.98447 -12950937.78144  23019727.3984                   23019729.5944
 -30801867.87946 -23983532.98844  23797640.4534                   23797642.5164
 11  7 31  0 57 30.0000000  0  9G17G10G09G12G05G02G04G27G28
 -36758975.51247 -28612983.40645  22438704.3914                   22438703.6764
 -20618539.23048 -16041015.78146  21477294.6564                   21477294.0004
 -11505271.60948  -7800499.97345  22630018.4144                   22630018.6054
 -10110547.64847  -6155343.23445  22726488.3914                   22726487.6024
  -2036444.35247  -1545734.62544  23829647.9774                   23829649.3444
 -27281359.22348 -21227508.45746  20911134.7974                   20911131.9494
 -36157141.97748 -28141211.91846  20578961.5864                   20578960.2344
 -19830569.94147 -12943876.52344  23021452.3984                   23021453.7304
 -30744695.07446 -23938982.91043  23808520.3444                   23808522.0594
 11  7 31  0 58  0.0000000  0  9G17G10G09G12G05G02G04G27G28
 -36754105.80948 -28609188.85545  22439631.4694                   22439630.3164
 -20711951.53948 -16113804.53946  21459519.1254                   21459518.0944
 -11491023.43747  -7789397.55945  22632729.6024                   22632730.6174
 -10235774.55547  -6252922.56645  22702658.4774                   22702657.6884
  -2180261.88347  -1657800.01244  23802279.1254                   23802282.1884
 -27350074.52348 -21281052.82446  20898058.8594                   20898055.7544
 -36141146.53148 -28128747.95746  20582005.1254                   20582004.3874
 -19821168.61347 -12936550.88344  23023241.2974                   23023242.8444
 -30687240.03146 -23894212.87143  23819453.8444                   23819455.5234
 11  7 31  0 58 30.0000000  0  9G17G10G09G12G05G02G04G27G28
 -36749094.89848 -28605284.28545  22440585.0944                   22440584.1054
 -20804842.15648 -16186186.77746  21441842.2344                   21441841.6764
 -11476289.14147  -7777916.35545  22635532.9614                   22635533.7234
 -10360752.87547  -6350308.20745  22678876.1804                   22678875.0004
  -2324011.33247  -1769812.33244  23774924.4064                   23774927.1914
 -27418391.26248 -21334286.61746  20885058.8054                   20885055.7894
 -36124767.35248 -28115984.98046  20585122.1954                   20585121.3954
 -19811430.48447 -12928962.83644  23025094.7974                   23025096.6174
 -30629504.36346 -23849224.20743  23830440.2424                   23830442.6994
 11  7 31  0 59  0.0000000  0  9G17G10G09G12G05G02G04G27G28
 -36743937.94548 -28601265.89845  22441566.2584                   22441565.0514
 -20897204.10948 -16258157.08246  21424266.6724                   21424266.2544
 -11461067.71147  -7766055.56244  22638429.7424                   22638431.0784
 -10485476.08247  -6447495.07845  22655141.8204                   22655140.9264
  -2467685.75447  -1881766.19544  23747584.0864                   23747586.2894
 -27486306.08648 -21387207.23446  20872134.6484                   20872132.0164
 -36108002.73848 -28102921.65246  20588312.2034                   20588311.4574
 -19801353.88747 -12921111.01244  23027012.0784                   23027013.5204
 -30571485.82847 -23804015.10243  23841481.1804                   23841483.0784
 11  7 31  0 59 30.0000000  0  9G17G10G09G12G05G02G04G27G28
 -36738634.02047 -28597132.97745  22442575.3754                   22442574.9494
 -20989034.73448 -16329713.36346  21406791.8914                   21406791.1914
 -11445361.70347  -7753817.17645  22641419.0784                   22641420.1914
 -10609940.80947  -6544480.49645  22631456.9534                   22631456.1764
  -2611281.84047  -1993659.01644  23720258.3834                   23720261.3874
 -27553818.90648 -21439814.60546  20859287.8754                   20859284.5474
 -36090854.49248 -28089559.39146  20591575.6414                   20591574.7704
 -19790940.85247 -12912997.05545  23028993.9924                   23028995.6804
 -30513185.72347 -23758586.57843  23852575.9924                   23852577.2704
 11  7 31  1  0  0.0000000  0  9G17G10G09G12G05G02G04G27G28
 -36733183.46948 -28592885.81645  22443612.6094                   22443611.8014
 -21080332.42648 -16400854.37946  21389417.9774                   21389417.4574
 -11429175.09847  -7741204.30144  22644499.0864                   22644500.6174
 -10734146.32847  -6641263.96945  22607821.6174                   22607820.7774
  -2754797.80947  -2105489.39544  23692948.0784                   23692950.2774
 -27620931.23448 -21492109.90246  20846516.5864                   20846513.8054
 -36073326.27048 -28075901.05946  20594911.0004                   20594910.0274
 -19780194.93747 -12904623.70745  23031038.4304                   23031040.7304
 -30454607.15247 -23712940.99243  23863722.7734                   23863724.4454
 11  7 31  1  0 30.0000000  0  9G17G10G09G12G05G02G04G27G28
 -36727577.33648 -28588517.41045  22444679.8674                   22444678.7194
 -21171086.51648 -16471571.80546  21372148.0164                   21372147.4384
 -11412502.27747  -7728212.54745  22647671.9064                   22647672.7114
 -10858081.45347  -6737836.73445  22584237.1884                   22584236.2704
  -2898222.15247  -2217248.37144  23665655.3914                   23665657.5394
 -27687634.85248 -21544086.73046  20833823.0314                   20833820.0434
 -36055411.71148 -28061941.66046  20598320.1724                   20598319.3164
 -19769110.24647 -12895986.37545  23033148.4534                   23033150.3984
 -30395743.41047 -23667073.25043  23874924.0864                   23874925.2034
 11  7 31  1  1  0.0000000  0  9G17G10G09G12G05G02G04G27G28
 -36721812.21147 -28584025.13745  22445776.7734                   22445776.0664
 -21261290.78948 -16541860.80146  21354983.1024                   21354981.9884
 -11395342.93447  -7714841.66444  22650936.8444                   22650938.1024
 -10981740.16847  -6834194.10245  22560705.6024                   22560704.7344
  -3041548.92247  -2328931.32444  23638381.4844                   23638383.5824
 -27753927.10248 -21595743.00446  20821208.1954                   20821205.0634
 -36037109.94148 -28047680.55546  20601802.9614                   20601802.1254
 -19757685.91447 -12887084.39144  23035322.3204                   23035324.3554
 -30336592.92646 -23620982.02743  23886180.6954                   23886181.2464
 11  7 31  1  1 30.0000000  0  9G17G10G09G12G05G02G04G27G28
 -36715902.75848 -28579420.38345  22446901.0394                   22446900.4694
 -21350958.12548 -16611731.40246  21337919.6484                   21337918.9654
 -11377715.37147  -7701105.96545  22654291.0944                   22654292.7074
 -11105135.11347  -6930345.93445  22537224.2584                   22537223.3324
  -3184790.54747  -2440547.94145  23611123.0864                   23611125.3404
 -27819823.46948 -21647090.79346  20808668.4454                   20808665.1994
 -36018438.69948 -28033131.54346  20605355.6724                   20605354.8954
 -19745939.44947 -12877931.38344  23037558.0394                   23037559.5274
 -30277173.17246 -23574681.04343  23897487.2274                   23897489.3244
 11  7 31  1  2  0.0000000  0  9G17G10G09G12G05G02G04G27G28
 -36709850.66447 -28574704.47745  22448052.5314                   22448051.8984
 -21440088.21948 -16681183.38746  21320958.9844                   21320958.2074
 -11359624.95347  -7687009.59445  22657734.4064                   22657735.1414
 -11228266.28547  -7026292.25045  22513793.0554                   22513792.0664
  -3327946.41847  -2552097.73044  23583881.0864                   23583883.2584
 -27885326.77048 -21698132.29346  20796203.5004                   20796200.4264
 -35999402.49648 -28018298.13346  20608978.1334                   20608977.4494
 -19733875.80147 -12868531.22344  23039853.4844                   23039855.5904
 -30217487.93446 -23528173.19943  23908846.1094                   23908847.3874
 11  7 31  1  2 30.0000000  0  9G17G10G09G12G05G02G04G27G28
 -36703649.84847 -28569872.68045  22449233.0164                   22449232.2384
 -21528672.84048 -16750210.32046  21304101.6024                   21304100.8524
 -11341069.35947  -7672550.75845  22661265.2034                   22661266.6524
 -11351125.44147  -7122026.58645  22490414.1484                   22490412.5314
  -3471008.32047  -2663574.33244  23556656.7274                   23556659.5984
 -27950432.12548 -21748863.71946  20783814.6024                   20783811.2704
 -35979998.38748 -28003178.05946  20612671.0004                   20612670.1884
 -19721492.12947 -12858881.69944  23042209.9454                   23042211.8914
 -30157533.87546 -23481455.92243  23920254.4384                   23920256.3054
 11  7 31  1  3  0.0000000  0  9G17G10G09G12G05G02G04G27G28
 -36697290.09047 -28564917.04345  22450443.4224                   22450442.2974
 -21616700.37148 -16818803.15246  21287350.6174                   21287349.9774
 -11322041.67647  -7657724.05545  22664885.9064                   22664887.4534
 -11473700.60247  -7217539.63345  22467088.3134                   22467087.5704
  -3613963.33647  -2774967.64144  23529453.3524                   23529455.4964
 -28015129.93048 -21799277.56246  20771502.9224                   20771499.7464
 -35960219.03948 -27987765.58246  20616434.5784                   20616434.2304
 -19708781.14847 -12848977.10944  23044629.3524                   23044630.9144
 -30097302.82046 -23434522.79743  23931715.8594                   23931718.4144
 11  7 31  1  3 30.0000000  0  9G17G10G09G12G05G02G04G27G28
 -36690777.85947 -28559842.59045  22451681.9694                   22451681.4574
 -21704174.98048 -16886965.12946  21270704.3204                   21270704.2194
 -11302552.02347  -7642537.38345  22668594.6254                   22668595.4734
 -11595996.10947  -7312834.77745  22443816.6564                   22443814.9924
  -3756815.65647  -2886280.93744  23502269.1724                   23502270.8914
 -28079427.68748 -21849379.68746  20759267.8284                   20759264.6254
 -35940073.57048 -27972067.81246  20620268.0474                   20620267.0784
 -19695752.25447 -12838824.78144  23047108.6804                   23047110.0084
 -30036803.80146 -23387380.86343  23943229.1564                   23943230.8874
 11  7 31  1  4  0.0000000  0  9G17G10G09G12G05G02G04G27G28
 -36684120.52747 -28554655.06245  22452948.9454                   22452948.5434
 -21791102.12948 -16954700.53146  21254162.9064                   21254162.1764
 -11282611.74647  -7626999.56645  22672389.8444                   22672391.0784
 -11718016.94147  -7407915.89145  22420596.6484                   22420595.4494
  -3899570.63347  -2997518.38744  23475103.8444                   23475105.4144
 -28143333.84848 -21899176.67246  20747106.6724                   20747103.4614
 -35919572.41848 -27956092.88746  20624169.3834                   20624168.4574
 -19682415.93447 -12828432.92244  23049645.8914                   23049648.2114
 -29976046.82046 -23340037.88744  23954790.8284                   23954792.5474
 11  7 31  1  4 30.0000000  0  9G17G10G09G12G05G02G04G27G28
 -36677309.23047 -28549347.55545  22454245.4454                   22454245.1294
 -21877471.35548 -17022001.18446  21237727.3134                   21237726.4884
 -11262215.24647  -7611106.25045  22676270.8524                   22676271.7344
 -11839752.67247  -7502774.82045  22397430.9064                   22397430.3364
  -4042217.07047  -3108671.23844  23447958.6414                   23447961.0594
 -28206840.82848 -21948662.59846  20735021.7974                   20735018.4734
 -35898709.62148 -27939836.14846  20628139.4384                   20628138.6174
 -19668766.39547 -12817796.97344  23052243.6094                   23052245.6294
 -29915025.13347 -23292488.65243  23966402.7664                   23966404.2114
 11  7 31  1  5  0.0000000  0  9G17G10G09G12G05G02G04G27G28
 -36670349.68447 -28543924.53545  22455569.8594                   22455569.2274
 -21963286.05148 -17088869.73846  21221397.6564                   21221396.9964
 -11241371.46147  -7594864.39845  22680237.5394                   22680238.3324
 -11961206.60547  -7597414.18445  22374318.5634                   22374317.2734
  -4184757.71547  -3219741.64544  23420833.7274                   23420835.4964
 -28269955.03948 -21997842.48846  20723011.5084                   20723008.4224
 -35877493.34848 -27923303.98846  20632176.8674                   20632175.5784
 -19654812.07047 -12806923.56644  23054898.8524                   23054900.4924
 -29853746.58247 -23244739.24243  23978064.0394                   23978065.4104
 11  7 31  1  5 30.0000000  0  9G17G10G09G12G05G02G04G27G28
 -36663243.23047 -28538387.03945  22456922.1094                   22456921.0084
 -22048546.03948 -17155306.04746  21205173.0634                   21205172.3244
 -11220085.77047  -7578278.19145  22684288.1094                   22684288.8954
 -12082378.30147  -7691833.62145  22351261.0004                   22351259.7624
  -4327191.86347  -3330729.06644  23393729.4144                   23393731.3134
 -28332678.96548 -22046718.25446  20711075.0864                   20711072.3524
 -35855928.41848 -27906500.14146  20636280.3524                   20636279.4774
 -19640557.69947 -12795816.36744  23057610.9384                   23057613.4574
 -29792215.68046 -23196793.21143  23989772.6334                   23989774.2704
 11  7 31  1  6  0.0000000  0  9G17G10G09G12G05G02G04G27G28
 -36655982.58247 -28532729.41045  22458303.7734                   22458302.9184
 -22133242.30548 -17221303.09846  21189055.8364                   21189055.2424
 -11198354.14147  -7561344.50845  22688423.4224                   22688424.3404
 -12203258.23047  -7786025.71545  22328257.4694                   22328256.8324
  -4469509.59447  -3441625.78545  23366646.9924                   23366648.9804
 -28395006.03948 -22095284.78146  20699215.0234                   20699211.3714
 -35834010.05948 -27889420.91846  20640451.4304                   20640450.4924
 -19625998.88347 -12784471.92644  23060382.2664                   23060384.0634
 -29730426.97346 -23148646.25443  24001531.6414                   24001532.5784
 11  7 31  1  6 30.0000000  0  9G17G10G09G12G05G02G04G27G28
 -36648568.22747 -28526951.99245  22459714.5314                   22459714.2384
 -22217373.34848 -17286859.71146  21173046.1334                   21173045.1684
 -11176181.24647  -7544066.99645  22692642.2894                   22692643.7854
 -12323845.02748  -7879989.38745  22305311.1334                   22305310.3014
  -4611709.48447  -3552430.68745  23339587.3054                   23339589.0314
 -28456938.34448 -22143543.70346  20687429.4454                   20687426.2304
 -35811741.94148 -27872069.14146  20644688.8204                   20644687.5164
 -19611139.57847 -12772893.33644  23063209.8364                   23063212.1254
 -29668383.82446 -23100301.02042  24013337.1724                   24013339.3094
 11  7 31  1  7  0.0000000  0  9G17G10G09G12G05G02G04G27G28
 -36640992.93447 -28521049.17645  22461155.8364                   22461155.6134
 -22300930.53148 -17351969.16446  21157145.5704                   21157144.8524
 -11153563.57447  -7526442.89845  22696945.8914                   22696947.7974
 -12444129.74247  -7973717.69545  22282421.8444                   22282420.2934
  -4753782.07047  -3663136.37545  23312551.8524                   23312553.6684
 -28518469.99248 -22191490.42646  20675720.4844                   20675717.2344
 -35789119.91848 -27854441.58246  20648994.3754                   20648992.6954
 -19595975.82447 -12761077.50844  23066094.9064                   23066097.4964
 -29606081.61746 -23051753.94942  24025192.4454                   24025195.9694
 11  7 31  1  7 30.0000000  0  9G17G10G09G12G05G02G04G27G28
 -36633264.11347 -28515026.71945  22462626.6884                   22462626.2154
 -22383919.31248 -17416635.71146  21141353.1804                   21141352.5664
 -11130511.85947  -7508480.58245  22701333.4924                   22701334.6374
 -12564117.30547  -8067214.44545  22259588.6414                   22259587.9734
  -4895731.70747  -3773746.27745  23285539.1564                   23285541.0864
 -28579608.69548 -22239130.95746  20664086.1564                   20664082.4844
 -35766153.74648 -27836545.87546  20653364.2194                   20653363.3284
 -19580517.47747 -12749032.12544  23069037.2194                   23069038.8444
 -29543529.94946 -23003012.52742  24037096.2344                   24037098.5634
 11  7 31  1  8  0.0000000  0  9G17G10G09G12G05G02G04G27G28
 -36625372.34447 -28508877.29345  22464128.5004                   22464127.8914
 -22466328.43748 -17480850.57446  21125671.2974                   21125670.6414
 -11107020.20747  -7490175.46145  22705803.9774                   22705805.6334
 -12683796.25448  -8160470.70345  22236815.0634                   22236813.0004
  -5037546.73847  -3884251.30545  23258552.4844                   23258553.6334
 -28640346.20348 -22286458.86346  20652527.6564                   20652524.5164
 -35742836.95348 -27818376.94546  20657801.4924                   20657800.1054
 -19564758.35547 -12736752.38344  23072036.5394                   23072037.6564
 -29480721.76246 -22954071.18743  24049048.3914                   24049050.7504
 11  7 31  1  8 30.0000000  0  9G17G10G09G12G05G02G04G27G28
 -36617328.41447 -28502609.28945  22465659.5004                   22465659.3634
 -22548167.24648 -17544621.03946  21110097.9924                   21110097.2734
 -11083103.48047  -7471539.10245  22710354.7894                   22710357.0274
 -12803175.61747  -8253493.53945  22214097.4384                   22214095.9534
  -5179235.68447  -3994658.09844  23231590.7034                   23231591.8204
 -28700694.87948 -22333483.78146  20641044.2894                   20641040.6294
 -35719183.89548 -27799945.99646  20662302.1024                   20662301.0664
 -19548712.69147 -12724249.35244  23075089.8524                   23075091.2894
 -29417670.53146 -22904940.47343  24061047.0554                   24061049.5234
 11  7 31  1  9  0.0000000  0  9G17G10G09G12G05G02G04G27G28
 -36609128.78147 -28496219.96945  22467219.9844                   22467219.1684
 -22629430.50848 -17607943.02346  21094634.0394                   21094633.1844
 -11058761.66447  -7452571.49645  22714987.1334                   22714989.0274
 -12922249.87947  -8346278.63345  22191437.9924                   22191437.0354
  -5320793.18047  -4104962.45744  23204652.0314                   23204653.7154
 -28760652.31248 -22380203.83646  20629634.5704                   20629631.3954
 -35695193.30148 -27781252.04346  20666867.4844                   20666866.1524
 -19532380.09847 -12711522.75044  23078197.6334                   23078199.6094
 -29354375.52746 -22855619.84443  24073091.9304                   24073093.4804
 11  7 31  1  9 30.0000000  0  9G17G10G09G12G05G02G04G27G28
 -36600775.58247 -28489710.98445  22468809.0474                   22468808.8164
 -22710118.36748 -17670816.63746  21079279.5944                   21079279.0394
 -11034000.58647  -7433277.21945  22719699.0234                   22719700.8404
 -13041018.71147  -8438825.71945  22168836.9454                   22168836.1334
  -5462218.43047  -4215163.77744  23177740.2034                   23177740.8164
 -28820221.24648 -22426621.16046  20618298.8984                   20618295.6294
 -35670870.44148 -27762299.17246  20671496.2664                   20671494.8054
 -19515765.68447 -12698576.55144  23081359.2194                   23081360.9774
 -29290840.88346 -22806112.44543  24085181.6954                   24085183.6884
 11  7 31  1 10  0.0000000  0  9G17G10G09G12G05G02G04G27G28
 -36592257.33247 -28483073.39545  22470430.4614                   22470430.2074
 -22790217.69948 -17733231.67246  21064037.3524                   21064036.4104
 -11008812.67247  -7413650.33644  22724491.6954                   22724493.4454
 -13159468.65247  -8531124.32445  22146296.9144                   22146295.6724
  -5603497.53947  -4325251.21144  23150854.8834                   23150856.5394
 -28879391.65648 -22472727.94946  20607039.1484                   20607035.6644
 -35646206.48048 -27743080.49646  20676189.2344                   20676188.2814
 -19498861.03147 -12685404.18744  23084576.3364                   23084578.2704
 -29227057.59846 -22756411.33643  24097319.5234                   24097322.5314
 11  7 31  1 10 30.0000000  0  9G17G10G09G12G05G02G04G27G28
 -36583582.74647 -28476313.98045  22472081.0084                   22472080.3324
 -22869735.91848 -17795193.87546  21048905.3834                   21048904.5984
 -10983210.62947  -7393700.75045  22729364.5474                   22729365.2624
 -13277606.69148  -8623179.89845  22123816.0944                   22123815.0204
  -5744636.87947  -4435229.72745  23123997.1644                   23123998.3954
 -28938173.50848 -22518531.97346  20595853.0864                   20595849.6414
 -35621213.48048 -27723605.44146  20680945.2814                   20680944.6564
 -19481678.37547 -12672015.21944  23087846.1724                   23087848.1524
 -29163037.36746 -22706525.57043  24109502.4144                   24109504.9104
 11  7 31  1 11  0.0000000  0  9G17G10G09G12G05G02G04G27G28
 -36574753.46547 -28469434.02745  22473760.7034                   22473760.1954
 -22948672.91448 -17856703.19946  21033884.0704                   21033883.1214
 -10957199.60947  -7373432.50444  22734313.7814                   22734315.1334
 -13395432.32447  -8714992.04745  22101394.4064                   22101392.5274
  -5885635.93447  -4545098.94945  23097165.6884                   23097167.1454
 -28996569.71148 -22564035.48846  20584740.9614                   20584737.4024
 -35595896.01648 -27703877.56246  20685763.0474                   20685762.1334
 -19464222.36347 -12658413.25044  23091168.2504                   23091169.8914
 -29098784.24246 -22656458.32443  24121728.7274                   24121731.6684
 11  7 31  1 11 30.0000000  0  9G17G10G09G12G05G02G04G27G28
 -36565771.63747 -28462435.21945  22475470.4614                   22475469.4494
 -23027029.42648 -17917760.18446  21018973.3984                   21018972.2344
 -10930785.46147  -7352850.12945  22739340.6024                   22739341.9384
 -13512946.02347  -8806561.12545  22079032.4224                   22079031.3404
  -6026494.14147  -4654858.42245  23070361.5314                   23070362.8794
 -29054583.41448 -22609240.94546  20573701.0554                   20573698.0314
 -35570258.62148 -27683900.38746  20690641.6804                   20690640.7344
 -19446498.21547 -12644602.32844  23094540.6024                   23094542.4734
 -29034302.95346 -22606213.29343  24133999.8054                   24134002.4454
 11  7 31  1 12  0.0000000  0  9G17G10G09G12G05G02G04G27G28
 -36556634.28547 -28455315.23045  22477208.9304                   22477208.1334
 -23104800.80148 -17978361.21546  21004173.8914                   21004173.2384
 -10903968.98847  -7331954.24245  22744444.2274                   22744445.3014
 -13630142.41047  -8897882.93045  22056730.3364                   22056729.3554
  -6167206.30947  -4764504.07445  23043584.7584                   23043585.9064
 -29112212.72748 -22654146.88746  20562734.6954                   20562731.5704
 -35544301.47748 -27663674.05146  20695581.0784                   20695580.1724
 -19428506.12547 -12630582.64545  23097964.7034                   23097966.4064
 -28969593.05946 -22555790.14843  24146314.1334                   24146316.6804
 11  7 31  1 12 30.0000000  0  9G17G10G09G12G05G02G04G27G28
 -36547338.53147 -28448071.79745  22478977.7974                   22478977.1684
 -23181982.63748 -18038502.87546  20989486.6724                   20989486.1294
 -10876751.36747  -7310745.77745  22749623.3914                   22749624.2114
 -13747016.66447  -8988953.75045  22034490.0784                   22034488.8524
  -6307767.27347  -4874031.93445  23016836.6024                   23016838.5634
 -29169456.22348 -22698752.18046  20551841.7584                   20551838.2934
 -35518024.79348 -27643198.72346  20700581.7664                   20700580.7344
 -19410246.79347 -12616354.71144  23101439.4144                   23101441.5204
 -28904654.19546 -22505188.52342  24158670.3834                   24158674.2384
 11  7 31  1 13  0.0000000  0  9G17G10G09G12G05G02G04G27G28
 -36537888.48847 -28440708.11745  22480776.3674                   22480775.4384
 -23258577.70348 -18098187.30946  20974910.9454                   20974910.4734
 -10849140.18047  -7289230.64844  22754877.3674                   22754878.6994
 -13863570.52748  -9079774.90646  22012310.4384                   22012309.8094
  -6448178.59847  -4983443.19945  22990116.9924                   22990119.1024
 -29226319.07048 -22743060.86746  20541020.9844                   20541017.6054
 -35491435.27048 -27622479.63346  20705641.3754                   20705640.7624
 -19391727.06647 -12601923.85544  23104964.0634                   23104965.0514
 -28839492.82846 -22454413.53942  24171071.5474                   24171073.7664
 11  7 31  1 13 30.0000000  0  8G17G10G09G12G05G02G04G27
 -34952860.21147 -27205621.16445  22782397.2194                   22782396.3284
 -21759157.58248 -16929807.95746  21260241.0864                   21260240.4614
  -9245715.99647  -6039809.28544  23059999.1724                   23060000.0634
 -12404374.43048  -7942738.95345  22289986.2814                   22289985.0164
  -5013008.71547  -3865128.82844  23263220.3364                   23263222.2154
 -27707376.66448 -21559469.35546  20830066.1884                   20830062.3794
 -33889112.64848 -26373916.57046  21010552.9144                   21010551.8204
 -17797526.69546 -11359689.92644  23408329.5164                   23408332.1914
 11  7 31  1 14  0.0000000  0  8G17G10G09G12G05G02G04G27
 -34943096.35947 -27198012.98845  22784255.0704                   22784254.6214
 -21834569.50848 -16988570.46146  21245890.4064                   21245889.9734
  -9217324.47347  -6017686.10944  23065401.6024                   23065402.2464
 -12520277.63748  -8033053.10545  22267930.3284                   22267929.5434
  -5153108.34447  -3974297.21144  23236560.0474                   23236561.9184
 -27763477.25848 -21603184.09046  20819390.5314                   20819386.9384
 -33861901.82048 -26352713.34046  21015731.6724                   21015730.6804
 -17778491.39547 -11344857.31244  23411952.0784                   23411953.9534
 11  7 31  1 14 30.0000000  0  8G17G10G09G12G05G02G04G27
 -34933174.53947 -27190281.72345  22786143.3134                   22786142.0474
 -21909386.43048 -17046869.32446  21231653.5084                   21231653.0274
  -9188546.83647  -5995262.09044  23070877.4614                   23070879.2894
 -12635850.75448  -8123110.04345  22245937.4384                   22245936.7074
  -5293047.44947  -4083340.51245  23209930.8134                   23209932.2274
 -27819196.78148 -21646601.87146  20808787.2274                   20808784.1254
 -33834382.81648 -26331269.97346  21020967.8984                   21020967.1724
 -17759201.49647 -11329826.33644  23415623.0004                   23415624.3794
 11  7 31  1 15  0.0000000  0  8G17G10G09G12G05G02G04G27
 -34923085.07847 -27182419.81645  22788063.5704                   22788062.2894
 -21983597.26648 -17104695.92646  21217531.8594                   21217531.1134
  -9159377.81647  -5972533.06644  23076428.2344                   23076429.0164
 -12751082.34048  -8212900.84846  22224009.8204                   22224009.1214
  -5432813.89847  -4192249.31645  23183334.1174                   23183335.1214
 -27874527.41448 -21689716.63346  20798258.5004                   20798255.1764
 -33806549.50448 -26309581.69146  21026264.9144                   21026263.9654
 -17739650.99246 -11314592.28544  23419343.7344                   23419345.3484
 11  7 31  1 15 30.0000000  0  8G17G10G09G12G05G02G04G27
 -34912826.44547 -27174426.10245  22790015.6884                   22790014.7624
 -22057199.50848 -17162048.28546  21203525.6254                   21203524.7624
  -9129819.76247  -5949500.90244  23082053.6254                   23082054.8794
 -12865968.44548  -8302422.44146  22202148.1024                   22202146.5354
  -5572403.85247  -4301020.57045  23156771.2974                   23156772.2504
 -27929469.20748 -21732528.40246  20787802.9534                   20787799.7034
 -33778403.14548 -26287649.48446  21031620.6484                   21031619.7584
 -17719841.47347 -11299156.40244  23423113.7274                   23423115.8364
 11  7 31  1 16  0.0000000  0  8G17G10G09G12G05G02G04G27
 -34902404.28547 -27166304.96545  22791998.8204                   22791998.1994
 -22130197.26648 -17218929.61346  21189634.5004                   21189634.1134
  -9099882.12947  -5926172.96944  23087749.8524                   23087751.7814
 -12980513.25848  -8391678.11746  22180351.6414                   22180349.5234
  -5711820.57447  -4409656.86345  23130241.3914                   23130241.7504
 -27984028.46948 -21775042.07446  20777420.9384                   20777417.3984
 -33749952.30548 -26265480.01246  21037034.4774                   21037033.5664
 -17699781.88747 -11283525.68044  23426930.8204                   23426933.4884
 11  7 31  1 16 30.0000000  0  8G17G10G09G12G05G02G04G27
 -34891827.21147 -27158063.09445  22794011.3054                   22794010.8364
 -22202598.19148 -17275345.88346  21175857.2974                   21175856.2624
  -9069577.59047  -5902559.14844  23093517.5234                   23093518.5354
 -13094723.74648  -8480673.27346  22158616.9774                   22158615.7504
  -5851070.53147  -4518163.14845  23103741.9774                   23103743.5594
 -28038215.48048 -21817265.69546  20767109.8284                   20767106.4024
 -33721208.57848 -26243082.32846  21042504.5554                   21042503.4344
 -17679484.38747 -11267709.53144  23430793.3594                   23430795.9964
 11  7 31  1 17  0.0000000  0  8G17G10G09G12G05G02G04G27
 -34881091.55947 -27149697.68045  22796053.7974                   22796053.4614
 -22274397.03948 -17331293.00446  21162194.1334                   21162193.4454
  -9038906.15647  -5878659.44544  23099353.8054                   23099355.3634
 -13208593.56648  -8569402.95346  22136948.4844                   22136947.3054
  -5990147.30947  -4626534.50445  23077276.4534                   23077277.7154
 -28092027.72748 -21859197.29746  20756869.5704                   20756865.9734
 -33692171.16048 -26220455.78946  21048030.3594                   21048028.9844
 -17658948.32847 -11251707.52044  23434701.1954                   23434703.6724
 11  7 31  1 17 30.0000000  0  8G17G10G09G12G05G02G04G27
 -34870182.47747 -27141197.10945  22798130.9224                   22798129.2544
 -22345577.43748 -17386758.21146  21148648.7894                   21148648.6214
  -9007856.90647  -5854465.34444  23105262.1334                   23105264.2974
 -13322106.26648  -8657854.37945  22115347.6094                   22115345.7894
  -6129033.77047  -4734757.54345  23050847.6024                   23050848.6644
 -28145451.82848 -21900826.43446  20746702.9454                   20746699.1094
 -33662827.93048 -26197590.94546  21053613.9224                   21053612.6764
 -17638162.02047 -11235510.50445  23438656.5864                   23438659.4694
 11  7 31  1 18  0.0000000  0  8G17G10G09G12G05G02G04G27
 -34859109.50047 -27132568.81245  22800237.7114                   22800236.5124
 -22416147.86748 -17441748.11746  21135220.0554                   21135219.2344
  -8976442.91847  -5829987.03144  23111240.0164                   23111242.6604
 -13435269.25448  -8746033.30146  22093813.4534                   22093811.9064
  -6267737.02747  -4842837.84045  23024452.7664                   23024453.7344
 -28198498.41048 -21942161.41046  20736608.6094                   20736604.8914
 -33633191.46948 -26174497.62546  21059253.5394                   21059252.6524
 -17617138.28547 -11219128.48045  23442657.7504                   23442660.4304
 11  7 31  1 18 30.0000000  0  8G17G10G09G12G05G02G04G27
 -34847872.68047 -27123812.87945  22802375.8364                   22802374.8404
 -22486107.71148 -17496262.23846  21121907.1024                   21121906.2424
  -8944668.59847  -5805227.94544  23117287.0234                   23117289.0594
 -13548080.67648  -8833938.26646  22072346.1414                   22072344.9534
  -6406255.14147  -4950773.89845  22998093.6414                   22998094.4534
 -28251169.29348 -21983203.61746  20726585.8594                   20726582.3984
 -33603265.06248 -26151178.38346  21064948.2974                   21064947.3754
 -17595880.97347 -11202564.47344  23446703.0784                   23446705.8634
 11  7 31  1 19  0.0000000  0  8G17G10G09G12G05G02G04G27
 -34836472.73047 -27114929.82845  22804545.1094                   22804544.0944
 -22555455.72748 -17550299.61346  21108710.3364                   21108709.3674
  -8912538.01247  -5780191.26244  23123401.5164                   23123403.0354
 -13660538.59448  -8921567.75446  22050945.9304                   22050944.9454
  -6544585.59047  -5058563.72345  22971770.4924                   22971770.9734
 -28303466.02048 -22023954.28146  20716633.8754                   20716630.2854
 -33573051.59048 -26127635.43746  21070697.5864                   21070696.9024
 -17574393.26647 -11185820.93444  23450791.9064                   23450794.4804
 11  7 31  1 19 30.0000000  0  8G17G10G09G12G05G02G04G27
 -34824908.40247 -27105918.66445  22806745.7894                   22806744.8714
 -22624189.61748 -17603858.45746  21095630.8594                   21095629.8244
  -8880054.12947  -5754879.25044  23129583.2424                   23129584.7344
 -13772640.41048  -9008919.78546  22029613.9534                   22029612.6564
  -6682725.07447  -5166204.76245  22945483.0554                   22945483.7814
 -28355388.69948 -22064413.49646  20706753.6484                   20706749.8524
 -33542552.82848 -26103870.19546  21076501.9774                   21076500.8714
 -17552677.40646 -11168899.61344  23454924.2424                   23454927.1094
 11  7 31  1 20  0.0000000  0  8G17G10G09G12G05G02G04G27
 -34813181.62947 -27096780.92645  22808977.5864                   22808976.5634
 -22692310.56648 -17656939.67646  21082667.7584                   21082666.9494
  -8847222.83247  -5729296.52744  23135830.6254                   23135832.0984
 -13884386.09848  -9095994.30946  22008349.2584                   22008347.8674
  -6820673.00847  -5273696.54345  22919232.4844                   22919232.7664
 -28406940.85548 -22104583.98846  20696943.4614                   20696939.7704
 -33511773.85948 -26079886.61346  21082358.7274                   21082357.8094
 -17530738.63346 -11151804.59044  23459098.7194                   23459102.4064
 11  7 31  1 20 30.0000000  0  8G17G10G09G12G05G02G04G27
 -34801291.83247 -27087516.19145  22811239.9694                   22811238.8324
 -22759816.67248 -17709541.80146  21069821.7664                   21069820.8134
  -8814047.43047  -5703445.66444  23142143.7114                   23142145.4224
 -13995772.98848  -9182789.25846  21987152.7974                   21987151.6484
  -6958426.60947  -5381036.87945  22893018.0944                   22893019.3284
 -28458123.31248 -22144466.40246  20687203.5704                   20687200.1294
 -33480716.68748 -26055686.24246  21088268.7344                   21088267.7704
 -17508579.69146 -11134538.03943  23463315.6724                   23463318.2304
 11  7 31  1 21  0.0000000  0  8G17G10G09G12G05G02G04G27
 -34789237.75047 -27078123.41445  22813534.1484                   22813533.4414
 -22826705.13748 -17761662.64546  21057093.0864                   21057092.5394
  -8780530.20347  -5677328.46944  23148522.6724                   23148524.0274
 -14106797.49648  -9269301.82446  21966025.7814                   21966024.4534
  -7095981.77047  -5488222.57845  22866842.5004                   22866843.3914
 -28508935.69548 -22184060.44946  20677534.3054                   20677531.0164
 -33449382.85248 -26031270.29346  21094231.3364                   21094230.5594
 -17486202.31646 -11117101.25443  23467574.6254                   23467577.1024
 11  7 31  1 21 30.0000000  0  8G17G10G09G12G05G02G04G27
 -34777021.23047 -27068604.05545  22815858.3984                   22815858.4844
 -22892977.39848 -17813303.33646  21044481.8984                   21044481.0234
  -8746677.52347  -5650949.85544  23154963.9614                   23154965.9774
 -14217459.80548  -9355532.17246  21944967.3834                   21944965.8634
  -7233338.50047  -5595253.66445  22840704.1564                   22840704.6054
 -28559381.81648 -22223369.09446  20667934.7194                   20667931.1374
 -33417777.60948 -26006642.84046  21100245.6724                   21100244.6994
 -17463612.13346 -11099498.62143  23471873.2194                   23471875.8754
 11  7 31  1 22  0.0000000  0  8G17G10G09G12G05G02G04G27
 -34764638.97347 -27058955.57045  22818214.6804                   22818214.1024
 -22958629.12948 -17864460.50046  21031989.0634                   21031988.2194
  -8712490.09847  -5624310.43044  23161470.0704                   23161471.6374
 -14327754.64147  -9441476.16446  21923979.6024                   21923977.4064
  -7370491.30147  -5702125.86345  22814605.1644                   22814605.6094
 -28609459.73448 -22262390.82846  20658405.0704                   20658401.5904
 -33385900.09848 -25981803.24646  21106311.5234                   21106311.4064
 -17440809.24247 -11081730.23043  23476212.5474                   23476214.2894
 11  7 31  1 22 30.0000000  0  8G17G10G09G12G05G02G04G27
 -34752091.37547 -27049178.22345  22820602.4454                   22820602.2114
 -23023659.32048 -17915133.34046  21019613.9454                   21019613.2974
  -8677972.00047  -5597413.34844  23168037.8524                   23168039.9024
 -14437680.24647  -9527132.44146  21903060.8594                   21903059.4454
  -7507437.53547  -5808837.08245  22788545.2344                   22788544.7154
 -28659170.92248 -22301126.80146  20648945.2734                   20648942.1054
 -33353753.76248 -25956754.18046  21112428.7194                   21112428.2074
 -17417796.85947 -11063798.59044  23480591.3594                   23480594.0084
 11  7 31  1 23  0.0000000  0  8G17G10G09G12G05G02G04G27
 -34739380.48447 -27039273.66445  22823021.4144                   22823020.5354
 -23088069.33248 -17965322.94546  21007357.3594                   21007356.2544
  -8643129.35547  -5570263.37144  23174668.6954                   23174670.9844
 -14547236.50448  -9612500.92246  21882212.8364                   21882211.1094
  -7644177.19147  -5915387.34445  22762524.0084                   22762523.8874
 -28708518.98048 -22339579.82046  20639554.6094                   20639550.9494
 -33321343.39848 -25931499.37546  21118596.8284                   21118595.4144
 -17394580.76647 -11045708.23444  23485009.9384                   23485012.2934
 11  7 31  1 23 30.0000000  0  8G17G10G09G12G05G02G04G27
 -34726498.63347 -27029235.88745  22825473.2734                   22825472.1414
 -23151850.34048 -18015022.40246  20995220.0704                   20995219.0704
  -8607958.24647  -5542857.43044  23181361.9694                   23181364.0354
 -14656414.48048  -9697574.63346  21861437.2274                   21861435.4304
  -7780700.05147  -6021768.69545  22736544.4614                   22736544.2344
 -28757497.80148 -22377745.11746  20630234.2974                   20630230.6454
 -33288664.00448 -25906034.93746  21124815.4064                   21124814.3754
 -17371156.44547 -11027455.61744  23489467.1884                   23489470.0474
 11  7 31  1 24  0.0000000  0  8G17G10G09G12G05G02G04G27
 -34713456.10247 -27019072.89845  22827954.6174                   22827954.5554
 -23215011.72348 -18064239.03146  20983200.7584                   20983199.8524
  -8572472.57447  -5515206.35544  23188114.7344                   23188117.0704
 -14765221.66448  -9782359.44146  21840731.7504                   21840730.3834
  -7917013.46947  -6127986.82845  22710604.9144                   22710604.9454
 -28806118.39548 -22415631.28946  20620982.3674                   20620978.8324
 -33255728.69948 -25880371.08246  21131082.4304                   21131081.6764
 -17347537.12547 -11009051.06244  23493962.1724                   23493965.0824
 11  7 31  1 24 30.0000000  0  8G17G10G09G12G05G02G04G27
 -34700254.70747 -27008786.12545  22830466.9694                   22830466.2584
 -23277554.64548 -18112973.75046  20971298.9924                   20971298.4344
  -8536678.55947  -5487315.05944  23194926.0394                   23194927.9654
 -14873658.28548  -9866855.49646  21820096.5864                   21820095.3984
  -8053117.52047  -6234041.79745  22684705.1094                   22684705.1414
 -28854384.86348 -22453241.50446  20611797.2274                   20611793.7074
 -33222542.39548 -25854511.65246  21137398.2424                   21137396.8014
 -17323728.30547 -10990498.84844  23498492.7734                   23498495.9064
 11  7 31  1 25  0.0000000  0  8G17G10G09G12G05G02G04G27
 -34686882.87147 -26998366.54345  22833011.0474                   22833010.8094
 -23339466.44148 -18161216.68446  20959517.6484                   20959516.9614
  -8500568.32847  -5459177.31244  23201797.4534                   23201799.9534
 -14981710.77348  -9951052.21146  21799535.2194                   21799533.1334
  -8188998.04747  -6339922.61345  22658847.7034                   22658848.3714
 -28902286.71148 -22490567.60546  20602681.8834                   20602678.2814
 -33189096.06248 -25828449.58646  21143762.6724                   21143761.1414
 -17299721.63747 -10971792.49644  23503060.8984                   23503063.7234
 11  7 31  1 25 30.0000000  0  8G17G10G09G12G05G02G04G27
 -34673338.28947 -26987812.36345  22835588.9534                   22835588.7114
 -23400743.61348 -18208965.10946  20947857.3674                   20947855.8834
  -8464143.68047  -5430794.57844  23208729.3754                   23208731.3324
 -15089374.75848 -10034946.21546  21779047.4774                   21779045.4184
  -8324650.08647  -6445625.37545  22633033.6644                   22633034.1214
 -28949822.93748 -22527608.80546  20593636.2504                   20593632.4494
 -33155390.36348 -25802185.41046  21150176.3834                   21150175.5434
 -17275517.94147 -10952932.62944  23507666.6954                   23507669.8284
 11  7 31  1 26  0.0000000  0  8G17G10G09G12G05G02G04G27
 -34659633.04347 -26977132.97745  22838197.2504                   22838196.3914
 -23461398.02748 -18256228.26246  20936315.0084                   20936314.2704
  -8427421.05547  -5402179.64144  23215717.0784                   23215718.7774
 -15196660.51648 -10118545.49246  21758631.6174                   21758629.8914
  -8460083.71547  -6551157.96145  22607261.4774                   22607261.8524
 -28997007.44948 -22564375.93746  20584657.2814                   20584653.4534
 -33121440.60248 -25775731.07046  21156636.8834                   21156636.0784
 -17251132.88746 -10933931.42244  23512307.8054                   23512310.8094
 11  7 31  1 26 30.0000000  0  8G17G10G09G12G05G02G04G27
 -34645759.81247 -26966322.71945  22840837.0784                   22840836.2304
 -23521421.34448 -18302999.65646  20924893.0634                   20924892.2584
  -8390396.67247  -5373329.58644  23222762.5314                   23222765.1764
 -15303558.78548 -10201842.84046  21738289.5944                   21738288.1484
  -8595288.82447  -6656512.48445  22581532.4614                   22581533.4804
 -29043834.07048 -22600864.20346  20575746.3134                   20575742.7464
 -33087241.63348 -25749082.54346  21163144.7974                   21163143.9384
 -17226562.23446 -10914785.59844  23516983.0784                   23516986.5354
 11  7 31  1 27  0.0000000  0  8G17G10G09G12G05G02G04G27
 -34631720.12147 -26955382.72745  22843508.6254                   22843508.2274
 -23580814.51648 -18349280.02346  20913590.7664                   20913589.4734
  -8353075.91447  -5344248.59444  23229864.7344                   23229866.8984
 -15410069.18048 -10284837.95346  21718020.7894                   21718019.4414
  -8730264.84447  -6761688.48445  22555847.2034                   22555848.0474
 -29090306.01248 -22637076.09447  20566903.1954                   20566899.4454
 -33052798.10248 -25722243.45346  21169698.9064                   21169698.4804
 -17201811.02746 -10895499.09043  23521693.0634                   23521696.5744
 11  7 31  1 27 30.0000000  0  8G17G10G09G12G05G02G04G27
 -34617514.88347 -26944313.73845  22846211.9384                   22846211.4804
 -23639577.22348 -18395069.12146  20902408.7274                   20902407.5864
  -8315463.63747  -5314940.41444  23237022.7584                   23237024.2974
 -15516190.26248 -10367529.70346  21697827.1804                   21697825.3754
  -8865009.92647  -6866684.54345  22530206.5554                   22530207.0004
 -29136425.47748 -22673013.33247  20558126.9144                   20558123.2974
 -33018113.44548 -25695216.47746  21176299.8054                   21176298.7504
 -17176883.34847 -10876075.06644  23526436.8594                   23526439.9804
 11  7 31  1 28  0.0000000  0  8G17G10G09G12G05G02G04G27
 -34603141.07047 -26933113.41845  22848946.9924                   22848946.7154
 -23697706.14848 -18440364.37146  20891347.1414                   20891346.2274
  -8277561.21547  -5285406.16044  23244235.0234                   23244237.0474
 -15621917.33648 -10449914.42646  21677707.5784                   21677706.1844
  -8999518.97747  -6971496.68745  22504610.1804                   22504610.6994
 -29182191.03548 -22708674.78946  20549418.1174                   20549414.3754
 -32983187.75448 -25668001.66846  21182945.8284                   21182944.6254
 -17151779.75847 -10856513.97744  23531214.0394                   23531217.1484
 11  7 31  1 28 30.0000000  0  8G17G10G09G12G05G02G04G27
 -34588598.11347 -26921781.28545  22851714.1174                   22851713.3404
 -23755199.85248 -18485164.62946  20880406.2584                   20880405.6054
  -8239371.93447  -5255648.38744  23251502.4774                   23251504.5704
 -15727248.05148 -10531990.30146  21657663.9144                   21657662.3634
  -9133789.02347  -7076122.60545  22479059.5394                   22479059.3874
 -29227603.64148 -22744061.21946  20540776.1024                   20540772.5864
 -32948023.15648 -25640600.70746  21189637.2664                   21189636.6134
 -17126502.93447 -10836817.87144  23536025.2034                   23536027.5904
 11  7 31  1 29  0.0000000  0  8G17G10G09G12G05G02G04G27
 -34573891.84847 -26910321.90245  22854513.3594                   22854512.5394
 -23812063.50848 -18529473.95746  20869585.4224                   20869584.5514
  -8200905.48047  -5225674.63345  23258822.3054                   23258824.2894
 -15832186.22348 -10613760.29346  21637694.9534                   21637693.6294
  -9267823.13347  -7180564.66445  22453553.4304                   22453553.4734
 -29272670.57448 -22779178.29746  20532200.1884                   20532196.3284
 -32912628.10248 -25613020.16046  21196372.4454                   21196371.7344
 -17101061.65647 -10816993.63743  23540865.8834                   23540869.1254
 11  7 31  1 29 30.0000000  0  9G17G10G09G12G05G02G04G27G25
 -34559024.84447 -26898737.27345  22857342.6414                   22857341.6764
 -23868299.02348 -18573293.80546  20858884.1334                   20858883.0784
  -8162168.05947  -5195489.71545  23266193.7894                   23266195.9774
 -15936732.02048 -10695224.54746  21617800.5634                   21617799.2704
  -9401621.45747  -7284823.00045  22428092.3984                   22428092.9614
 -29317395.37548 -22814028.77746  20523689.3594                   20523685.8444
 -32877008.04348 -25585264.28146  21203150.8284                   21203149.5474
 -17075461.76247 -10797045.76244  23545737.2114                   23545740.7734
   5914015.44516                  24530485.266
 11  7 31  1 30  0.0000000  0  9G17G10G09G12G05G02G04G27G25
 -34543990.78547 -26887022.46545  22860203.0314                   22860202.7304
 -23923899.44148 -18616618.77346  20848303.8914                   20848302.9494
  -8123157.56247  -5165092.04344  23273617.9384                   23273619.4964
 -16040877.57048 -10776376.92246  21597982.1954                   21597980.8674
  -9535175.39147  -7388890.89145  22402677.7974                   22402678.2934
 -29361773.64548 -22848609.23446  20515244.2344                   20515241.0044
 -32841159.32848 -25557330.23446  21209972.6334                   21209971.7034
 -17049700.48847 -10776972.13344  23550639.9924                   23550642.3984
   5775137.680 5                  24504057.094
 11  7 31  1 30 30.0000000  0  9G17G10G09G12G05G02G04G27G25
 -34528795.20747 -26875181.80945  22863094.9384                   22863094.4344
 -23978870.09048 -18659453.02046  20837843.4454                   20837842.3484
  -8083883.87946  -5134489.26644  23281091.3284                   23281093.9414
 -16144626.75448 -10857220.43046  21578239.5084                   21578237.9964
  -9668488.42647  -7492771.08245  22377309.0704                   22377309.5004
 -29405812.73048 -22882925.39846  20506864.2034                   20506860.7034
 -32805090.41048 -25529224.60546  21216836.1254                   21216835.6914
 -17023787.19547 -10756780.05943  23555571.1484                   23555573.5394
   5636391.664 5                  24477655.383
 11  7 31  1 31  0.0000000  0  9G17G10G09G12G05G02G04G27G25
 -34513445.49647 -26863221.03145  22866015.6564                   22866015.3364
 -24033217.45348 -18701801.58646  20827501.3834                   20827500.5904
  -8044358.25047  -5103690.19944  23288612.5784                   23288615.2624
 -16247984.82048 -10937759.18746  21558571.0944                   21558569.3594
  -9801565.00447  -7596467.02045  22351985.3284                   22351985.6414
 -29449521.27348 -22916983.98446  20498546.6094                   20498543.0984
 -32768811.35248 -25500955.22746  21223740.1484                   21223739.1604
 -16997732.24647 -10736477.62543  23560529.4454                   23560531.8914
   5497772.297 5                  24451278.125
 11  7 31  1 31 30.0000000  0  9G17G10G09G12G05G02G04G27G25
 -34497927.75047 -26851129.33645  22868969.1334                   22868967.9144
 -24086927.05548 -18743653.20346  20817280.7734                   20817279.7344
  -8004570.32046  -5072686.73044  23296183.5554                   23296186.3834
 -16350935.68748 -11017980.62546  21538980.3134                   21538978.6604
  -9934389.09847  -7699966.23045  22326710.1564                   22326710.2814
 -29492886.74648 -22950775.25446  20490294.4304                   20490291.2464
 -32732310.95748 -25472513.37546  21230685.3284                   21230684.9844
 -16971524.97747 -10716056.46943  23565516.3054                   23565519.4844
   5359295.531 5                  24424926.414
 11  7 31  1 32  0.0000000  0  9G17G10G09G12G05G02G04G27G25
 -34482243.54747 -26838907.91445  22871953.5314                   22871952.8094
 -24139999.77748 -18785008.55146  20807181.3284                   20807180.1884
  -7964525.67246  -5041483.23844  23303803.6094                   23303806.9964
 -16453479.19948 -11097884.64546  21519466.9304                   21519465.4924
 -10066959.64547  -7803267.87145  22301482.6564                   22301482.4064
 -29535912.16848 -22984301.54747  20482107.0554                   20482103.3914
 -32695593.34848 -25443902.26246  21237672.9774                   21237672.0744
 -16945170.06647 -10695520.30944  23570530.9064                   23570534.3444
   5220961.980 5                  24398604.219
 11  7 31  1 32 30.0000000  0  9G17G10G09G12G05G02G04G27G25
 -34466396.21147 -26826559.38745  22874969.5634                   22874969.0204
 -24192438.59848 -18825869.94146  20797202.3054                   20797201.5514
  -7924231.84046  -5010085.57444  23311471.3284                   23311474.5474
 -16555616.68048 -11177472.28546  21500030.5164                   21500029.3594
 -10199277.69547  -7906372.75045  22276303.2894                   22276303.0514
 -29578602.58648 -23017566.79746  20473983.6804                   20473979.6254
 -32658664.64548 -25415126.67246  21244700.4454                   21244699.1884
 -16918674.52346 -10674874.54744  23575573.2114                   23575577.2234
                                  24372304.328
 11  7 31  1 33  0.0000000  0  8G17G10G09G12G05G02G04G27
 -34450379.64547 -26814078.96945  22878016.8674                   22878016.5984
 -24244237.16848 -18866232.43746  20787345.4774                   20787344.6604
  -7883686.66447  -4978492.04343  23319187.4924                   23319189.9534
 -16657340.15648 -11256737.31246  21480673.3054                   21480672.0664
 -10331334.69147  -8009274.20345  22251173.0394                   22251173.3284
 -29620953.26648 -23050567.32046  20465924.1484                   20465920.7894
 -32621521.56648 -25386184.02746  21251768.5704                   21251767.8094
 -16892035.34046 -10654116.89844  23580643.1254                   23580646.6564
 11  7 31  1 33 30.0000000  0  9G17G10G09G12G05G02G04G27G25
 -34434193.51247 -26801466.43445  22881097.2114                   22881097.1604
 -24295395.06648 -18906095.72746  20777610.3054                   20777609.6454
  -7842894.03947  -4946705.67643  23326950.2274                   23326952.5864
 -16758647.66448 -11335678.20346  21461395.2974                   21461393.9104
 -10463128.30947  -8111970.43445  22226093.2344                   22226094.1024
 -29662965.62548 -23083304.21147  20457929.8594                   20457925.9884
 -32584166.82448 -25357076.45346  21258876.9844                   21258876.2734
 -16865255.86746 -10633249.90644  23585738.6484                   23585742.9104
                                  24319798.047
 11  7 31  1 34  0.0000000  0  9G17G10G09G12G05G02G04G27G25
 -34417838.73847 -26788722.49245  22884209.4384                   22884209.0314
 -24345912.55148 -18945459.97746  20767997.1254                   20767996.0944
  -7801858.62547  -4914730.08644  23334759.2974                   23334761.3364
 -16859538.32048 -11414294.28946  21442196.3054                   21442194.8594
 -10594656.62147  -8214459.93745  22201064.6254                   22201064.5394
 -29704642.24248 -23115779.48446  20449998.7664                   20449995.1954
 -32546603.55147 -25327806.37946  21266024.9224                   21266024.0594
 -16838340.10546 -10612276.72344  23590860.9454                   23590864.7424
   6093377.53915                  24293584.805
 11  7 31  1 34 30.0000000  0  9G17G10G09G12G05G02G04G27G25
 -34401323.20747 -26775853.27745  22887352.1724                   22887351.3444
 -24395797.43748 -18984331.29346  20758504.5004                   20758503.6684
  -7760592.55147  -4882574.76244  23342612.2734                   23342613.6804
 -16960018.10948 -11492590.18046  21423075.6954                   21423073.9654
 -10725925.23847  -8316747.08245  22176084.8914                   22176085.3794
 -29745992.58648 -23148000.52346  20442130.0004                   20442126.3674
 -32508842.75848 -25298382.38745  21273210.7894                   21273209.9264
 -16811299.40646 -10591206.17244  23596006.4534                   23596010.9064
   5955786.19915                  24267403.289
 11  7 31  1 35  0.0000000  0  9G17G10G09G12G05G02G04G27G25
 -32809217.14147 -25535251.17245  23190320.0634                   23190319.2734
 -22869616.43048 -17795099.31646  21048927.1724                   21048925.9384
  -6143670.16047  -3622635.32844  23650302.5234                   23650304.7704
 -15484650.68048 -10342953.21546  21703828.9844                   21703827.2814
  -9281496.42647  -7191218.05945  22450950.5394                   22450950.8404
 -28211585.94548 -21952358.97746  20734118.0164                   20734114.2814
 -30895457.23848 -24041198.87946  21580227.1564                   21580226.8634
 -15208706.84846  -9342432.90244  23900969.9454                   23900974.0164
                                  24541042.492
 11  7 31  1 35 30.0000000  0  9G17G10G09G12G05G02G04G27G25
 -32792362.98047 -25522118.08645  23193527.3204                   23193526.8364
 -22918216.72348 -17832969.64846  21039678.4304                   21039677.2074
  -6101936.85247  -3590115.98444  23658244.0164                   23658246.9804
 -15584284.84048 -10420590.20346  21684868.9694                   21684867.2774
  -9412220.53547  -7293080.93045  22426074.0944                   22426074.6454
 -28252270.62948 -21984061.31646  20726375.6954                   20726372.3164
 -30857291.34048 -24011459.23446  21587490.4384                   21587489.8594
 -15181408.08246  -9321161.28144  23906165.2974                   23906168.3594
                                  24514921.648
 11  7 31  1 36  0.0000000  0  9G17G10G09G12G05G02G04G27G25
 -32775331.81247 -25508847.07445  23196767.8594                   23196767.7074
 -22966166.64548 -17870333.19546  21030554.1024                   21030552.8134
  -6059967.85547  -3557412.98444  23666230.9384                   23666232.8754
 -15683485.96548 -10497889.74646  21665991.3134                   21665990.2894
  -9542661.21147  -7394722.92645  22401251.9384                   22401252.2974
 -28292616.87548 -22015499.93746  20718698.0164                   20718694.3914
 -30818919.13748 -23981558.82446  21594792.4144                   21594791.7464
 -15153977.87546  -9299787.24244  23911384.9534                   23911388.9384
                                  24488829.133
 11  7 31  1 36 30.0000000  0  8G17G10G09G12G05G02G04G27
 -32758125.86347 -25495439.85245  23200041.9064                   23200042.2234
 -23013468.17248 -17907191.50046  21021553.1254                   21021551.9064
  -6017769.82847  -3524531.51244  23674260.4774                   23674263.6414
 -15782254.37548 -10574852.11346  21647196.1414                   21647195.0744
  -9672818.41447  -7496144.04345  22376484.1024                   22376484.8634
 -28332628.55948 -22046677.85946  20711084.0864                   20711080.3874
 -30780345.89548 -23951501.77046  21602132.6884                   21602131.8594
 -15126421.84846  -9278315.14143  23916629.1564                   23916632.6724
 11  7 31  1 37  0.0000000  0  8G17G10G09G12G05G02G04G27
 -32740739.80147 -25481892.28145  23203350.4454                   23203350.3984
 -23060116.20748 -17943540.60546  21012676.2734                   21012675.2074
  -5975341.46147  -3491470.57044  23682334.0554                   23682337.0084
 -15880583.28948 -10651472.00846  21628485.0474                   21628483.6174
  -9802684.82447  -7597338.56645  22351771.4844                   22351771.3444
 -28372302.55148 -22077592.65246  20703534.7114                   20703530.7034
 -30741569.16448 -23921286.14145  21609511.8054                   21609511.2704
 -15098738.27746  -9256743.67644  23921896.3834                   23921900.4264
 11  7 31  1 37 30.0000000  0  8G17G10G09G12G05G02G04G27
 -32723183.66447 -25468212.18045  23206691.1884                   23206691.0554
 -23106120.03548 -17979387.72746  21003921.6644                   21003920.2074
  -5932696.60246  -3458240.94944  23690449.5634                   23690452.3754
 -15978480.52748 -10727755.53546  21609855.9454                   21609854.5514
  -9932267.64547  -7698312.10945  22327112.8054                   22327112.5084
 -28411650.05548 -22108253.02746  20696046.8834                   20696043.3914
 -30702600.94548 -23890921.30545  21616926.8914                   21616926.2074
 -15070939.80946  -9235082.66443  23927186.5394                   23927190.1954
 11  7 31  1 38  0.0000000  0  9G17G10G09G12G05G02G04G27G25
 -32705452.69147 -25454395.85945  23210065.5004                   23210065.3634
 -23151474.90248 -18014729.15646  20995291.1484                   20995289.6254
  -5889834.20346  -3424841.85544  23698605.2194                   23698609.3324
 -16075939.37947 -10803697.46546  21591309.9144                   21591308.4734
 -10061559.51647  -7799058.93745  22302509.5704                   22302509.6374
 -28450667.50848 -22138656.23846  20688622.1414                   20688618.3284
 -30663439.23048 -23860405.68745  21624379.4844                   21624378.2814
 -15043025.03947  -9213331.06643  23932498.8594                   23932502.2384
   6572698.48815                  24384795.445
 11  7 31  1 38 30.0000000  0  9G17G10G09G12G05G02G04G27G25
 -32687551.89847 -25440447.20345  23213472.2734                   23213472.1334
 -23196185.72748 -18049568.74646  20986783.1564                   20986781.8404
  -5846763.71946  -3391280.61344  23706802.3054                   23706804.9694
 -16172963.18047 -10879300.37146  21572846.8914                   21572845.8674
 -10190563.48847  -7899581.43745  22277960.0704                   22277960.2814
 -28489362.27048 -22168807.99646  20681258.6024                   20681254.8714
 -30624091.77048 -23829745.33245  21631866.6094                   21631866.0784
 -15015002.53146  -9191495.52043  23937831.3284                   23937835.3524
   6436454.586 5                  24358869.266
 11  7 31  1 39  0.0000000  0  9G17G10G09G12G05G02G04G27G25
 -32669473.24647 -25426359.96545  23216912.6564                   23216912.3834
 -23240244.39548 -18083900.15246  20978398.6724                   20978397.4694
  -5803480.95746  -3357553.92244  23715039.1564                   23715041.4144
 -16269542.14147 -10954556.67246  21554468.4224                   21554467.0434
 -10319268.90647  -7999871.30545  22253468.5004                   22253467.9804
 -28527727.19148 -22198702.72746  20673958.3594                   20673954.5084
 -30584553.42248 -23798936.24245  21639390.3524                   21639389.9414
 -14986867.77346  -9169572.50443  23943185.4534                   23943189.2584
   6300392.668 5                  24332978.023
 11  7 31  1 39 30.0000000  0  9G17G10G09G12G05G02G04G27G25
 -32651227.34847 -25412142.39544  23220383.7894                   23220384.1914
 -23283661.19148 -18117731.41446  20970136.7114                   20970135.7424
  -5759999.74247  -3323672.57444  23723313.4064                   23723316.1334
 -16365684.46148 -11029472.72346  21536173.2584                   21536171.5664
 -10447683.61347  -8099934.62145  22229031.9064                   22229031.9264
 -28565774.38748 -22228349.88346  20666718.2194                   20666714.1054
 -30544836.69148 -23767988.15245  21646948.5314                   21646948.0704
 -14958634.09047  -9147572.38744  23948558.2734                   23948562.1764
   6164504.695 5                  24307118.453
 11  7 31  1 40  0.0000000  0  9G17G10G09G12G05G02G04G27G25
 -32632805.09047 -25397787.41444  23223889.8594                   23223889.6804
 -23326427.05548 -18151055.44546  20961998.6334                   20961997.3634
  -5716315.39547  -3289632.95344  23731626.2814                   23731628.4654
 -16461379.43047 -11104040.18746  21517963.0394                   21517961.7934
 -10575796.40647  -8199762.68445  22204653.0234                   22204652.7894
 -28603496.65248 -22257743.84446  20659539.5394                   20659535.9064
 -30504935.41048 -23736896.26245  21654541.4144                   21654540.6684
 -14930295.82046  -9125490.80544  23953951.3754                   23953954.7624
   6028801.590 5                  24281295.367
 11  7 31  1 40 30.0000000  0  9G17G10G09G12G05G02G04G27G25
 -32614205.73847 -25383294.44944  23227429.3364                   23227428.8404
 -23368541.37948 -18183871.78946  20953984.6334                   20953983.5084
  -5672431.25447  -3255437.62544  23739977.1804                   23739979.2384
 -16556624.98847 -11178257.47746  21499838.1724                   21499836.5744
 -10703604.39147  -8299353.24245  22180331.9534                   22180332.0274
 -28640894.96948 -22286885.38347  20652423.1564                   20652419.1914
 -30464851.43448 -23705662.01245  21662168.8594                   21662168.5204
 -14901855.92647  -9103330.03544  23959362.9774                   23959367.5354
   5893285.969 5                  24255507.922
 11  7 31  1 41  0.0000000  0  9G17G10G09G12G05G02G04G27G25
 -32595438.60247 -25368670.73044  23231000.4844                   23231000.2344
 -23410013.14148 -18216187.43746  20946092.7734                   20946091.9184
  -5628360.30547  -3221096.76244  23748364.0704                   23748365.7464
 -16651428.44548 -11252130.26246  21481797.5704                   21481796.7814
 -10831114.05147  -8398711.33246  22156067.7894                   22156067.5944
 -28677979.68448 -22315782.54746  20645365.7734                   20645362.0204
 -30424596.73048 -23674294.73445  21669829.1094                   21669828.7344
 -14873326.51246  -9081099.49643  23964791.7274                   23964796.1094
                                  24229753.156
 11  7 31  1 41 30.0000000  0  8G17G10G09G12G05G02G04G27
 -32576501.37947 -25353914.49644  23234604.1094                   23234603.7114
 -23450840.40248 -18248000.87546  20938323.6484                   20938322.9024
  -5584104.64847  -3186611.92644  23756785.3754                   23756787.3054
 -16745785.83247 -11325655.45746  21463842.0634                   21463840.6024
 -10958321.03547  -8497833.57046  22131860.6644                   22131860.8674
 -28714750.54748 -22344435.15646  20638368.6564                   20638364.9144
 -30384171.46948 -23642794.55145  21677522.0474                   21677521.6134
 -14844708.87546  -9058800.23043  23970237.9384                   23970241.9494
 11  7 31  1 42  0.0000000  0  8G17G10G09G12G05G02G04G27
 -32557388.46947 -25339021.34444  23238241.7584                   23238240.8164
 -23491017.41048 -18279307.62546  20930678.1094                   20930677.3714
  -5539662.56647  -3151981.84443  23765242.6564                   23765244.2114
 -16839689.47748 -11398827.09846  21445972.8984                   21445971.7384
 -11085217.42647  -8596713.78546  22107713.0474                   22107712.8244
 -28751203.80148 -22372840.27746  20631431.7504                   20631428.2814
 -30343572.79348 -23611159.22745  21685247.8984                   21685246.9494
 -14816000.70746  -9036430.41043  23975700.8364                   23975705.1644
 11  7 31  1 42 30.0000000  0  8G17G10G09G12G05G02G04G27
 -32538098.29747 -25323990.09844  23241911.7974                   23241912.3874
 -23530543.22348 -18310106.95346  20923156.6254                   20923155.6524
  -5495036.34047  -3117208.25443  23773734.0314                   23773736.2664
 -16933136.36748 -11471642.83646  21428190.3984                   21428189.2154
 -11211799.39547  -8695349.01246  22083625.1414                   22083624.8134
 -28787339.30548 -22400997.80146  20624555.3444                   20624551.8404
 -30302801.62148 -23579389.50445  21693006.0474                   21693005.7934
 -14787203.75446  -9013991.41443  23981181.2894                   23981185.2274
 11  7 31  1 43  0.0000000  0  9G17G10G09G12G05G02G04G27G25
 -32518629.18047 -25308819.41044  23245617.2274                   23245616.7304
 -23569415.42248 -18340396.96546  20915759.5704                   20915758.0704
  -5450227.53147  -3082292.39843  23782261.3054                   23782263.6024
 -17026122.52048 -11544099.54746  21410495.7974                   21410494.2194
 -11338061.97747  -8793735.35246  22059598.3204                   22059597.8754
 -28823156.08648 -22428906.95746  20617739.8984                   20617736.2734
 -30261858.41848 -23547485.73845  21700797.6644                   21700797.1374
 -14758318.87546  -8991483.92243  23986678.4694                   23986682.6994
                                  24127104.063
 11  7 31  1 43 30.0000000  0  9G17G10G09G12G05G02G04G27G25
 -32498982.55947 -25293510.41844  23249355.8364                   23249355.2304
 -23607635.68448 -18370178.98446  20908486.6254                   20908485.4734
  -5405241.84046  -3047238.74244  23790822.0554                   23790824.0474
 -17118647.76648 -11616197.11346  21392888.6884                   21392887.4734
 -11464005.02747  -8891872.70346  22035632.1484                   22035631.6024
 -28858657.93748 -22456570.73046  20610983.9924                   20610980.6914
 -30220747.15648 -23515450.99645  21708620.4534                   21708620.3094
 -14729351.15646  -8968911.85943  23992190.9454                   23992195.2384
   7631535.340 5                  24101535.359
 11  7 31  1 44  0.0000000  0  9G17G10G09G12G05G02G04G27G25
 -32479153.99247 -25278059.64144  23253129.1804                   23253128.7424
 -23645199.70347 -18399449.63746  20901338.3594                   20901337.2894
  -5360078.77047  -3012046.89843  23799415.2814                   23799418.9454
 -17210705.88748 -11687930.68446  21375370.6254                   21375369.2584
 -11589621.35547  -8989755.48446  22011728.2814                   22011727.6994
 -28893841.69948 -22483986.62946  20604288.7504                   20604285.4454
 -30179465.91448 -23483283.83245  21716476.2504                   21716475.7234
 -14700299.47746  -8946274.37943  23997718.9614                   23997724.0664
   7497381.391 5                  24076005.500
 11  7 31  1 44 30.0000000  0  9G17G10G09G12G05G02G04G27G25
 -32459157.36347 -25262477.91044  23256934.7194                   23256933.9884
 -23682121.66848 -18428220.00046  20894312.2584                   20894310.9614
  -5314756.17646  -2976730.71544  23808040.6174                   23808043.6054
 -17302309.18048 -11759309.85246  21357939.3134                   21357937.6454
 -11714922.71947  -9087392.82046  21987884.1024                   21987883.5514
 -28928723.03548 -22511166.87546  20597651.1024                   20597647.0944
 -30138031.21948 -23450997.08645  21724361.1884                   21724360.4184
 -14671180.91046  -8923584.80943  24003259.7114                   24003264.2544
   7363422.910 6                  24050515.320
 11  7 31  1 45  0.0000000  0  9G17G10G09G12G05G02G04G27G25
 -32438982.78547 -25246757.51244  23260773.6644                   23260773.7154
 -23718392.25048 -18456482.78146  20887409.9454                   20887409.0824
  -5269267.83247  -2941285.40643  23816696.8364                   23816700.0904
 -17393445.90248 -11830325.47746  21340596.4694                   21340594.5824
 -11839896.69947  -9184775.06646  21964102.0634                   21964101.8634
 -28963293.52048 -22538104.89546  20591072.5944                   20591068.4844
 -30096435.57448 -23418584.91845  21732276.5704                   21732276.0594
 -14641988.74246  -8900837.83243  24008814.7344                   24008820.1134
   7229671.93446   6099068.13352  24025063.0944                   24025065.2704
 11  7 31  1 45 30.0000000  0  9G17G10G09G12G05G02G04G27G25
 -32418635.21147 -25230902.30545  23264645.7504                   23264645.3984
 -23754016.30148 -18484241.78546  20880631.1564                   20880630.3134
  -5223623.03547  -2905718.16844  23825382.7504                   23825386.1094
 -17484119.50448 -11900980.20746  21323341.8364                   21323339.9574
 -11964545.71547  -9281904.08246  21940382.0634                   21940381.8634
 -28997559.98448 -22564806.01246  20584551.7034                   20584547.7154
 -30054686.65648 -23386053.30945  21740221.0314                   21740220.4454
 -14612731.57446  -8878040.23443  24014383.0394                   24014388.0904
   7096125.27045   5995005.95742  23999649.0164                   23999653.7234
 11  7 31  1 46  0.0000000  0  9G17G10G09G12G05G02G04G27G25
 -32398111.33647 -25214909.71144  23268550.6484                   23268551.1024
 -23788990.57048 -18511494.46546  20873975.2894                   20873974.5554
  -5177821.76647  -2870029.05144  23834099.5474                   23834101.7194
 -17574324.43748 -11971269.75446  21306176.1414                   21306174.5824
 -12088864.36747  -9378775.68446  21916724.8754                   21916724.4184
 -29031520.49648 -22591268.73446  20578089.3524                   20578085.9844
 -30012783.10948 -23353401.22345  21748195.1564                   21748194.5904
 -14583408.67246  -8855191.38343  24019963.1024                   24019967.4384
   6962788.906 5                  23974276.180
 11  7 31  1 46 30.0000000  0  9G17G10G09G12G05G02G04G27G25
 -32377413.28147 -25198781.39144  23272489.7504                   23272490.1294
 -23823318.04748 -18538243.15246  20867443.3834                   20867442.4924
  -5131870.68447  -2834223.19144  23842843.5234                   23842847.1484
 -17664061.69548 -12041194.87146  21289099.9614                   21289098.3554
 -12212852.69547  -9475389.88346  21893130.9534                   21893130.4734
 -29065179.14548 -22617496.24647  20571684.4774                   20571680.7384
 -29970730.07448 -23320632.64145  21756197.2734                   21756196.9024
 -14554026.14546  -8832296.08643  24025554.6254                   24025559.0554
   6829662.180 5                  23948941.766
 11  7 31  1 47  0.0000000  0  9G17G10G09G12G05G02G04G27G25
 -32356531.72347 -25182510.10245  23276463.5234                   23276463.1684
 -23856988.79347 -18564480.09446  20861036.1174                   20861035.0084
  -5085763.66047  -2798295.78944  23851617.3444                   23851621.1684
 -17753319.69148 -12110746.54346  21272115.1644                   21272113.5704
 -12336498.31647  -9571737.04346  21869601.4614                   21869601.6804
 -29098527.71948 -22643482.13746  20565338.3674                   20565334.8524
 -29928520.07048 -23287741.75445  21764230.1954                   21764229.4344
 -14524577.36346  -8809349.15243  24031158.9924                   24031163.7034
   6696757.313 5                  23923650.883
 11  7 31  1 47 30.0000000  0  9G17G10G09G12G05G02G04G27G25
 -32335469.70747 -25166098.18044  23280471.8914                   23280471.3324
 -23890006.63747 -18590208.28546  20854753.2504                   20854751.8634
  -5039507.60247  -2762252.26244  23860419.4534                   23860422.9024
 -17842100.08248 -12179926.05946  21255220.1804                   21255218.9964
 -12459802.18747  -9667817.91046  21846137.5234                   21846137.4104
 -29131570.87948 -22669230.03946  20559050.1644                   20559046.6884
 -29886158.72348 -23254732.94545  21772290.9694                   21772290.6604
 -14495068.52346  -8786355.41043  24036774.6174                   24036778.4534
   6564073.270 5                  23898402.000
 11  7 31  1 48  0.0000000  0  9G17G10G09G12G05G02G04G27G25
 -32314216.81647 -25149537.53544  23284515.9694                   23284515.6724
 -23922361.96547 -18615420.23046  20848596.2274                   20848594.9654
  -4993096.52047  -2726087.95744  23869251.8444                   23869254.9414
 -17930390.92648 -12248724.10246  21238419.5864                   21238417.9844
 -12582752.03948  -9763622.93046  21822740.6414                   21822740.8794
 -29164300.18048 -22694733.37946  20552822.0394                   20552818.9964
 -29843638.48448 -23221600.32045  21780382.6724                   21780381.7734
 -14465492.84046  -8763309.57443  24042403.1804                   24042406.7974
   6431622.21546   5878971.87552  23873198.6174                   23873201.7344
 11  7 31  1 48 30.0000000  0  9G17G10G09G12G05G02G04G27G25
 -32292794.47747 -25132844.83245  23288592.3444                   23288592.0744
 -23954075.92648 -18640132.39846  20842561.1024                   20842559.8634
  -4946555.08247  -2689822.03944  23878107.9454                   23878112.1604
 -18018211.18048 -12317155.44946  21221707.3834                   21221706.3364
 -12705366.05147  -9859166.23846  21799408.3594                   21799407.7704
 -29196737.85248 -22720009.47746  20546649.3914                   20546645.7304
 -29800982.36748 -23188361.81645  21788499.8914                   21788498.6884
 -14435874.29746  -8740230.35243  24048039.1724                   24048043.4064
   6299385.52046   5775930.38342  23848034.4064                   23848038.7734
 11  7 31  1 49  0.0000000  0  9G17G10G09G12G05G02G04G27G25
 -32271197.54747 -25116016.08645  23292702.0634                   23292702.0394
 -23985144.09048 -18664341.36346  20836649.2974                   20836647.5864
  -4899882.33247  -2653453.83644  23886990.3284                   23886993.4614
 -18105554.59848 -12385215.25046  21205086.5864                   21205085.1214
 -12827637.24648  -9954442.42646  21776140.7274                   21776140.1914
 -29228880.77048 -22745055.90647  20540532.7894                   20540529.2934
 -29758188.02048 -23155015.59845  21796642.9304                   21796642.6684
 -14406211.30546  -8717116.48043  24053683.4844                   24053687.9454
   6167370.18845   5673061.35942  23822912.8594                   23822917.0634
 11  7 31  1 49 30.0000000  0  9G17G10G09G12G05G02G04G27G25
 -32249421.31647 -25099047.60544  23296846.4144                   23296846.0634
 -24015562.12148 -18688043.71946  20830860.4614                   20830859.1484
  -4853077.52747  -2616982.71944  23895896.5704                   23895900.0474
 -18192415.25448 -12452898.86346  21188557.4384                   21188556.0434
 -12949558.44147 -10049445.88746  21752939.8134                   21752939.2194
 -29260725.86748 -22769870.27047  20534473.0004                   20534469.1804
 -29715253.15648 -23121559.88745  21804813.5394                   21804812.4454
 -14376502.50046  -8693966.91844  24059336.3834                   24059341.5274
   6035583.05146   5570370.14842  23797834.4224                   23797838.6484
 11  7 31  1 50  0.0000000  0  9G17G10G09G12G05G02G04G27G25
 -32227465.64147 -25081939.32444  23301024.3444                   23301023.7704
 -24045330.52348 -18711239.87146  20825196.0784                   20825194.8404
  -4806144.09047  -2580411.41444  23904828.3834                   23904832.0904
 -18278790.78548 -12520204.46546  21172120.7814                   21172119.1374
 -13071127.35948 -10144174.84446  21729805.6884                   21729805.2854
 -29292274.82448 -22794453.86346  20528469.8444                   20528465.9414
 -29672179.94948 -23087996.38745  21813009.5864                   21813009.2854
 -14346750.95346  -8670784.03943  24064998.5084                   24065002.9654
   5904026.37145   5467858.50042  23772800.2424                   23772804.4804
 11  7 31  1 50 30.0000000  0  9G17G10G09G12G05G02G04G27G25
 -32205331.93047 -25064692.28944  23305236.4144                   23305235.6214
 -24074450.84047 -18733931.02346  20819654.3594                   20819653.1334
  -4759087.20747  -2543743.89544  23913782.4304                   23913786.6564
 -18364680.84448 -12587131.77746  21155776.5234                   21155774.9264
 -13192342.78947 -10238628.35246  21706739.2194                   21706738.3244
 -29323530.39548 -22818808.85546  20522521.7504                   20522518.1644
 -29628971.92648 -23054327.82045  21821231.9144                   21821231.7624
 -14316961.07846  -8647571.27743  24070667.2114                   24070672.0904
   5772701.22345   5365527.23442  23747810.3284                   23747814.1214
 11  7 31  1 51  0.0000000  0  9G17G10G09G12G05G02G04G27G25
 -32183022.72747 -25047308.53144  23309482.0234                   23309481.0904
 -24102926.11348 -18756119.54746  20814235.6484                   20814234.6054
  -4711912.97747  -2506984.91043  23922759.9534                   23922763.1054
 -18450086.39148 -12653681.54346  21139524.3594                   21139522.8284
 -13313204.78547 -10332806.46146  21683740.0084                   21683739.5864
 -29354496.68048 -22842938.43046  20516628.6414                   20516625.4614
 -29585634.10248 -23020558.12545  21829478.8524                   21829478.1134
 -14287138.27746  -8624332.87143  24076342.9534                   24076347.8594
   5641607.21145   5263376.18442  23722863.3364                   23722868.0234
 11  7 31  1 51 30.0000000  0  9G17G10G09G12G05G02G04G27G25
 -32160533.68447 -25029784.62944  23313761.1884                   23313760.6954
 -24130752.69947 -18777802.59846  20808940.6174                   20808939.4534
  -4664621.30947  -2470134.43743  23931759.3674                   23931762.5474
 -18535001.69948 -12719849.31246  21123365.4384                   21123363.8874
 -13433707.24247 -10426704.41446  21660809.6644                   21660808.6174
 -29385170.90248 -22866840.42246  20510791.8674                   20510788.1134
 -29542164.54348 -22986685.77045  21837751.5944                   21837750.5084
 -14257281.71546  -8601068.17643  24082024.5784                   24082029.5354
   5510750.70745   5161410.14142  23697962.2344                   23697967.9304
 11  7 31  1 52  0.0000000  0  9G17G10G09G12G05G02G04G27G25
 -32137866.70747 -25012122.07444  23318074.8204                   23318073.8484
 -24157932.85248 -18798981.93046  20803768.4774                   20803767.3094
  -4617217.37147  -2433196.44143  23940779.7734                   23940783.4924
 -18619426.73448 -12785635.04346  21107299.9454                   21107298.0594
 -13553849.05148 -10520321.34046  21637947.3054                   21637946.7704
 -29415556.46148 -22890517.47746  20505009.5474                   20505006.2234
 -29498567.09448 -22952713.76645  21846047.9304                   21846046.7934
 -14227396.15246  -8577780.87143  24087711.4534                   24087716.3404
   5380132.50445   5059629.74642  23673106.2974                   23673111.2854
 11  7 31  1 52 30.0000000  0  9G17G10G09G12G05G02G04G27G25
 -32115018.75847 -24994318.52044  23322422.3134                   23322421.7074
 -24184464.50048 -18819655.93446  20798719.3204                   20798718.3404
  -4569702.18447  -2396171.80143  23949822.3204                   23949825.2664
 -18703356.98048 -12851035.23046  21091328.5314                   21091327.0274
 -13673625.19148 -10613653.32046  21615154.2114                   21615153.6524
 -29445651.82448 -22913968.41446  20499282.6724                   20499279.0164
 -29454841.21948 -22918641.68045  21854368.3914                   21854367.6684
 -14197481.80946  -8554471.12543  24093403.8364                   24093409.1334
   5249757.50446   4958038.93442  23648296.9144                   23648301.0634
 11  7 31  1 53  0.0000000  0  9G17G10G09G12G05G02G04G27G25
 -32091991.07847 -24976374.91444  23326804.9064                   23326804.1174
 -24210349.30148 -18839825.90646  20793793.6414                   20793792.8484
  -4522080.75847  -2359064.36743  23958884.4144                   23958888.2154
 -18786791.98048 -12916049.51246  21075451.7114                   21075450.1254
 -13793034.55548 -10706699.50846  21592431.1644                   21592430.7384
 -29475460.00848 -22937195.57046  20493610.1954                   20493606.4144
 -29410990.37548 -22884472.21945  21862713.1174                   21862712.2344
 -14167543.14846  -8531142.47343  24099101.0634                   24099106.8524
   5119626.84446   4856638.48443  23623534.1414                   23623536.9264
 11  7 31  1 53 30.0000000  0  9G17G10G09G12G05G02G04G27G25
 -32068784.08647 -24958291.59044  23331220.7664                   23331220.0594
 -24235588.31647 -18859492.67646  20788990.7894                   20788989.5704
  -4474357.43046  -2321877.50843  23967965.8524                   23967969.6764
 -18869730.81648 -12980677.16846  21059668.8914                   21059666.9224
 -13912075.37148 -10799458.52746  21569778.3134                   21569778.3094
 -29504982.94148 -22960200.45746  20487992.2424                   20487988.1914
 -29367017.31648 -22850207.52345  21871080.8284                   21871079.8364
 -14137583.60546  -8507797.52343  24104802.7194                   24104808.5514
   4989742.27346   4755429.77343  23598817.9694                   23598820.2734
 11  7 31  1 54  0.0000000  0  9G17G10G09G12G05G02G04G27G25
 -32045393.80547 -24940065.44144  23335671.7034                   23335671.2544
 -24260178.25848 -18878653.66846  20784311.4614                   20784310.5394
  -4426531.89847  -2284611.05144  23977066.6254                   23977070.4734
 -18952167.45348 -13044913.49646  21043981.7974                   21043980.0234
 -14030741.70748 -10891925.74246  21547197.3284                   21547196.4924
 -29534218.44148 -22982981.35946  20482429.1024                   20482425.3204
 -29322920.28148 -22815846.22745  21879472.0004                   21879471.6414
 -14107602.59446  -8484435.85943  24110508.4384                   24110513.2344
   4860109.84846   4654417.55542  23574149.5314                   23574152.5274
 11  7 31  1 54 30.0000000  0  9G17G10G09G12G05G02G04G27G25
 -32021825.42247 -24921700.52344  23340156.1094                   23340156.5274
 -24284125.22348 -18897313.62946  20779754.8984                   20779753.4964
  -4378613.18747  -2247271.97743  23986185.4534                   23986188.9614
 -19034106.23848 -13108761.90646  21028389.3364                   21028387.4064
 -14149036.08248 -10984103.10946  21524686.4304                   21524686.1334
 -29563173.24248 -23005543.55546  20476919.3364                   20476915.5124
 -29278706.87148 -22781394.24645  21887885.3284                   21887885.1294
 -14077608.34846  -8461063.86743  24116216.1884                   24116220.4694
   4730726.64145   4553599.60242  23549527.9064                   23549532.0474
 11  7 31  1 55  0.0000000  0  9G17G10G09G12G05G02G04G27G25
 -31998065.25047 -24903186.16844  23344678.2584                   23344677.7664
 -24307416.33648 -18915462.53146  20775322.3444                   20775321.2734
  -4330591.07446  -2209852.32443  23995324.2734                   23995328.0824
 -19115531.90648 -13172210.46946  21012894.4144                   21012892.8954
 -14266942.57048 -11075978.24246  21502249.7424                   21502248.8714
 -29591835.32848 -23027877.65646  20471465.0164                   20471461.2304
 -29234365.55548 -22746842.60545  21896323.4534                   21896322.9384
 -14047590.32446  -8437673.35543  24121927.6174                   24121933.1684
   4601608.48046   4452988.05142  23524958.8364                   23524962.6724
 11  7 31  1 55 30.0000000  0  9G17G10G09G12G05G02G04G27G25
 -31974127.50447 -24884533.46544  23349233.5314                   23349233.1134
 -24330065.49648 -18933111.21946  20771012.8834                   20771011.4654
  -4282482.97346  -2172365.63743  24004478.5234                   24004482.5204
 -19196455.89148 -13235268.11346  20997495.1564                   20997493.2934
 -14384472.36748 -11167559.84846  21479884.1804                   21479883.5204
 -29620219.68748 -23049995.34047  20466063.3984                   20466059.7814
 -29189912.08648 -22712203.56245  21904783.0314                   21904782.3674
 -14017565.02046  -8414277.18043  24127641.6884                   24127646.9104
   4472744.35546   4352574.45342  23500436.3444                   23500439.7704
 11  7 31  1 56  0.0000000  0  9G17G10G09G12G05G02G04G27G25
 -31950007.20347 -24865738.49244  23353823.4384                   23353823.1914
 -24352069.44548 -18950257.14846  20766825.3834                   20766823.8954
  -4234288.21546  -2134811.44543  24013650.3364                   24013654.3754
 -19276872.46948 -13297930.37146  20982191.8134                   20982190.2624
 -14501618.64548 -11258842.60546  21457592.1254                   21457591.6334
 -29648323.28148 -23071894.24246  20460715.4224                   20460711.8204
 -29145344.29748 -22677475.43445  21913264.3674                   21913263.0824
 -13987531.16046  -8390874.35943  24133357.1094                   24133362.4574
   4344140.82446   4252364.00442  23475963.6094                   23475966.5234
 11  7 31  1 56 30.0000000  0  9G17G10G09G12G05G02G04G27G25
 -31925702.55947 -24846799.89144  23358448.8054                   23358447.9494
 -24373426.72748 -18966899.18046  20762761.5164                   20762760.1334
  -4186008.67246  -2097191.20344  24022837.4774                   24022841.5594
 -19356778.45348 -13360194.75046  20966986.7114                   20966985.1024
 -14618377.52348 -11349823.48846  21435373.3204                   21435372.8014
 -29676146.06648 -23093574.34846  20455421.0394                   20455417.2734
 -29100662.26248 -22642658.28545  21921766.6724                   21921766.2544
 -13957490.16846  -8367465.96143  24139074.1024                   24139079.1914
   4215801.96946   4152359.78543  23451541.3674                   23451543.5394
 11  7 31  1 57  0.0000000  0  9G17G10G09G12G05G02G04G27G25
 -31901219.53547 -24827722.28544  23363107.4774                   23363106.5984
 -24394144.68448 -18983043.02746  20758818.6174                   20758817.7234
  -4137654.46946  -2059512.75843  24032038.6884                   24032043.5004
 -19436178.46548 -13422064.87546  20951877.1724                   20951875.1764
 -14734752.78148 -11440505.45346  21413228.3594                   21413227.4264
 -29703695.73848 -23115041.63346  20450178.5234                   20450174.9414
 -29055874.31647 -22607758.60945  21930289.2584                   21930289.2424
 -13927451.07846  -8344059.03543  24144790.2344                   24144795.6564
   4087724.04747   4052558.87944  23427168.9384                   23427171.2854
 11  7 31  1 57 30.0000000  0  9G17G10G09G12G05G02G04G27G25
 -30301132.22747 -23580901.08644  23667593.6724                   23667593.2704
 -22838796.06648 -17771083.05946  21054791.6564                   21054790.5634
  -2513803.27346   -794174.29743  24341047.2734                   24341052.6684
 -17939640.93048 -12255931.70746  21236658.3364                   21236656.9614
 -13275311.07448 -10303278.09446  21690950.6484                   21690949.6254
 -28155545.77748 -21908691.01246  20744781.7344                   20744778.1524
 -27435557.32448 -21345173.96945  22238625.5084                   22238624.9454
 -12321990.86746  -7093051.27043  24450299.3134                   24450304.9024
   5535340.54347   5180571.81343  23702641.2274                   23702643.8794
 11  7 31  1 58  0.0000000  0  9G17G10G09G12G05G02G04G27G25
 -30276277.70747 -23561534.02744  23672323.8284                   23672323.9414
 -22858221.99248 -17786220.13346  21051094.7974                   21051093.7854
  -2465294.69946   -756375.57443  24350278.6954                   24350283.1484
 -18018008.94148 -12316997.66846  21221746.1884                   21221744.7624
 -13390896.95348 -10393344.96546  21668955.3754                   21668953.9064
 -28182538.57048 -21929724.36346  20739645.1884                   20739641.3054
 -27390549.10247 -21310102.64845  22247190.4144                   22247189.7704
 -12291949.56246  -7069642.62943  24456016.6804                   24456021.5314
   5407806.30147   5081194.57043  23678372.4144                   23678374.5594
 11  7 31  1 58 30.0000000  0  9G17G10G09G12G05G02G04G27G25
 -30251239.01247 -23542023.43044  23677088.3594                   23677088.3554
 -22877004.87548 -17800856.13346  21047520.8204                   21047519.2194
  -2416716.05146   -718522.21943  24359523.6094                   24359527.4534
 -18095860.06248 -12377660.84846  21206930.9614                   21206929.6454
 -13506086.55948 -10483103.03546  21647035.3594                   21647034.5044
 -28209256.84048 -21950543.79746  20734560.9924                   20734557.1604
 -27345435.42647 -21274949.14845  22255775.1724                   22255775.0084
 -12261913.19146  -7046237.83643  24461731.5784                   24461736.6764
   5280545.93447   4982030.68443  23654155.3444                   23654157.2074
 11  7 31  1 59  0.0000000  0  9G17G10G09G12G05G02G04G27G25
 -30226014.37947 -23522367.97344  23681888.6884                   23681888.8634
 -22895144.04748 -17814990.54746  21044069.0634                   21044067.7624
  -2368069.31646   -680615.82043  24368780.5704                   24368784.5354
 -18173192.02348 -12437919.49646  21192215.4064                   21192213.9184
 -13620875.94148 -10572549.25046  21625191.5394                   21625190.4694
 -28235700.48048 -21971149.22746  20729528.7584                   20729525.5234
 -27300216.88747 -21239713.94945  22264379.8284                   22264379.6134
 -12231883.32046  -7022838.15643  24467446.9304                   24467451.7544
   5153563.10246   4883083.03143  23629991.1174                   23629992.9494
 11  7 31  1 59 30.0000000  0  9G17G10G09G12G05G02G04G27G25
 -30200608.09447 -23502570.96544  23686723.6644                   23686724.1174
 -22912645.07048 -17828627.69946  21040738.8834                   21040737.4804
  -2319362.34446   -642662.48843  24378049.1174                   24378053.6954
 -18250006.89848 -12497775.20346  21177598.2274                   21177596.5274
 -13735266.87548 -10661684.98846  21603423.6024                   21603422.6994
 -28261875.08248 -21991545.02746  20724547.9694                   20724544.5274
 -27254899.75447 -21204401.91845  22273003.5084                   22273003.0594
 -12201867.01646  -6999448.98443  24473159.2034                   24473163.7814
   5026856.06647   4784350.34443  23605878.9304                   23605881.3554
 11  7 31  2  0  0.0000000  0  9G17G10G09G12G05G02G04G27G25
 -30175023.55947 -23482635.02344  23691592.0784                   23691592.0124
 -22929511.82848 -17841770.60946  21037529.1564                   21037527.9414
  -2270601.97746   -604667.55143  24387327.9614                   24387332.3524
 -18326306.47748 -12557229.40646  21163078.5864                   21163077.0664
 -13849260.33248 -10750511.00446  21581731.4384                   21581730.3594
 -28287785.88748 -22011735.27046  20719617.2974                   20719613.6954
 -27209489.31247 -21169017.19545  22281644.6484                   22281644.8244
 -12171870.64846  -6976075.41843  24478867.3444                   24478872.1334
   4900423.79347   4685831.77344  23581819.9224                   23581822.7114
 11  7 31  2  0 30.0000000  0  9G17G10G09G12G05G02G04G27G25
 -30149253.72747 -23462554.69144  23696496.0554                   23696495.2274
 -22945738.29348 -17854414.60246  21034441.4304                   21034440.1054
  -2221784.87547   -566628.37144  24396617.3364                   24396622.3444
 -18402082.62948 -12616275.71946  21148659.0864                   21148657.2974
 -13962847.33248 -10839020.28546  21560116.4534                   21560115.3134
 -28313427.14548 -22031715.46947  20714737.8754                   20714734.3714
 -27163980.53547 -21133555.84045  22290304.8364                   22290304.4844
 -12141890.28546  -6952714.32843  24484572.3674                   24484577.8204
   4774275.66447   4587534.61344  23557814.8984                   23557817.6174
 11  7 31  2  1  0.0000000  0  9G17G10G09G12G05G02G04G27G25
 -30123285.39847 -23442319.68744  23701437.6024                   23701437.5554
 -22961312.70748 -17866550.50046  21031477.5004                   21031476.2704
  -2172901.85246   -528537.83644  24405919.7344                   24405924.3954
 -18477321.03948 -12674903.04746  21134341.6334                   21134339.6604
 -14076012.60948 -10927200.96146  21538581.6884                   21538580.3134
 -28338787.35248 -22051476.66846  20709912.1804                   20709908.0664
 -27118362.71147 -21098009.52745  22298986.0474                   22298985.3134
 -12111915.98446  -6929357.91843  24490276.2734                   24490282.4384
   4648426.91847   4489470.75444  23533866.7734                   23533868.9964
 11  7 31  2  1 30.0000000  0  9G17G10G09G12G05G02G04G27G25
 -30097134.50447 -23421942.42644  23706413.4064                   23706414.1954
 -22976251.41848 -17878191.04346  21028634.6564                   21028633.2154
  -2123972.29746   -490411.05543  24415231.8834                   24415235.8984
 -18552035.55548 -12733122.13346  21120124.0394                   21120122.0394
 -14188769.77748 -11015063.62946  21517124.4614                   21517123.5044
 -28363884.03948 -22071032.53546  20705136.2344                   20705132.7074
 -27072653.36347 -21062391.87945  22307683.7034                   22307683.6484
 -12081966.37146  -6906020.78543  24495975.5704                   24495980.7384
   4522864.15647   4391629.75444  23509972.6724                   23509975.4344
 11  7 31  2  2  0.0000000  0  9G17G10G09G12G05G02G04G27G25
 -30070800.87147 -23401422.75044  23711425.1414                   23711425.7194
 -22990555.21148 -17889336.84846  21025912.8754                   21025911.7624
  -2074999.09446   -452250.24644  24424551.1174                   24424554.8094
 -18626224.89548 -12790931.98446  21106006.0944                   21106004.3204
 -14301115.95348 -11102606.04746  21495746.0474                   21495744.9024
 -28388718.15248 -22090383.78546  20700410.5394                   20700406.8284
 -27026854.34447 -21026704.34845  22316399.2504                   22316398.8204
 -12052044.06646  -6882704.96943  24501670.2584                   24501675.3444
   4397590.09447   4294013.69944  23486133.7664                   23486136.5594
 11  7 31  2  2 30.0000000  0  9G17G10G09G12G05G02G04G27G25
 -30044277.30547 -23380755.07045  23716472.8834                   23716473.2544
 -23004218.25048 -17899983.37546  21023312.5944                   21023311.3164
  -2025978.86346   -414052.80944  24433879.0314                   24433883.3554
 -18699880.45348 -12848325.90246  21091989.8444                   21091988.2544
 -14413042.00448 -11189821.10546  21474447.1174                   21474446.3794
 -28413284.10948 -22109526.09446  20695735.5784                   20695732.0594
 -26980960.43447 -20990942.88745  22325132.7664                   22325132.5554
 -12022144.92246  -6859407.15243  24507360.3524                   24507365.1644
   4272614.02347   4196629.88344  23462351.2734                   23462353.8164
 11  7 31  2  3  0.0000000  0  9G17G10G09G12G05G02G04G27G25
 -30017558.12147 -23359934.98045  23721556.8834                   23721557.4964
 -23017235.92248 -17910127.00846  21020836.0234                   21020834.5084
  -1976909.24647   -375816.88744  24443217.7424                   24443220.8984
 -18772995.09048 -12905298.33646  21078076.1644                   21078075.1094
 -14524540.07048 -11276702.67246  21453229.6174                   21453228.9384
 -28437577.73048 -22128456.18746  20691112.5164                   20691109.3014
 -26934967.89147 -20955104.56245  22333884.3754                   22333884.4694
 -11992265.99246  -6836125.06243  24513045.2974                   24513051.2974
   4147944.14547   4099484.60944  23438627.7584                   23438630.1054
 11  7 31  2  3 30.0000000  0  9G17G10G09G12G05G02G04G27G25
 -29990647.75447 -23338965.91445  23726678.4774                   23726678.2344
 -23029613.98448 -17919772.25046  21018480.3284                   21018478.7934
  -1927798.79346   -337549.13743  24452562.6334                   24452565.8484
 -18845572.20348 -12961851.92246  21064265.9224                   21064263.6844
 -14635612.41048 -11363252.48846  21432093.4304                   21432092.8594
 -28461605.23448 -22147178.91446  20686540.7424                   20686537.0084
 -26888883.35547 -20919194.55945  22342653.6884                   22342654.0434
 -11962415.07046  -6812864.84443  24518726.8524                   24518731.9454
   4023578.14547   4002576.07444  23414961.5164                   23414963.3484
 11  7 31  2  4  0.0000000  0  9G17G10G09G12G05G02G04G27G25
 -29963554.57447 -23317854.38344  23731833.8754                   23731833.9304
 -23041361.54348 -17928926.18046  21016244.6484                   21016243.2504
  -1878658.84446   -299258.42643  24461912.9224                   24461917.5744
 -18917618.34848 -13017991.77046  21050555.9614                   21050553.7384
 -14746265.19948 -11449475.38746  21411036.6094                   21411036.1134
 -28485376.30548 -22165701.83246  20682017.1884                   20682013.4264
 -26842717.10947 -20883220.87145  22351439.8444                   22351439.4184
 -11932603.12546  -6789634.97743  24524399.2194                   24524404.9224
   3899510.22347   3905899.83645  23391351.6414                   23391353.9734
 11  7 31  2  4 30.0000000  0  9G17G10G09G12G05G02G04G27G25
 -29936278.60946 -23296600.41444  23737024.2584                   23737024.8364
 -23052479.94148 -17937589.86746  21014128.8134                   21014127.4574
  -1829493.37546   -260947.81643  24471269.5004                   24471272.9734
 -18989132.38348 -13073716.98846  21036946.9694                   21036945.6024
 -14856496.14848 -11535369.58246  21390060.7114                   21390059.5664
 -28508892.43448 -22184026.08646  20677542.2424                   20677538.4224
 -26796470.70747 -20847184.71945  22360239.7274                   22360239.6134
 -11902833.25045  -6766437.91843  24530063.8754                   24530071.1024
   3775742.61748   3809457.63745  23367800.0864                   23367802.1294
 11  7 31  2  5  0.0000000  0  9G17G10G09G12G05G02G04G27G25
 -29908816.11346 -23275201.13344  23742249.8284                   23742250.1684
 -23062966.92648 -17945761.53946  21012133.1644                   21012132.2584
  -1780302.06646   -222617.10243  24480629.7734                   24480634.3754
 -19060109.14148 -13129023.54346  21023440.5704                   21023438.8634
 -14966299.58648 -11620930.64546  21369165.3594                   21369164.2114
 -28532151.35948 -22202149.93046  20673116.2274                   20673112.2234
 -26750142.86347 -20811085.11745  22369055.6334                   22369055.6994
 -11873104.73446  -6743273.06243  24535721.7974                   24535727.8324
   3652281.27747   3713254.09445  23344305.6954                   23344308.1564
 11  7 31  2  5 30.0000000  0  8G17G10G09G12G05G02G04G25
 -29881165.46147 -23253655.19144  23747511.7664                   23747512.3524
 -23072821.80548 -17953440.65246  21010258.2814                   21010256.5664
  -1731086.43046   -184267.42243  24489995.5944                   24490000.4844
 -19130545.95748 -13183909.37946  21010037.0634                   21010035.4534
 -15075671.57048 -11706155.51646  21348353.0394                   21348351.7664
 -28555152.96548 -22220073.25446  20668738.8364                   20668735.4414
 -26703733.59447 -20774922.07445  22377887.2194                   22377886.5664
   3529130.28547   3617292.36345  23320870.7814                   23320873.1484
 11  7 31  2  6  0.0000000  0  8G17G10G09G12G05G02G04G25
 -29853322.93446 -23231959.74644  23752809.3284                   23752810.2344
 -23082042.07848 -17960625.27346  21008503.2894                   21008502.1684
  -1681846.12546   -145898.48843  24499366.1954                   24499370.6564
 -19200437.60548 -13238370.39846  20996736.9924                   20996735.4384
 -15184606.20348 -11791039.59446  21327622.8444                   21327622.4144
 -28577894.89548 -22237794.23846  20664411.3364                   20664407.7424
 -26657241.07447 -20738694.15645  22386734.7274                   22386734.0904
   3406295.82447   3521577.27745  23297495.9224                   23297498.2974
 11  7 31  2  6 30.0000000  0  8G17G10G09G12G05G02G04G25
 -29825284.56247 -23210111.72744  23758145.2034                   23758145.6374
 -23090624.93448 -17967313.19946  21006870.1024                   21006868.6414
  -1632580.88346   -107510.14543  24508740.9694                   24508745.6804
 -19269778.98448 -13292402.63346  20983542.1884                   20983540.2154
 -15293097.28148 -11875578.05146  21306977.7734                   21306977.2074
 -28600375.18048 -22255311.34046  20660133.2734                   20660129.8204
 -26610662.99647 -20702399.57045  22395598.2114                   22395597.0664
   3283784.19947   3426113.75045  23274182.4924                   23274185.1374
 11  7 31  2  7  0.0000000  0  8G17G10G09G12G05G02G04G25
 -29797057.90646 -23188117.00844  23763516.3834                   23763517.3484
 -23098579.24248 -17973511.35546  21005356.7894                   21005355.6724
  -1583301.39146    -69110.73843  24518118.8524                   24518122.8554
 -19338576.05148 -13346010.73046  20970450.0944                   20970448.5664
 -15401150.04348 -11959774.95346  21286415.7504                   21286414.8794
 -28622602.17248 -22272631.07446  20655903.7114                   20655900.4384
 -26564008.79347 -20666045.66845  22404475.9144                   22404475.6644
   3161590.32847   3330897.78944  23250930.4304                   23250931.8754
 11  7 31  2  7 30.0000000  0  8G17G10G09G12G05G02G04G25
 -29768639.57446 -23165972.89144  23768924.7344                   23768925.4694
 -23105902.54348 -17979217.82446  21003962.7504                   21003961.7934
  -1534007.80946    -30700.32443  24527499.3134                   24527503.1684
 -19406824.26648 -13399191.14546  20957463.1254                   20957461.4924
 -15508758.98848 -12043626.03146  21265938.9694                   21265937.5514
 -28644573.87548 -22289751.87146  20651722.6174                   20651719.1954
 -26517276.89847 -20629631.21545  22413368.9304                   22413368.2074
   3039720.06347   3235933.96944  23227739.1804                   23227740.4694
 11  7 31  2  8  0.0000000  0  8G17G10G09G12G05G02G04G25
 -29740035.03546 -23143683.71544  23774367.8754                   23774368.6454
 -23112602.12148 -17984438.26246  21002687.9454                   21002687.1884
  -1484709.44946      7713.79343  24536880.3984                   24536884.5944
 -19474528.16848 -13451947.43746  20944579.3134                   20944577.5824
 -15615927.60248 -12127133.99246  21245545.1724                   21245544.2584
 -28666297.53948 -22306679.40646  20647588.8054                   20647585.3484
 -26470474.84447 -20593162.11745  22422274.7344                   22422274.0314
   2918169.98047   3141219.64844  23204608.6804                   23204610.6914
 11  7 31  2  8 30.0000000  0  8G17G10G09G12G05G02G04G25
 -29711234.82847 -23121242.07044  23779848.8524                   23779848.9804
 -23118670.21148 -17989166.63746  21001533.0314                   21001532.0744
  -1435400.38746     46136.27043  24546264.0474                   24546268.3674
 -19541677.13348 -13504271.31246  20931801.1884                   20931799.4104
 -15722644.70748 -12210290.12146  21225237.8594                   21225236.3594
 -28687765.50848 -22323407.69146  20643503.4064                   20643500.2934
 -26423595.09047 -20556632.44945  22431195.7274                   22431195.0984
   2796951.77747   3046763.96544  23181541.2274                   23181543.5824
 11  7 31  2  9  0.0000000  0  8G17G10G09G12G05G02G04G25
 -29682243.83247 -23098651.75444  23785365.5704                   23785366.0274
 -23124112.62548 -17993407.46546  21000497.4144                   21000496.9304
  -1386088.46546     84560.94543  24555648.1724                   24555652.2894
 -19608274.37948 -13556165.26646  20919128.5314                   20919126.5204
 -15828912.72348 -12293096.32046  21205015.3364                   21205014.6214
 -28708983.54748 -22339941.22346  20639465.6884                   20639462.4734
 -26376644.31647 -20520047.44145  22440130.4774                   22440130.0864
   2676063.19947   2952565.16444  23158537.4384                   23158539.6604
 11  7 31  2  9 30.0000000  0  8G17G10G09G12G05G02G04G25
 -29653063.61747 -23075913.98844  23790918.2894                   23790918.7894
 -23128931.69948 -17997162.58246  20999580.2034                   20999579.4304
  -1336777.97346    122984.52043  24565031.3834                   24565035.9414
 -19674319.82848 -13607629.24646  20906560.1884                   20906558.2894
 -15934730.42648 -12375551.61746  21184878.6954                   21184877.7854
 -28729954.19948 -22356281.97746  20635475.3914                   20635472.0984
 -26329624.91847 -20483408.97745  22449077.6564                   22449077.7274
   2555505.77047   2858624.35545  23135596.3754                   23135598.7934
 11  7 31  2 10  0.0000000  0  8G17G10G09G12G05G02G04G25
 -29623692.91846 -23053027.77044  23796508.0164                   23796507.7934
 -23133128.38748 -18000432.72346  20998781.8674                   20998780.6254
  -1287472.23446    161404.32843  24574413.7814                   24574419.3094
 -19739812.06248 -13658662.15246  20894097.5084                   20894095.2934
 -16040095.43048 -12457654.16046  21164828.4534                   21164827.5044
 -28750678.58648 -22372430.84046  20631531.4304                   20631528.3164
 -26282538.43747 -20446718.21945  22458037.7894                   22458037.7704
   2435282.21147   2764943.68845  23112717.9224                   23112720.3984
 11  7 31  2 10 30.0000000  0  8G17G10G09G12G05G02G04G25
 -29594132.29747 -23029993.55144  23802132.0234                   23802133.4304
 -23136704.44147 -18003219.25846  20998101.5864                   20998099.9224
  -1238174.50046    199817.96143  24583794.4144                   24583800.6174
 -19804749.81248 -13709262.98046  20881740.3914                   20881738.3554
 -16145005.82848 -12539402.46146  21144864.6254                   21144863.3484
 -28771158.25848 -22388389.02346  20627634.4774                   20627631.0784
 -26235386.73847 -20409976.66845  22467010.9844                   22467010.7034
   2315394.75047   2671524.91845  23089904.1174                   23089906.7854
 11  7 31  2 11  0.0000000  0  8G17G10G09G12G05G02G04G25
 -29564387.98846 -23006816.25444  23807792.8284                   23807793.2664
 -23139667.49648 -18005528.13746  20997537.2114                   20997536.2894
  -1188894.26246    238217.98043  24593173.3284                   24593178.5434
 -19869138.50448 -13759435.97346  20869487.3364                   20869485.3204
 -16249465.99648 -12620799.93046  21124986.4064                   21124985.2034
 -28791401.06648 -22404162.62546  20623782.3834                   20623778.9144
 -26188177.91447 -20373190.59045  22475994.3754                   22475993.8754
   2195839.37547   2578364.91044  23067153.2894                   23067155.6914
 11  7 31  2 11 30.0000000  0  8G17G10G09G12G05G02G04G25
 -29534449.94946 -22983487.98444  23813490.1804                   23813491.0314
 -23142009.02747 -18007352.70346  20997091.8914                   20997090.6994
  -1139625.06646    276609.34043  24602549.0314                   24602554.3014
 -19932966.96148 -13809172.41446  20857341.0634                   20857339.1524
 -16353463.46548 -12701836.85946  21105196.5394                   21105195.4614
 -28811398.05948 -22419744.68446  20619977.0784                   20619973.6454
 -26140903.59847 -20336353.48445  22484990.2114                   22484990.1174
   2076628.60547   2485473.43444  23044468.4224                   23044470.4534
 11  7 31  2 12  0.0000000  0  8G17G10G09G12G05G02G04G25
 -29504319.05146 -22960009.43044  23819223.4694                   23819224.1684
 -23143731.11747 -18008694.58246  20996764.2034                   20996763.4064
  -1090370.77746    314989.05943  24611921.9384                   24611927.3954
 -19996234.42648 -13858471.73046  20845301.7034                   20845299.8874
 -16456996.98448 -12782512.27746  21085494.7814                   21085493.5744
 -28831151.53148 -22435136.99246  20616218.0784                   20616214.8014
 -26093566.14847 -20299467.19545  22493998.1884                   22493998.0354
   1957764.16447   2392851.82845  23021849.5394                   23021851.3714
 11  7 31  2 12 30.0000000  0  8G17G10G09G12G05G02G04G25
 -29474006.93046 -22936389.64844  23824991.6094                   23824992.6024
 -23144847.19147 -18009564.25446  20996551.8134                   20996550.5354
  -1041146.46546    353345.46143  24621289.3134                   24621294.1524
 -20058951.91448 -13907342.48046  20833366.9384                   20833365.1334
 -16560076.44548 -12862833.88746  21065879.0634                   21065878.6294
 -28850674.96548 -22450350.05146  20612502.7274                   20612499.4384
 -26046179.16447 -20262542.29345  22503015.7584                   22503015.4964
   1839236.62147   2300492.77045  22999295.0554                   22999296.9104
 11  7 31  2 13  0.0000000  0  8G17G10G09G12G05G02G04G25
 -29443502.55546 -22912620.05944  23830796.8204                   23830797.4414
 -23145347.56648 -18009954.15246  20996456.3284                   20996455.3164
   -991944.27746    391684.55143  24630652.2274                   24630657.0314
 -20121106.89548 -13955774.91846  20821539.4844                   20821537.5554
 -16662688.45748 -12942791.23846  21046352.7894                   21046351.9694
 -28869958.05948 -22465375.82846  20608833.2664                   20608830.1604
 -25998732.89547 -20225571.19145  22512044.6094                   22512044.1724
   1721059.65647   2208406.92245  22976805.7894                   22976808.3984
 11  7 31  2 13 30.0000000  0  8G17G10G09G12G05G02G04G25
 -29412812.30547 -22888705.61744  23836637.2274                   23836637.5984
 -23145240.57447 -18009870.77346  20996477.2114                   20996475.7664
   -942774.21546    429998.69143  24640009.1954                   24640014.2934
 -20182705.26648 -14003773.62946  20809817.6094                   20809815.5984
 -16764837.73848 -13022388.03146  21026914.4064                   21026913.2704
 -28889009.03548 -22480220.73446  20605208.1024                   20605204.9734
 -25951235.85247 -20188560.54344  22521083.1804                   22521082.8404
   1603228.82447   2116590.76245  22954383.1884                   22954385.9024
 11  7 31  2 14  0.0000000  0  8G17G10G09G12G05G02G04G25
 -29381929.25046 -22864640.95344  23842513.9304                   23842514.7114
 -23144519.94948 -18009309.24646  20996614.0084                   20996612.9694
   -893632.07046    468291.02743  24649360.8524                   24649366.4774
 -20243738.40248 -14051331.89846  20798203.2504                   20798201.2114
 -16866514.71948 -13101616.78946  21007565.6954                   21007564.4614
 -28907821.93748 -22494880.13346  20601628.1484                   20601625.0044
 -25903682.20747 -20151505.79744  22530132.7194                   22530132.2664
   1485754.14547   2025052.14545  22932028.5084                   22932030.6564
 11  7 31  2 14 30.0000000  0  8G17G10G09G12G05G02G04G25
 -29350857.53946 -22840429.26644  23848426.9304                   23848427.4104
 -23143192.29347 -18008274.70746  20996867.0784                   20996865.5274
   -844525.51246    506555.68443  24658705.2734                   24658710.6764
 -20304209.62548 -14098452.30546  20786696.1724                   20786694.2234
 -16967722.11348 -13180479.64146  20988307.0164                   20988305.6414
 -28926402.69948 -22509358.63346  20598092.5474                   20598088.6724
 -25856077.97747 -20114411.62945  22539190.7894                   22539190.8134
   1368633.44947   1933789.34045  22909740.7504                   22909743.4454
 11  7 31  2 15  0.0000000  0  8G17G10G09G12G05G02G04G25
 -29319593.79346 -22816067.95743  23854375.5704                   23854376.3404
 -23141255.46947 -18006765.50446  20997234.9064                   20997234.3984
   -795453.95346    544793.02043  24668043.5164                   24668049.2464
 -20364114.41848 -14145131.32846  20775296.5704                   20775294.8094
 -17068454.18748 -13258972.11746  20969137.7504                   20969136.7234
 -28944748.88348 -22523654.33646  20594601.2664                   20594597.7544
 -25808421.34047 -20077276.62145  22548259.4774                   22548259.4384
   1251872.58647   1842806.96145  22887522.1414                   22887523.9574
 11  7 31  2 15 30.0000000  0  8G17G10G09G12G05G02G04G25
 -29288134.94946 -22791554.64544  23860361.9064                   23860363.5234
 -23138708.19148 -18004780.60246  20997720.0164                   20997718.9264
   -746417.96546    583002.64543  24677374.7114                   24677381.7734
 -20423449.05948 -14191366.08246  20764005.3524                   20764003.6604
 -17168706.14148 -13337090.45746  20950060.6334                   20950059.1604
 -28962859.16448 -22537766.22746  20591154.8834                   20591151.3014
 -25760710.94947 -20040099.75844  22557338.5704                   22557338.4104
   1135476.93447   1752109.14845  22865372.8754                   22865375.1724
 11  7 31  2 16  0.0000000  0  8G17G10G09G12G05G02G04G25
 -29256486.78146 -22766893.74244  23866384.3754                   23866386.0824
 -23135557.54748 -18002325.56246  20998319.7974                   20998318.6024
   -697426.32446    621177.75843  24686698.1484                   24686704.2154
 -20482218.12948 -14237160.12546  20752822.0784                   20752820.0124
 -17268481.73048 -13414837.62146  20931073.9924                   20931072.6764
 -28980740.46948 -22551699.69546  20587752.0944                   20587748.9454
 -25712953.96147 -20002886.56244  22566426.6414                   22566426.0314
   1019443.18847   1661693.36345  22843292.2664                   22843294.3054
 11  7 31  2 16 30.0000000  0  8G17G10G09G12G05G02G04G25
 -29224648.53546 -22742084.81644  23872443.8594                   23872444.2384
 -23131804.08648 -17999400.78946  20999033.8754                   20999032.7304
   -648481.05146    659316.74643  24696011.4694                   24696018.3554
 -20540419.33648 -14282511.68446  20741746.6954                   20741744.9224
 -17367777.68748 -13492211.04746  20912178.2504                   20912177.3404
 -28998393.03548 -22565454.91846  20584392.8364                   20584389.6764
 -25665150.91447 -19965637.46544  22575523.5704                   22575523.0594
    903774.89847   1571562.30945  22821281.1564                   22821282.9774
 11  7 31  2 17  0.0000000  0  8G17G10G09G12G05G02G04G25
 -29192613.79746 -22717122.72344  23878539.4534                   23878540.6414
 -23127443.50048 -17996002.93046  20999863.6644                   20999862.5984
   -599579.27346    697421.79343  24705317.8754                   24705324.0784
 -20598045.61748 -14327415.23446  20730780.9304                   20730778.7624
 -17466585.93048 -13569204.43046  20893375.8134                   20893374.4224
 -29015812.33648 -22579028.37946  20581078.4144                   20581074.9534
 -25617297.28947 -19928348.96544  22584629.6484                   22584629.4654
    788480.57447   1481722.68445  22799341.4144                   22799343.5824
 11  7 31  2 17 30.0000000  0  8G17G10G09G12G05G02G04G25
 -29160394.35546 -22692016.68744  23884670.3594                   23884671.9964
 -23122489.36348 -17992142.56246  21000806.4064                   21000805.0664
   -550736.19146    735481.13343  24714611.8834                   24714618.0314
 -20655108.00848 -14371879.39146  20719922.1174                   20719920.2114
 -17564916.65648 -13645825.72746  20874664.1644                   20874662.6844
 -29033010.96548 -22592429.88346  20577805.5784                   20577801.9144
 -25569406.16447 -19891031.24244  22593743.6804                   22593743.1524
    673550.77747   1392167.09045  22777470.6564                   22777472.3244
 11  7 31  2 18  0.0000000  0  8G17G10G09G12G05G02G04G25
 -29127983.67646 -22666761.69144  23890838.8364                   23890839.6024
 -23116936.77348 -17987815.86746  21001863.1414                   21001862.1454
   -501948.03546    773497.68443  24723895.7034                   24723903.2034
 -20711599.14148 -14415898.42246  20709172.3284                   20709170.1644
 -17662760.90248 -13722067.94146  20856044.7194                   20856043.4694
 -29049983.99648 -22605655.59446  20574575.8754                   20574572.5984
 -25521472.81647 -19853680.62144  22602864.8914                   22602864.1454
    558994.57847   1302902.57845  22755671.6094                   22755672.9184
 11  7 31  2 18 30.0000000  0  8G17G10G09G12G05G02G04G25
 -29095385.87146 -22641360.85544  23897041.5004                   23897042.2704
 -23110791.52748 -17983027.35946  21003032.2344                   21003031.5474
   -453222.27746    811465.63343  24733169.0474                   24733175.5514
 -20767521.93448 -14459474.58246  20698530.3674                   20698528.6054
 -17760121.39148 -13797933.21146  20837517.8134                   20837516.7504
 -29066736.84448 -22618709.73046  20571387.7344                   20571384.2704
 -25473502.53947 -19816301.23044  22611993.2814                   22611992.6134
    444810.23847   1213927.80945  22733943.2114                   22733944.4304
 11  7 31  2 19  0.0000000  0  7G17G10G12G05G02G04G25
 -29062594.74246 -22615809.38743  23903281.5314                   23903282.2894
 -23104048.94147 -17977773.40646  21004315.3204                   21004314.3284
 -20822869.37948 -14502602.41846  20687998.3054                   20687996.2584
 -17856989.64148 -13873414.91446  20819084.1484                   20819083.2114
 -29083264.47348 -22631588.37946  20568242.2974                   20568239.3244
 -25425490.54747 -19778889.32444  22621129.1414                   22621129.0864
    331006.42647   1125249.54745  22712286.3594                   22712288.0744
 11  7 31  2 19 30.0000000  0  7G17G10G12G05G02G04G25
 -29029614.46946 -22590110.52343  23909557.5394                   23909558.0394
 -23096715.19148 -17972058.80546  21005711.3834                   21005710.0204
 -20877644.26248 -14545284.10946  20677574.9384                   20677573.0124
 -17953367.69948 -13948514.65646  20800744.2734                   20800742.8284
 -29099572.21948 -22644295.68446  20565138.9534                   20565135.9224
 -25377442.46147 -19741449.27744  22630272.5234                   22630272.3364
    217581.37547   1036866.46145  22690702.2274                   22690704.5824
 11  7 31  2 20  0.0000000  0  7G17G10G12G05G02G04G25
 -27421024.56646 -21336663.87543  24215662.1954                   24215662.7424
 -21513370.59048 -16738283.80146  21307011.6254                   21307010.4344
 -19356422.96548 -13359916.84046  20967053.6644                   20967051.6764
 -16473828.68448 -12795627.05946  21082291.0944                   21082289.5634
 -27540239.21948 -21429230.98046  20861870.3834                   20861866.8164
 -23753939.66447 -18476382.19544  22939215.1884                   22939214.4964
   1679963.12947   2176384.77045  22968984.6024                   22968986.3284
 11  7 31  2 20 30.0000000  0  7G17G10G12G05G02G04G25
 -27387655.77346 -21310662.28543  24222012.0704                   24222012.8444
 -21504849.08247 -16731643.66446  21308633.5704                   21308631.7624
 -19410040.91448 -13401697.04346  20956850.2584                   20956848.4104
 -16569210.45748 -12869950.47746  21064140.2894                   21064138.6994
 -27556100.56248 -21441590.43746  20858851.7424                   20858848.0704
 -23705813.23847 -18438881.12144  22948373.1254                   22948372.3444
   1567313.51248   2088605.89545  22947548.2894                   22947550.0554
 11  7 31  2 21  0.0000000  0  7G17G10G12G05G02G04G25
 -27354089.29346 -21284506.67244  24228399.4844                   24228400.0904
 -21495733.06248 -16724540.27046  21310368.2274                   21310366.7194
 -19463075.44948 -13443022.62546  20946758.3444                   20946756.2894
 -16664087.92648 -12943880.92246  21046085.7814                   21046084.3794
 -27571737.30548 -21453774.88346  20855876.4924                   20855872.9614
 -23657646.51247 -18401348.64145  22957539.2194                   22957538.7854
   1455058.55147   2001134.51245  22926186.5314                   22926188.2234
 11  7 31  2 21 30.0000000  0  7G17G10G12G05G02G04G25
 -27320333.04347 -21258203.15244  24234823.0474                   24234824.1294
 -21486032.09847 -16716981.07446  21312214.2504                   21312212.7734
 -19515533.59048 -13483899.07046  20936775.6094                   20936773.4614
 -16758466.91048 -13017422.93046  21028125.8204                   21028124.7384
 -27587158.33648 -21465791.23446  20852942.1094                   20852938.5864
 -23609448.55947 -18363791.81245  22966710.9694                   22966710.9614
   1343192.89547   1913966.49645  22904899.3134                   22904901.3914
 11  7 31  2 22  0.0000000  0  7G17G10G12G05G02G04G25
 -27286371.34447 -21231739.55944  24241285.6644                   24241287.1254
 -21475732.53547 -16708955.45346  21314173.8444                   21314172.9264
 -19567399.24248 -13524313.85546  20926905.9844                   20926904.2194
 -16852330.33648 -13090563.21546  21010264.3444                   21010263.5124
 -27602349.78948 -21477628.71946  20850051.1024                   20850047.7154
 -23561205.20347 -18326199.60244  22975891.3984                   22975891.2194
   1231734.36347   1827115.73445  22883689.2664                   22883691.7584
 11  7 31  2 22 30.0000000  0  7G17G10G12G05G02G04G25
 -27252222.47747 -21205130.11344  24247784.2664                   24247784.8754
 -21464854.17248 -16700478.82046  21316244.0784                   21316242.6764
 -19618689.37948 -13564280.19946  20917145.7814                   20917143.8834
 -16945694.24248 -13163314.26646  20992497.7504                   20992496.8484
 -27617330.82048 -21489302.22746  20847200.0554                   20847196.7274
 -23512935.87147 -18288587.15644  22985076.4304                   22985076.9024
   1120667.36347   1740570.06345  22862554.0864                   22862555.8954
 11  7 31  2 23  0.0000000  0  7G17G10G12G05G02G04G25
 -27217883.35546 -21178372.41843  24254318.7814                   24254318.8324
 -21453396.35248 -16691550.66446  21318424.1644                   21318423.2234
 -19669400.64548 -13603795.46546  20907495.5704                   20907493.5044
 -17038554.02748 -13235672.49246  20974827.1484                   20974825.7504
 -27632099.59048 -21500810.34446  20844389.7034                   20844386.1764
 -23464638.81247 -18250953.10544  22994267.0164                   22994266.8244
   1009997.18047   1654333.61745  22841494.3914                   22841496.1254
 11  7 31  2 23 30.0000000  0  7G17G10G12G05G02G04G25
 -27183351.70747 -21151464.70743  24260889.5864                   24260890.4734
 -21441358.41047 -16682170.46146  21320715.3134                   21320713.8244
 -19719529.64848 -13642857.02346  20897956.1954                   20897954.7624
 -17130905.41448 -13307634.55546  20957253.3594                   20957251.6334
 -27646654.98048 -21512152.18746  20841619.7114                   20841615.9104
 -23416313.26247 -18213296.85544  23003463.5864                   23003463.4064
    899728.65247   1568410.10945  22820510.6644                   22820512.4184
 11  7 31  2 24  0.0000000  0  7G17G10G12G05G02G04G25
 -27148626.51246 -21124406.14543  24267497.3204                   24267498.4344
 -21428741.14547 -16672338.84046  21323116.3364                   21323115.1374
 -19769074.59448 -13681463.47746  20888528.3984                   20888526.5704
 -17222745.69948 -13379198.36346  20939776.5704                   20939775.2584
 -27660997.27348 -21523327.98046  20838890.8284                   20838887.2114
 -23367959.41047 -18175618.55545  23012665.2194                   23012664.2074
    789865.14547   1482802.21945  22799604.6804                   22799606.1684
 11  7 31  2 24 30.0000000  0  7G17G10G12G05G02G04G25
 -27113715.85546 -21097203.08643  24274140.9064                   24274141.5944
 -21415554.69547 -16662063.68446  21325625.3364                   21325623.8874
 -19818042.84448 -13719620.55546  20879210.1484                   20879208.2274
 -17314080.84048 -13450368.54746  20922395.8444                   20922394.7344
 -27675135.59048 -21534344.83646  20836200.3754                   20836196.5234
 -23319586.56647 -18137925.43044  23021869.7114                   23021869.7234
    680401.07447   1397505.58645  22778774.2274                   22778775.3874
 11  7 31  2 25  0.0000000  0  7G17G10G12G05G02G04G25
 -27078614.60547 -21069851.51643  24280820.8134                   24280821.7854
 -21401795.65647 -16651342.37146  21328243.8444                   21328242.3094
 -19866428.85548 -13757323.94546  20870002.5704                   20870000.7304
 -17404904.02048 -13521139.80546  20905112.9384                   20905111.7114
 -27689065.98048 -21545199.67246  20833549.5634                   20833545.7774
 -23271190.82447 -18100214.46944  23031079.1804                   23031078.9734
    571343.99648   1312526.05945  22758021.4534                   22758023.2234
 11  7 31  2 25 30.0000000  0  7G17G10G12G05G02G04G25
 -27043317.05546 -21042346.97744  24287538.2504                   24287539.2384
 -21387460.07047 -16640171.80546  21330971.6564                   21330970.6214
 -19914225.55948 -13794568.13346  20860907.0164                   20860905.4144
 -17495207.73048 -13591506.27046  20887928.8444                   20887927.2504
 -27702783.60948 -21555888.72346  20830939.0164                   20830935.1884
 -23222767.35547 -18062481.91444  23040293.8914                   23040293.5124
    462702.18847   1227870.15245  22737346.8054                   22737349.1954
 11  7 31  2 26  0.0000000  0  7G17G10G12G05G02G04G25
 -27007829.82047 -21014694.59843  24294291.1484                   24294292.1414
 -21372556.68047 -16628558.80545  21333807.8834                   21333806.4844
 -19961439.43748 -13831358.15246  20851922.7344                   20851920.9574
 -17584996.91048 -13661471.81246  20870842.4454                   20870841.0234
 -27716296.32048 -21566418.09446  20828367.6724                   20828364.1334
 -23174324.25847 -18024734.05544  23049512.3914                   23049512.5354
    354471.39548   1143534.50845  22716751.9144                   22716753.3444
 11  7 31  2 26 30.0000000  0  7G17G10G12G05G02G04G25
 -26972154.06646 -20986895.33644  24301079.8754                   24301081.1094
 -21357088.87147 -16616505.98045  21336751.1484                   21336750.1564
 -20008070.90648 -13867694.35946  20843048.8984                   20843047.0984
 -17674270.95748 -13731035.94946  20853854.2194                   20853852.6764
 -27729606.64148 -21576789.75846  20825834.7034                   20825831.0944
 -23125864.00447 -17986972.80544  23058733.8914                   23058733.9454
    246652.73047   1059519.98045  22696234.6644                   22696236.1604
 11  7 31  2 27  0.0000000  0  7G17G10G12G05G02G04G25
 -26936281.70346 -20958942.89543  24307906.3984                   24307906.9734
 -21341050.09447 -16604008.25845  21339803.2344                   21339801.8634
 -20054111.16848 -13903569.89146  20834287.5314                   20834286.0784
 -17763019.78548 -13800190.82846  20836965.4384                   20836964.5514
 -27742707.58248 -21586998.28546  20823341.8524                   20823338.1644
 -23077379.46147 -17949192.65244  23067960.2814                   23067960.6254
    139256.87148    975834.93445  22675797.8134                   22675799.3204
 11  7 31  2 27 30.0000000  0  7G17G10G12G05G02G04G25
 -26900216.97346 -20930840.60243  24314769.3674                   24314770.0824
 -21324446.19547 -16591070.16446  21342962.8364                   21342961.4024
 -20099563.82048 -13938987.52046  20825638.2734                   20825636.5634
 -17851245.97348 -13868938.46146  20820176.0314                   20820175.6024
 -27755604.19948 -21597047.58646  20820887.4454                   20820883.8834
 -23028875.93047 -17911397.69544  23077189.7974                   23077190.5594
     32282.07447    892477.95745  22655440.7114                   22655442.6054
 11  7 31  2 28  0.0000000  0  8G17G10G29G12G05G02G04G25
 -26863965.47346 -20902592.75844  24321667.7584                   24321668.4344
 -21307285.17647 -16577697.97346  21346228.6414                   21346227.6724
  10805622.59856   8443639.07452  24684599.1094                   24684602.0664
 -20144433.59848 -13973950.97346  20817100.0634                   20817097.8634
 -17938953.48848 -13937281.91846  20803486.2424                   20803485.0944
 -27768303.07448 -21606942.78946  20818470.9694                   20818467.3284
 -22980360.12547 -17873593.19144  23086422.1484                   23086422.1094
    -74274.82047    809446.62945  22635163.8204                   22635165.5784
 11  7 31  2 28 30.0000000  0  8G17G10G29G12G05G02G04G25
 -26827529.33646 -20874201.03544  24328601.5704                   24328602.2194
 -21289571.32048 -16563894.98446  21349599.4384                   21349598.7114
  10691544.94946   8354747.50843  24662891.8834                   24662893.4384
 -20188721.93448 -14008461.35246  20808672.5084                   20808670.1454
 -18026142.78948 -14005221.58646  20786894.3204                   20786893.3754
 -27780807.73848 -21616686.67646  20816091.3524                   20816087.9184
 -22931835.66047 -17835781.94544  23095656.8284                   23095656.2504
   -180413.78148    726740.94945  22614966.1724                   22614968.2624
 11  7 31  2 29  0.0000000  0  8G17G10G29G12G05G02G04G25
 -26790908.36347 -20845665.25043  24335570.6334                   24335571.2114
 -21271306.60947 -16549662.76246  21353075.0634                   21353074.0554
  10577398.38746   8265802.25043  24641169.8674                   24641172.9964
 -20232428.61348 -14042518.47746  20800355.4774                   20800353.0704
 -18112811.84048 -14072755.84846  20770402.2034                   20770400.7194
 -27793119.38348 -21626280.14146  20813748.8444                   20813744.8164
 -22883303.12547 -17797964.39844  23104891.9384                   23104891.8364
   -286132.19147    644362.98845  22594848.5084                   22594850.4144
 11  7 31  2 29 30.0000000  0  8G17G10G29G12G05G02G04G25
 -26754104.91846 -20816987.28543  24342573.5704                   24342575.1644
 -21252495.01248 -16535004.40246  21356654.8834                   21356653.8404
  10463181.44546   8176802.16843  24619434.8914                   24619437.2854
 -20275555.25848 -14076123.63346  20792148.4304                   20792146.3594
 -18198961.60948 -14139885.49646  20754008.2734                   20754007.0514
 -27805241.12148 -21635725.64546  20811441.8674                   20811438.0394
 -22834766.19947 -17760143.43444  23114128.3674                   23114128.4924
   -391429.94147    562312.81645  22574811.2194                   22574813.1214
 11  7 31  2 30  0.0000000  0  8G17G10G29G12G05G02G04G25
 -26717116.49246 -20788165.16443  24349612.7734                   24349613.6454
 -21233135.88747 -16519919.36346  21360338.4844                   21360337.5744
  10348897.28546   8087749.67243  24597687.6414                   24597689.4694
 -20318098.49248 -14109274.17646  20784052.7734                   20784050.6294
 -18284587.75848 -14206607.11746  20737714.3524                   20737712.6214
 -27817171.28948 -21645021.86346  20809171.5474                   20809167.7934
 -22786223.18747 -17722317.71544  23123365.5864                   23123365.5634
   -496302.00047    480594.36345  22554854.4384                   22554856.8284
 11  7 31  2 30 30.0000000  0  8G17G10G29G12G05G02G04G25
 -26679937.62546 -20759194.66443  24356686.9224                   24356687.9534
 -21213226.31247 -16504405.43046  21364127.3364                   21364126.4844
  10234551.59846   7998649.24743  24575927.8364                   24575929.6844
 -20360052.62148 -14141965.69146  20776069.2734                   20776066.9144
 -18369683.20348 -14272915.20746  20721521.0704                   20721519.6214
 -27828905.65648 -21654165.50446  20806938.5164                   20806935.2544
 -22737669.86347 -17684483.95744  23132604.7664                   23132604.5594
   -600740.51647    399213.70745  22534980.9384                   22534982.4494
 11  7 31  2 31  0.0000000  0  8G17G10G29G12G05G02G04G25
 -26642573.87546 -20730080.07043  24363797.1174                   24363797.7424
 -21192773.65647 -16488468.29346  21368019.3594                   21368018.1564
  10120139.83646   7909497.34043  24554156.3594                   24554158.9024
 -20401422.79748 -14174202.16046  20768196.3054                   20768194.6644
 -18454251.62548 -14338812.63346  20705428.1334                   20705427.0044
 -27840450.78548 -21663161.68446  20804741.7274                   20804738.0124
 -22689112.72747 -17646647.25044  23141844.3914                   23141845.5354
   -704748.68447    318168.40245  22515188.5394                   22515191.0354
 11  7 31  2 31 30.0000000  0  8G17G10G29G12G05G02G04G25
 -26605017.02746 -20700815.03543  24370944.4144                   24370944.6644
 -21171771.66847 -16472103.10946  21372016.2894                   21372014.9224
  10005670.20746   7820300.36743  24532373.9224                   24532375.7854
 -20442200.27748 -14205976.79746  20760436.8054                   20760434.6294
 -18538283.64148 -14404292.07846  20689437.4144                   20689435.8484
 -27851799.48048 -21672004.80546  20802582.2034                   20802578.1214
 -22640544.71547 -17608802.09444  23151087.3984                   23151087.7114
   -808316.02747    237466.62145  22495479.7034                   22495482.1334
 11  7 31  2 32  0.0000000  0  8G17G10G29G12G05G02G04G25
 -26567271.76646 -20671403.20343  24378126.6484                   24378127.0164
 -21150227.46947 -16455315.41845  21376115.3594                   21376114.2934
   9891139.02746   7731055.43843  24510578.2504                   24510580.9964
 -20482389.08248 -14237292.71546  20752788.7974                   20752787.5394
 -18621781.94148 -14469355.65246  20673548.1094                   20673546.8284
 -27862957.50048 -21680699.34446  20800458.6884                   20800455.1684
 -22591971.50047 -17570952.87144  23160330.4694                   23160330.4344
   -911444.85548    157106.54345  22475855.4844                   22475857.2584
 11  7 31  2 32 30.0000000  0  8G17G10G29G12G05G02G04G25
 -26529341.03546 -20641846.86743  24385345.3754                   24385345.9774
 -21128145.43047 -16438108.62545  21380317.7344                   21380316.2734
   9776544.38346   7641761.03143  24488771.4534                   24488774.1604
 -20521991.21948 -14268151.50446  20745252.9924                   20745251.0164
 -18704747.61348 -14534004.18046  20657760.4534                   20657759.0004
 -27873928.41448 -21689248.08246  20798370.8524                   20798367.3284
 -22543396.38347 -17533102.16444  23169574.2814                   23169574.6174
  -1014135.12547     77088.18845  22456314.2424                   22456316.0084
 11  7 31  2 33  0.0000000  0  8G17G10G29G12G05G02G04G25
 -26491216.79346 -20612139.71943  24392600.0314                   24392601.3954
 -21105519.91047 -16420478.33645  21384623.1564                   21384622.0314
   9661894.51646   7552423.57843  24466954.4224                   24466956.4804
 -20560998.30548 -14298546.61746  20737830.1884                   20737828.4654
 -18787171.41448 -14598230.47346  20642075.3834                   20642074.2584
 -27884705.55148 -21697645.82446  20796320.3674                   20796316.7074
 -22494812.83247 -17495244.89844  23178819.4384                   23178819.3014
  -1116376.92648     -2580.71145  22436858.4224                   22436860.2234
 11  7 31  2 33 30.0000000  0  8G17G10G29G12G05G02G04G25
 -26452904.07346 -20582285.74443  24399891.1414                   24399891.5704
 -21082358.02047 -16402430.08645  21389030.6484                   21389029.6564
   9547185.26246   7463039.87443  24445126.2664                   24445128.0864
 -20599415.59848 -14328482.15246  20730519.3834                   20730517.6134
 -18869056.92648 -14662037.32446  20626493.1804                   20626491.5984
 -27895294.70748 -21705897.09446  20794305.0864                   20794301.6174
 -22446226.56247 -17457385.48844  23188065.0164                   23188065.1374
  -1218172.74248    -81902.06245  22417487.1724                   22417488.8634
 11  7 31  2 34  0.0000000  0  8G17G10G29G12G05G02G04G25
 -26414401.80146 -20552284.01644  24407217.5234                   24407218.6214
 -21058661.17647 -16383965.00445  21393540.2114                   21393538.9384
   9432418.23046   7373611.07843  24423286.1174                   24423288.0824
 -20637241.73847 -14357957.04746  20723321.3834                   20723319.3444
 -18950401.17248 -14725422.40646  20611013.8134                   20611012.4344
 -27905696.01248 -21714001.99246  20792325.8134                   20792322.5824
 -22397637.59047 -17419523.96544  23197311.5784                   23197311.1564
  -1319519.20348   -160873.27045  22398201.2894                   22398202.7424
 11  7 31  2 34 30.0000000  0  8G17G10G29G12G05G02G04G25
 -26375712.79346 -20522136.78143  24414579.7584                   24414580.7344
 -21034434.37547 -16365086.94945  21398150.3364                   21398149.3404
   9317591.27746   7284135.56343  24401436.3204                   24401438.0704
 -20674478.90248 -14386973.00846  20716235.8914                   20716233.6374
 -19031205.59048 -14788386.84846  20595637.1334                   20595635.1414
 -27915912.97348 -21721963.25446  20790381.5554                   20790378.2194
 -22349049.74647 -17381663.33244  23206557.5394                   23206557.4414
  -1420416.84047   -239494.73845  22379001.0944                   22379003.1604
 11  7 31  2 35  0.0000000  0  8G17G10G29G12G05G02G04G25
 -26336834.63746 -20491842.19944  24421977.8054                   24421979.4574
 -21009676.51247 -16345795.10545  21402861.2194                   21402860.7624
   9202707.98046   7194616.16443  24379574.3594                   24379576.2304
 -20711123.80948 -14415527.46946  20709261.7734                   20709259.8714
 -19111465.94548 -14850927.33646  20580364.1644                   20580362.5474
 -27925943.80548 -21729779.46546  20788472.8054                   20788469.2424
 -22300460.79346 -17343801.84044  23215803.4304                   23215803.1804
  -1520860.44147   -317762.38745  22359887.1024                   22359888.9184
 11  7 31  2 35 30.0000000  0  8G17G10G29G12G05G02G04G25
 -26297771.77747 -20461403.68044  24429411.5234                   24429412.6094
 -20984394.71547 -16326094.97345  21407672.3594                   21407671.4574
   9087764.32847   7105049.79343  24357701.4454                   24357703.8554
 -20747180.77748 -14443623.81246  20702400.8834                   20702398.7464
 -19191185.36348 -14913046.31646  20565193.9064                   20565192.2114
 -27935793.96148 -21737454.88346  20786598.3914                   20786594.7934
 -22251876.62947 -17305944.07044  23225048.5164                   23225048.5514
  -1620852.37947   -395678.10545  22340859.6564                   22340860.5704
 11  7 31  2 36  0.0000000  0  8G17G10G29G12G05G02G04G25
 -26258524.08246 -20430821.03944  24436880.3674                   24436880.9454
 -20958590.81248 -16305988.02045  21412582.8754                   21412581.9964
   8972761.55546   7015437.31343  24335816.3204                   24335819.1804
 -20782649.36748 -14471261.67246  20695651.3524                   20695649.3554
 -19270362.10548 -14974742.43746  20550127.3524                   20550125.6994
 -27945464.50448 -21744990.36346  20784758.3754                   20784754.7154
 -22203298.09446 -17268090.70744  23234292.7274                   23234292.6024
  -1720390.05948   -473239.87545  22321917.8524                   22321919.7304
 11  7 31  2 36 30.0000000  0  8G17G10G29G12G05G02G04G25
 -26219087.59046 -20400091.35943  24444384.7424                   24444385.5554
 -20932263.34047 -16285473.09045  21417592.9694                   21417591.7154
   8857703.56646   6925781.84043  24313921.3834                   24313923.5554
 -20817525.56648 -14498437.94146  20689014.8834                   20689012.6374
 -19348991.24648 -15036011.85546  20535164.3674                   20535162.9384
 -27954952.70348 -21752383.75446  20782952.5634                   20782949.1374
 -22154721.98046 -17230239.21544  23243536.5784                   23243536.3794
  -1819467.55148   -550443.02345  22303064.1174                   22303065.6214
 11  7 31  2 37  0.0000000  0  7G10G29G12G05G02G04G25
 -20905412.50447 -16264550.34445  21422702.3984                   21422700.9304
   8742593.10346   6836085.48043  24292016.4384                   24292018.7624
 -20851807.21148 -14525150.91046  20682491.0234                   20682488.6644
 -19427069.30948 -15096851.85946  20520306.6954                   20520305.1724
 -27964257.46148 -21759634.19946  20781181.8364                   20781178.3244
 -22106147.30546 -17192388.85944  23252779.9924                   23252779.3834
  -1918080.48447   -627284.18045  22284298.4304                   22284300.4224
 11  7 31  2 37 30.0000000  0  7G10G29G12G05G02G04G25
 -20878048.97347 -16243228.08645  21427909.4064                   21427908.7424
   8627422.58246   6746342.34443  24270100.4774                   24270102.4804
 -20885502.19948 -14551406.75846  20676079.1644                   20676077.2974
 -19504602.98448 -15157267.66447  20505552.4384                   20505550.6884
 -27973387.79348 -21766748.73846  20779444.4614                   20779440.6334
 -22057583.02746 -17154546.57044  23262021.3754                   23262020.6764
  -2016234.75848   -703767.95745  22265620.4304                   22265621.8754
 11  7 31  2 38  0.0000000  0  7G10G29G12G05G02G04G25
 -20850160.92647 -16221497.13345  21433216.5784                   21433215.3094
   8512207.72746   6656564.68044  24248175.7584                   24248177.6804
 -20918596.34048 -14577194.39846  20669781.8524                   20669779.4654
 -19581576.99248 -15217247.36746  20490904.6414                   20490903.2504
 -27982330.49248 -21773717.06646  20777742.9454                   20777739.3714
 -22009016.16846 -17116702.23043  23271263.2894                   23271262.9024
  -2113914.18748   -779881.72345  22247032.4304                   22247034.4574
 11  7 31  2 38 30.0000000  0  7G10G29G12G05G02G04G25
 -20821754.32848 -16199362.10245  21438621.4614                   21438620.4964
   8396944.89146   6566749.62143  24226241.4064                   24226243.6414
 -20951093.18048 -14602516.61346  20663597.6644                   20663596.0204
 -19657993.28948 -15276792.48846  20476363.2344                   20476361.7934
 -27991090.52048 -21780543.05946  20776076.0634                   20776072.5784
 -21960451.01646 -17078859.23843  23280505.3674                   23280505.0664
  -2211120.17648   -855626.57045  22228534.8674                   22228536.1844
 11  7 31  2 39  0.0000000  0  7G10G29G12G05G02G04G25
 -20792834.88347 -16176827.46545  21444124.8984                   21444123.7974
   8281631.18047   6476894.90644  24204298.1174                   24204300.4064
 -20982996.66848 -14627376.48046  20657526.6174                   20657524.6604
 -19733854.78948 -15335905.30146  20461927.1254                   20461925.8954
 -27999672.16448 -21787230.04746  20774442.6644                   20774438.9964
 -21911892.19146 -17041021.20743  23289745.4304                   23289745.0044
  -2307854.10247   -931003.58245  22210126.7664                   22210128.3914
 11  7 31  2 39 30.0000000  0  7G10G29G12G05G02G04G25
 -20763400.05547 -16153891.22345  21449726.2664                   21449725.4224
   8166272.74247   6387005.31343  24182345.5394                   24182347.9654
 -21014300.91048 -14651769.38746  20651569.8134                   20651567.6214
 -19809155.00848 -15394580.75046  20447597.7894                   20447596.2814
 -28008071.49648 -21793774.97346  20772844.0864                   20772840.7894
 -21863335.62546 -17003184.91443  23298984.6954                   23298985.1484
  -2404108.75047  -1006007.11345  22191810.2664                   22191811.2074
 11  7 31  2 40  0.0000000  0  7G10G29G12G05G02G04G25
 -20733455.11347 -16130557.50445  21455424.4064                   21455423.4344
   8050866.95747   6297078.85244  24160385.4144                   24160386.8444
 -21045009.31648 -14675698.01646  20645725.9694                   20645724.2344
 -19883895.50848 -15452820.06646  20433375.6564                   20433373.8244
 -28016292.42648 -21800180.89546  20771280.0394                   20771276.5084
 -21814785.00446 -16965353.27043  23308224.3284                   23308224.2664
  -2499884.97748  -1080637.86746  22173584.5784                   22173586.0234
 11  7 31  2 40 30.0000000  0  7G10G29G12G05G02G04G25
 -20703003.97348 -16106829.35545  21461219.5474                   21461218.1954
   7935413.43447   6207115.20744  24138414.6804                   24138416.9884
 -21075123.16848 -14699163.36346  20639995.6414                   20639993.5434
 -19958076.82848 -15510623.65246  20419259.2344                   20419257.7624
 -28024337.31248 -21806449.64846  20769749.2274                   20769745.8484
 -21766242.49246 -16927527.96943  23317462.0314                   23317461.7304
  -2595181.94147  -1154895.16845  22155449.6334                   22155451.6414
 11  7 31  2 41  0.0000000  0  7G10G29G12G05G02G04G25
 -20672053.83648 -16082712.35945  21467108.7504                   21467107.3754
   7819908.18847   6117111.26244  24116434.5164                   24116436.6214
 -21104647.18748 -14722169.07446  20634376.9844                   20634375.3364
 -20031702.12948 -15567993.97747  20405248.5314                   20405247.2154
 -28032211.64848 -21812585.50446  20768251.0864                   20768247.2304
 -21717713.85946 -16889713.43443  23326696.5634                   23326696.0554
  -2690002.26247  -1228781.07445  22137406.3134                   22137407.8054
 11  7 31  2 41 30.0000000  0  7G10G29G12G05G02G04G25
 -20640605.44948 -16058207.12145  21473093.7894                   21473092.3484
   7704353.25847   6027068.59444  24094445.2734                   24094447.2194
 -21133580.12548 -14744714.21146  20628871.2584                   20628869.2504
 -20104768.63348 -15624928.86746  20391344.2194                   20391343.1294
 -28039914.99248 -21818588.10946  20766784.8674                   20766781.2504
 -21669198.26246 -16851909.07043  23335928.3674                   23335928.2664
  -2784342.34048  -1302292.76645  22119453.9534                   22119455.7194
 11  7 31  2 42  0.0000000  0  7G10G29G12G05G02G04G25
 -20608656.32048 -16033311.68045  21479173.2194                   21479171.8284
   7588754.50047   5936991.77044  24072447.2814                   24072449.3284
 -21161917.01248 -14766794.87546  20623479.0704                   20623476.8284
 -20177270.61748 -15681423.87146  20377547.5634                   20377546.1254
 -28047443.60548 -21824454.57046  20765352.2034                   20765348.6884
 -21620691.85947 -16814111.87143  23345159.3444                   23345159.3674
  -2878195.27048  -1375424.84845  22101593.9384                   22101595.3324
 11  7 31  2 42 30.0000000  0  7G10G29G12G05G02G04G25
 -20576212.39147 -16008030.68745  21485346.3134                   21485345.7194
   7473109.17246   5846878.66044  24050441.2584                   24050443.0044
 -21189661.12148 -14788413.64546  20618199.6644                   20618197.3204
 -20249210.54348 -15737480.92246  20363857.8444                   20363856.2974
 -28054801.60248 -21830188.08246  20763951.8284                   20763948.2464
 -21572198.52347 -16776324.83243  23354387.3594                   23354387.1294
  -2971562.28947  -1448178.29745  22083826.5944                   22083828.7344
 11  7 31  2 43  0.0000000  0  7G10G29G12G05G02G04G25
 -18967859.75448 -14754768.89845  21791406.6414                   21791405.4304
   8932839.58246   6984331.12144  24328218.4774                   24328219.7734
 -19641394.00848 -13581971.71546  20912824.9534                   20912823.3524
 -18745167.21548 -14565499.05946  20650068.0474                   20650066.0984
 -26486572.25848 -20608191.19946  21062376.0944                   21062372.1294
 -19948303.40646 -15510952.01243  23663403.5394                   23663403.9454
  -1489020.71548   -292951.03145  22365945.4144                   22365946.2424
 11  7 31  2 43 30.0000000  0  7G10G29G12G05G02G04G25
 -18934436.65647 -14728724.91445  21797766.0634                   21797765.3284
   8817100.73846   6894145.20743  24306193.9384                   24306194.7034
 -19667956.60248 -13602669.81246  20907770.4384                   20907768.4494
 -18815982.48448 -14620679.73447  20636592.4614                   20636590.5594
 -26493595.05148 -20613663.50846  21061039.8204                   21061036.1604
 -19899842.14546 -15473190.01643  23672625.7894                   23672626.2234
  -1581412.69148   -364944.71545  22348363.5634                   22348364.9304
 11  7 31  2 44  0.0000000  0  7G10G29G12G05G02G04G25
 -18900523.35548 -14702298.96545  21804219.7194                   21804218.7424
   8701320.77746   6803927.28543  24284160.8594                   24284163.1844
 -19693924.27048 -13622904.33246  20902828.6254                   20902826.9184
 -18886229.14148 -14675417.34447  20623224.5164                   20623222.9614
 -26500446.97748 -20619002.68746  21059735.4924                   21059732.1134
 -19851393.53146 -15435437.87143  23681845.0394                   23681845.6644
  -1673309.53548   -436552.57846  22330876.1484                   22330877.8524
 11  7 31  2 44 30.0000000  0  7G10G29G12G05G02G04G25
 -18866126.68048 -14675496.35945  21810765.4144                   21810763.9414
   8585495.95346   6713674.38343  24262120.0634                   24262121.8444
 -19719301.02748 -13642678.40246  20898000.0004                   20897997.9734
 -18955910.94948 -14729714.80547  20609964.3594                   20609963.1214
 -26507133.64548 -20624213.09446  21058463.2034                   21058459.6884
 -19802962.96146 -15397699.80143  23691061.4844                   23691061.3794
  -1764713.81248   -507776.62545  22313482.5084                   22313483.8164
 11  7 31  2 45  0.0000000  0  7G10G29G12G05G02G04G25
 -18831252.30548 -14648321.49645  21817401.6414                   21817400.5394
   8469623.82446   6623384.62143  24240070.0084                   24240071.8954
 -19744091.39148 -13661995.53146  20893282.5394                   20893280.3984
 -19025030.35248 -14783574.03147  20596811.5234                   20596809.8674
 -26513659.23448 -20629297.96146  21057221.5084                   21057218.0164
 -19754554.48446 -15359978.93043  23700272.9384                   23700272.8054
  -1855626.96948   -578617.98045  22296182.2664                   22296183.0164
 11  7 31  2 45 30.0000000  0  7G10G29G12G05G02G04G25
 -18795904.85247 -14620778.01645  21824128.3054                   21824127.0314
   8353703.28146   6533057.15243  24218011.7664                   24218013.2974
 -19768296.98448 -13680857.01646  20888676.1254                   20888674.2344
 -19093588.06648 -14836995.57846  20583765.4844                   20583763.6844
 -26520026.55548 -20634259.52046  21056009.9694                   21056006.4184
 -19706170.81246 -15322277.39543  23709481.0784                   23709480.3714
  -1946048.70348   -649076.42246  22278976.0944                   22278977.1884
 11  7 31  2 46  0.0000000  0  7G10G29G12G05G02G04G25
 -18760081.04747 -14592863.34845  21830945.1254                   21830944.0434
   8237741.11346   6442697.19543  24195944.9064                   24195946.1094
 -19791912.59048 -13699258.76246  20884182.0704                   20884180.1644
 -19161577.28948 -14889974.14847  20570827.5004                   20570825.8554
 -26526230.66048 -20639093.89146  21054829.3524                   21054825.7894
 -19657806.67246 -15284591.05943  23718683.9384                   23718683.8094
  -2035971.35248   -719145.95346  22261863.6484                   22261864.6214
 11  7 31  2 46 30.0000000  0  7G10G29G12G05G02G04G25
 -18723777.71947 -14564575.03945  21837853.5634                   21837852.5744
   8121743.69546   6352309.77044  24173870.8914                   24173872.0984
 -19814932.79748 -13717196.56646  20879801.3674                   20879799.4734
 -19228991.77748 -14942504.87947  20557998.8674                   20557997.2664
 -26532266.89848 -20643797.45746  21053680.6804                   21053677.1254
 -19609457.42246 -15246916.32443  23727884.4454                   23727884.5394
  -2125387.37548   -788820.70346  22244848.1254                   22244849.5944
 11  7 31  2 47  0.0000000  0  7G10G29G12G05G02G04G25
 -18686999.00847 -14535916.28545  21844852.3674                   21844850.9144
   8005710.37546   6261894.39144  24151790.5164                   24151790.9804
 -19837359.39548 -13734671.80946  20875534.0004                   20875532.0434
 -19295832.03948 -14994588.14847  20545279.6414                   20545278.2234
 -26538137.71948 -20648372.10946  21052563.2504                   21052559.9884
 -19561125.12147 -15209254.84043  23737081.7034                   23737081.7304
  -2214296.31248   -858100.32445  22227929.5474                   22227930.4064
 11  7 31  2 47 30.0000000  0  7G10G29G12G05G02G04G25
 -18649763.00847 -14506901.22345  21851937.7114                   21851936.8834
   7889626.48846   6171439.60544  24129700.0234                   24129700.7504
 -19859208.21548 -13751696.84846  20871376.2894                   20871374.1174
 -19362112.64848 -15046235.33247  20532666.5234                   20532665.2074
 -26543859.57048 -20652830.70746  21051474.5474                   21051471.0274
 -19512826.07847 -15171619.21143  23746273.2814                   23746272.7934
  -2302711.68448   -926995.36346  22211104.6644                   22211105.7074
 11  7 31  2 48  0.0000000  0  7G10G29G12G05G02G04G25
 -18612063.97747 -14477525.36345  21859111.9534                   21859110.9344
   7773501.73046   6080952.94143  24107602.2424                   24107603.0704
 -19880470.68048 -13768264.98846  20867330.0314                   20867328.2304
 -19427824.21948 -15097439.11347  20520162.2734                   20520160.5984
 -26549424.46148 -20657166.98046  21050416.0084                   21050412.5984
 -19464552.35247 -15134003.34443  23755459.8444                   23755458.9804
  -2390622.97348   -995497.61746  22194375.9694                   22194376.6884
 11  7 31  2 48 30.0000000  0  7G10G29G12G05G02G04G25
 -18573901.14547 -14447788.09045  21866374.2974                   21866373.1644
   7657340.02746   5990437.51643  24085497.0314                   24085497.8014
 -19901144.56248 -13784374.49646  20863395.8524                   20863393.8094
 -19492962.68448 -15148196.31247  20507766.7194                   20507765.0394
 -26554830.37148 -20661379.36346  21049386.6804                   21049383.6804
 -19416301.75046 -15096405.52343  23764641.0234                   23764640.2734
  -2478025.21548  -1063603.20346  22177743.7114                   22177744.5984
 11  7 31  2 49  0.0000000  0  7G10G29G12G05G02G04G25
 -18535269.88747 -14417685.82045  21873725.3914                   21873724.1334
   7541149.21547   5899899.34444  24063386.6954                   24063387.8054
 -19921223.60248 -13800020.48446  20859574.7734                   20859572.8914
 -19557520.56248 -15198501.10247  20495481.9924                   20495480.5744
 -26560071.01648 -20665462.97346  21048389.7344                   21048385.8324
 -19368067.66846 -15058820.52743  23773819.4304                   23773818.8014
  -2564909.55148  -1131305.22746  22161209.8524                   22161211.4414
 11  7 31  2 49 30.0000000  0  7G10G29G12G05G02G04G25
 -18496179.67248 -14387225.91045  21881163.9144                   21881162.5744
   7424923.34847   5809333.89144  24041269.5474                   24041270.4774
 -19940714.80948 -13815208.41846  20855865.8834                   20855863.9264
 -19621503.61748 -15248357.99247  20483305.9844                   20483304.8674
 -26565154.07048 -20669423.78946  21047422.7424                   21047418.8554
 -19319857.73046 -15021254.34043  23782993.3134                   23782993.1644
  -2651280.85548  -1198607.48046  22144774.1644                   22144775.3914
 11  7 31  2 50  0.0000000  0  7G10G29G12G05G02G04G25
 -18456633.13347 -14356410.43745  21888689.2344                   21888687.7734
   7308663.74646   5718742.15244  24019146.3524                   24019147.4064
 -19959618.25848 -13829938.36746  20852268.6254                   20852266.4264
 -19684910.95348 -15297766.27047  20471239.9774                   20471238.7114
 -26570080.25848 -20673262.35546  21046484.8754                   21046481.1294
 -19271672.31646 -14983707.28543  23792163.3204                   23792163.8484
  -2737137.13748  -1265508.42646  22128436.2194                   22128437.0824
 11  7 31  2 50 30.0000000  0  7G10G29G12G05G02G04G25
 -18416639.77047 -14325246.79345  21896299.5394                   21896298.8714
   7192364.00846   5628119.13744  23997014.9614                   23997015.8554
 -19977941.41448 -13844216.14846  20848781.7894                   20848779.4844
 -19747748.83248 -15346730.81247  20459282.8284                   20459280.9414
 -26574857.39848 -20676984.78146  21045575.7894                   21045571.8284
 -19223519.12547 -14946185.31243  23801325.9694                   23801326.0394
  -2822483.47348  -1332012.01646  22112195.1564                   22112196.3134
 11  7 31  2 51  0.0000000  0  7G10G29G12G05G02G04G25
 -18376197.07047 -14293733.02045  21903995.4384                   21903994.3444
   7076030.59446   5537469.88344  23974876.4064                   23974878.2624
 -19995679.57448 -13858038.08646  20845406.5394                   20845404.6054
 -19810011.48048 -15395247.11747  20447434.0944                   20447432.8094
 -26579481.17248 -20680587.71546  21044696.0864                   21044692.6334
 -19175393.52746 -14908684.85543  23810483.8834                   23810484.2854
  -2907312.90648  -1398112.84446  22096052.9144                   22096053.6684
 11  7 31  2 51 30.0000000  0  7G10G29G12G05G02G04G25
 -18335308.00447 -14261871.42245  21911777.1804                   21911775.7384
   6959664.19546   5446794.91444  23952733.2584                   23952734.4614
 -20012834.17648 -13871405.29746  20842142.0394                   20842140.1644
 -19871698.39848 -15443314.80947  20435695.5234                   20435693.6254
 -26583952.80948 -20684072.09046  21043844.9384                   21043841.5864
 -19127296.68746 -14871206.79343  23819636.7274                   23819636.6804
  -2991624.08648  -1463809.81246  22080008.6094                   22080009.6604
 11  7 31  2 52  0.0000000  0  7G10G29G12G05G02G04G25
 -18293979.97747 -14229667.77745  21919641.4304                   21919640.1684
   6843260.91846   5356091.23844  23930581.7344                   23930582.6094
 -20029410.26248 -13884321.72346  20838987.7584                   20838985.7424
 -19932813.80548 -15490937.17247  20424066.0944                   20424064.2894
 -26588277.93048 -20687442.30546  21043022.0164                   21043018.3244
 -19079233.94946 -14833755.30943  23828782.7814                   23828782.6804
  -3075419.96948  -1529105.30146  22064063.2664                   22064064.0664
 11  7 31  2 52 30.0000000  0  7G10G29G12G05G02G04G25
 -18252206.46947 -14197117.01245  21927590.6954                   21927589.1764
   6726831.12146   5265366.89144  23908425.9304                   23908427.7624
 -20045398.69148 -13896780.23446  20835945.3754                   20835943.2464
 -19993347.68748 -15538106.38347  20412546.3364                   20412544.7504
 -26592448.27348 -20690691.91046  21042228.2734                   21042224.4924
 -19031196.53146 -14796323.58643  23837923.4844                   23837923.4344
  -3158689.44148  -1593990.56246  22048217.0944                   22048218.1024
 11  7 31  2 53  0.0000000  0  7G10G29G12G05G02G04G25
 -18209992.71147 -14164223.18045  21935623.2894                   21935622.8524
   6610373.25846   5174620.62944  23886264.4694                   23886265.6054
 -20060803.50048 -13908783.98446  20833013.7344                   20833011.8094
 -20053302.24648 -15584824.18447  20401137.5864                   20401135.8874
 -26596466.80548 -20693823.23446  21041463.5314                   21041460.3094
 -18983187.85246 -14758914.22743  23847059.7504                   23847059.1454
  -3241433.49248  -1658466.40646  22032471.5394                   22032473.0084
 11  7 31  2 53 30.0000000  0  7G10G29G12G05G02G04G25
 -18167336.13747 -14130984.29745  21943741.1724                   21943739.8834
   6493893.45747   5083857.25843  23864099.4534                   23864099.8714
 -20075619.98048 -13920329.27746  20830194.3674                   20830192.4144
 -20112671.69548 -15631086.05547  20389839.6334                   20389837.8524
 -26600329.30948 -20696832.97746  21040728.6254                   21040725.0704
 -18935203.14146 -14721523.57043  23856190.7584                   23856190.6844
  -3323645.00048  -1722527.28946  22016827.1254                   22016828.4574
 11  7 31  2 54  0.0000000  0  7G10G29G12G05G02G04G25
 -18124246.56247 -14097408.01245  21951940.3984                   21951939.1134
   6377385.35947   4993071.84443  23841928.2894                   23841928.4694
 -20089855.36748 -13931421.78146  20827485.2814                   20827483.5004
 -20171462.53948 -15676897.05147  20378652.4454                   20378650.5744
 -26604043.37948 -20699727.04746  21040022.0164                   21040018.5474
 -18887250.03946 -14684157.55943  23865316.0394                   23865315.6454
  -3405329.48848  -1786177.52046  22001282.8054                   22001283.8594
 11  7 31  2 54 30.0000000  0  7G10G29G12G05G02G04G25
 -18080728.94547 -14063498.18745  21960221.8204                   21960220.4734
   6260847.48447   4902263.15243  23819752.5784                   23819751.4064
 -20103513.07048 -13942064.14146  20824886.3914                   20824884.5204
 -20229676.49248 -15722258.53147  20367574.4534                   20367573.2114
 -26607612.59848 -20702508.25046  21039342.8284                   21039339.3284
 -18839331.76346 -14646818.66243  23874434.7504                   23874434.5514
  -3486487.75848  -1849417.69946  21985839.0784                   21985840.1334
 11  7 31  2 55  0.0000000  0  7G10G29G12G05G02G04G25
 -18036782.55547 -14029254.27045  21968583.8754                   21968583.2194
   6144285.35547   4811435.59443  23797571.4844                   23797570.7234
 -20116590.61348 -13952254.42646  20822397.7114                   20822395.6334
 -20287309.45748 -15767167.29347  20356606.8444                   20356605.5084
 -26611033.87148 -20705174.16846  21038691.6804                   21038688.2274
 -18791445.21546 -14609504.44143  23883546.9694                   23883547.1564
  -3567114.32448  -1912243.55946  21970496.2974                   21970497.5044
 11  7 31  2 55 30.0000000  0  7G10G29G12G05G02G04G25
 -17992408.45747 -13994677.07445  21977028.6564                   21977027.4104
   6027701.60547   4720591.20743  23775385.7814                   23775385.6564
 -20129086.34448 -13961991.35546  20820020.0234                   20820018.0824
 -20344359.04748 -15811621.47747  20345750.7814                   20345749.3634
 -26614306.08648 -20707723.93446  21038068.9774                   21038065.2114
 -18743588.59146 -14572213.62442  23892653.8674                   23892653.9224
  -3647205.62148  -1974652.33246  21955255.1804                   21955256.4734
 11  7 31  2 56  0.0000000  0  7G10G29G12G05G02G04G25
 -17947613.19947 -13959771.68045  21985552.9534                   21985551.2584
   5911092.20747   4629726.84844  23753196.1954                   23753195.9964
 -20141005.70348 -13971279.16046  20817751.8054                   20817749.9184
 -20400829.11348 -15855624.08247  20335005.3444                   20335003.5944
 -26617434.22748 -20710161.43446  21037473.5474                   21037470.0314
 -18695767.13746 -14534950.16842  23901754.4454                   23901754.4184
  -3726764.45348  -2036646.18446  21940115.8754                   21940116.6644
 11  7 31  2 56 30.0000000  0  7G10G29G12G05G02G04G25
 -17902401.14847 -13924541.54745  21994156.2814                   21994155.4104
   5794457.31347   4538842.65644  23731000.8594                   23731000.8484
 -20152351.00048 -13980119.63746  20815592.5784                   20815590.7814
 -20456721.20348 -15899176.32047  20324369.1804                   20324367.2074
 -26620421.27748 -20712488.98446  21036905.4224                   21036901.6914
 -18647983.03946 -14497715.86742  23910846.9924                   23910846.9384
  -3805790.89548  -2098225.19146  21925077.9224                   21925079.2424
 11  7 31  2 57  0.0000000  0  7G10G29G12G05G02G04G25
 -17856767.68047 -13888983.02745  22002840.4304                   22002838.6844
   5677805.32447   4447945.14544  23708802.3984                   23708803.5594
 -20163115.55948 -13988507.59046  20813544.0474                   20813542.5314
 -20512027.65248 -15942272.21947  20313844.4694                   20313842.5744
 -26623260.22348 -20714701.13346  21036365.4064                   21036361.5004
 -18600229.46146 -14460505.32843  23919934.1024                   23919934.7114
  -3884275.88748  -2159382.27746  21910141.9924                   21910143.1764
 11  7 31  2 57 30.0000000  0  7G10G29G12G05G02G04G25
 -17810719.83247 -13853101.59045  22011602.7814                   22011601.4734
   5561133.20746   4357032.00444  23686600.1254                   23686600.9734
 -20173304.52048 -13996447.03146  20811605.6564                   20811603.6914
 -20566751.54748 -15984914.18447  20303430.8674                   20303428.9534
 -26625955.96948 -20716801.69546  21035852.2344                   21035847.9344
 -18552511.00446 -14423322.19543  23929014.6094                   23929015.3954
  -3962222.01248  -2220119.46546  21895309.7814                   21895311.2624
 11  7 31  2 58  0.0000000  0  7G10G29G12G05G02G04G25
 -17764264.01247 -13816902.28545  22020443.1804                   22020441.6684
   5444438.46147   4266101.21544  23664394.2114                   23664394.5784
 -20182921.83648 -14003941.03946  20809775.5634                   20809773.3634
 -20620896.13748 -16027104.73047  20293127.9844                   20293126.0434
 -26628512.68048 -20718793.92246  21035365.4384                   21035361.8284
 -18504831.68446 -14386169.50043  23938088.1954                   23938088.9414
  -4039631.23048  -2280438.28146  21880579.2424                   21880579.9804
 11  7 31  2 58 30.0000000  0  7G10G29G12G05G02G04G25
 -17717403.01247 -13780387.23845  22029360.5314                   22029358.9534
   5327721.81347   4175153.34444  23642184.2894                   23642184.3404
 -20191969.74248 -14010991.33646  20808053.4064                   20808051.5904
 -20674461.69948 -16068844.08647  20282934.6094                   20282932.5514
 -26630931.57848 -20720678.75446  21034905.2664                   21034901.4384
 -18457192.32846 -14349047.92242  23947153.2274                   23947154.0784
  -4116502.50048  -2340337.90646  21865951.1644                   21865952.1994
 11  7 31  2 59  0.0000000  0  7G10G29G12G05G02G04G25
 -17670137.31247 -13743556.84445  22038355.2274                   22038353.4614
   5210986.67247   4084191.04744  23619969.7894                   23619970.0554
 -20200446.59448 -14017596.67246  20806440.3754                   20806438.7624
 -20727445.82048 -16110130.38347  20272851.9534                   20272849.9414
 -26633211.34848 -20722455.18446  21034471.1724                   21034467.5474
 -18409591.25446 -14311956.24642  23956212.3204                   23956211.9884
  -4192831.95348  -2399815.33646  21851426.2584                   21851427.1254
 11  7 31  2 59 30.0000000  0  7G10G29G12G05G02G04G25
 -17622469.82447 -13706413.36745  22047425.4694                   22047424.6294
   5094234.07447   3993215.13344  23597752.5864                   23597752.4654
 -20208353.45748 -14023757.85246  20804935.6094                   20804934.1684
 -20779848.41848 -16150963.53947  20262879.8054                   20262877.9804
 -26635352.71948 -20724123.77746  21034063.7974                   21034060.1374
 -18362029.32846 -14274895.04342  23965262.3054                   23965263.3134
  -4268618.28548  -2458869.56246  21837004.3754                   21837005.6414
 11  7 31  3  0  0.0000000  0  7G10G29G12G05G02G04G25
 -17574401.12547 -13668957.27045  22056572.7894                   22056571.6644
   4977467.53547   3902228.31643  23575531.0944                   23575531.8444
 -20215688.72348 -14029473.63746  20803540.0634                   20803538.3014
 -20831666.61348 -16191341.32047  20253019.4694                   20253017.3204
 -26637353.99648 -20725683.18746  21033682.9454                   21033679.2194
 -18314504.25046 -14237862.54743  23974306.4694                   23974307.2854
  -4343857.70348  -2517497.62546  21822686.6334                   21822687.1414
 11  7 31  3  0 30.0000000  0  7G10G29G12G05G02G04G25
 -17525936.93047 -13631192.97745  22065795.6334                   22065794.2624
   4860685.11747   3811229.12943  23553308.3364                   23553308.5204
 -20222456.07848 -14034746.89546  20802252.3204                   20802250.1914
 -20882902.95748 -16231265.71147  20243269.1484                   20243267.2664
 -26639218.62548 -20727136.12946  21033328.4774                   21033324.6764
 -18267019.30346 -14200861.34442  23983343.0234                   23983343.0864
  -4418551.43048  -2575700.46146  21808472.9614                   21808473.6054
 11  7 31  3  1  0.0000000  0  7G10G29G12G05G02G04G25
 -17477081.33247 -13593123.69145  22075092.1024                   22075091.7504
   4743886.73447   3720217.52744  23531082.4384                   23531082.3954
 -20228658.26248 -14039579.75846  20801071.8204                   20801069.8444
 -20933558.83648 -16270737.78947  20233629.6094                   20233627.9924
 -26640948.55948 -20728484.12146  21032998.8754                   21032995.3954
 -18219576.78946 -14163893.16042  23992370.1564                   23992370.8164
  -4492699.66848  -2633478.25846  21794362.6644                   21794363.7074
 11  7 31  3  1 30.0000000  0  7G10G29G12G05G02G04G25
 -17427834.12947 -13554749.27745  22084464.2194                   22084462.7814
   4627076.71147   3629196.92244  23508854.1644                   23508854.6844
 -20234293.04748 -14043970.49646  20799999.6094                   20799997.3674
 -20983630.95748 -16309754.99647  20224101.3594                   20224099.2934
 -26642541.49248 -20729725.35546  21032696.2034                   21032692.4654
 -18172173.58246 -14126955.66842  24001389.9454                   24001391.4774
  -4566297.67648  -2690827.30146  21780357.4144                   21780358.3094
 11  7 31  3  2  0.0000000  0  7G10G29G12G05G02G04G25
 -17378198.98447 -13516072.55545  22093908.8444                   22093908.1524
   4510255.33647   3538167.42644  23486624.0704                   23486624.1254
 -20239362.82048 -14047920.95746  20799034.9614                   20799032.8324
 -21033120.07848 -16348317.92247  20214683.6724                   20214681.7304
 -26643999.32448 -20730861.32046  21032418.5944                   21032414.9774
 -18124811.27746 -14090050.01243  24010403.6954                   24010404.6764
  -4639345.15248  -2747747.36746  21766457.2974                   21766457.5784
 11  7 31  3  2 30.0000000  0  7G10G29G12G05G02G04G25
 -17328181.48847 -13477097.90245  22103426.9844                   22103425.8444
   4393420.86747   3447127.70744  23464391.4694                   23464391.3754
 -20243871.53148 -14051434.22346  20798177.0164                   20798174.7274
 -21082029.06248 -16386428.78547  20205376.2424                   20205374.9304
 -26645325.69148 -20731894.84446  21032166.0634                   21032162.3324
 -18077493.21546 -14053178.79742  24019408.3524                   24019408.0744
  -4711843.79348  -2804239.76246  21752661.0634                   21752661.9694
 11  7 31  3  3  0.0000000  0  7G10G29G12G05G02G04G25
 -17277785.01647 -13437827.93445  22113017.3754                   22113015.5944
   4276573.91847   3356078.23044  23442155.8754                   23442155.7814
 -20247820.69948 -14054511.48846  20797425.2664                   20797423.4574
 -21130358.00048 -16424087.66847  20196179.8444                   20196177.9064
 -26646521.41848 -20732826.57446  21031938.8204                   21031934.9224
 -18030220.11346 -14016342.65642  24028403.3984                   24028404.4024
  -4783792.39848  -2860303.55546  21738969.7114                   21738970.6804
 11  7 31  3  3 30.0000000  0  7G10G29G12G05G02G04G25
 -17227009.04747 -13398262.25045  22122679.7194                   22122678.6254
   4159719.35247   3265022.82844  23419919.2194                   23419919.3284
 -20251207.91448 -14057150.87146  20796781.1414                   20796779.0274
 -21178103.71148 -16461292.09447  20187094.3594                   20187092.0784
 -26647583.88748 -20733654.44946  21031736.3674                   21031732.3754
 -17982989.30946 -13979539.48842  24037390.4144                   24037392.0084
  -4855186.56248  -2915935.33246  21725383.7664                   21725384.8094
 11  7 31  3  4  0.0000000  0  7G10G29G12G05G02G04G25
 -17175858.29347 -13358404.54345  22132413.1484                   22132412.4104
   4042855.94947   3173960.50844  23397680.6724                   23397680.3594
 -20254036.57848 -14059355.02746  20796242.6884                   20796240.2664
 -21225268.24648 -16498043.64547  20178119.3524                   20178116.8984
 -26648515.91448 -20734380.69146  21031558.9534                   21031555.3054
 -17935803.28146 -13942771.12942  24046370.7664                   24046372.2344
  -4926027.05548  -2971135.65246  21711903.2424                   21711904.4574
 11  7 31  3  4 30.0000000  0  7G10G29G12G05G02G04G25
 -17124328.51647 -13318251.47345  22142219.2274                   22142217.5704
   3925992.24247   3082897.97344  23375441.8444                   23375441.4144
 -20256301.15248 -14061119.61746  20795811.6954                   20795809.5864
 -21271844.50848 -16534336.80147  20169256.1484                   20169253.8794
 -26649311.24248 -20735000.39846  21031407.5314                   21031403.9964
 -17888655.45746 -13906032.57842  24055343.4614                   24055343.0554
  -4996305.51648  -3025898.05946  21698529.4384                   21698530.4734
 11  7 31  3  5  0.0000000  0  7G10G29G12G05G02G04G25
 -17072430.13347 -13277811.18445  22152094.8674                   22152093.7074
   3809121.79746   2991830.20343  23353201.5084                   23353201.6414
 -20258010.10948 -14062451.27346  20795486.5004                   20795484.4734
 -21317839.93448 -16570177.37547  20160503.1954                   20160501.3634
 -26649977.81248 -20735519.79746  21031280.5394                   21031277.1414
 -17841553.42246 -13869329.77042  24064306.4534                   24064306.0514
  -5066028.12548  -3080227.31646  21685262.0004                   21685262.6294
 11  7 31  3  5 30.0000000  0  7G10G29G12G05G02G04G25
 -17020165.59047 -13237085.58645  22162040.5004                   22162039.6134
   3692246.24646   2900758.44143  23330961.4924                   23330961.3954
 -20259164.50448 -14063350.79746  20795266.9774                   20795264.3984
 -21363254.13348 -16605565.03547  20151860.8914                   20151859.2544
 -26650516.33248 -20735939.40246  21031178.2424                   21031174.4844
 -17794497.51246 -13832662.78142  24073261.0864                   24073261.7544
  -5135193.58648  -3134122.44946  21672100.3284                   21672100.9144
 11  7 31  3  6  0.0000000  0  7G10G29G12G05G02G04G25
 -16967530.23447 -13196071.03945  22172056.6254                   22172055.7664
   3575374.80547   2809689.84844  23308721.6644                   23308721.5944
 -20259757.46548 -14063812.84046  20795154.0784                   20795151.7114
 -21408079.57848 -16640493.92647  20143331.3204                   20143329.6804
 -26650919.23848 -20736253.32046  21031101.5314                   21031098.0204
 -17747480.21146 -13796025.97742  24082208.1254                   24082208.8634
  -5203792.67248  -3187576.24246  21659046.1334                   21659047.3364
 11  7 31  3  6 30.0000000  0  7G10G29G12G05G02G04G25
 -15339121.29347 -11927180.98445  22481932.7814                   22481932.0664
   5033919.48846   3946218.27344  23586273.5314                   23586273.8484
 -18684383.37548 -12836248.61346  21094937.6644                   21094935.5904
 -19876907.80148 -15447373.03547  20434703.3674                   20434701.3954
 -25075780.19948 -19508872.23846  21330840.3524                   21330837.0274
 -16125096.31246 -12531830.76242  24390936.9844                   24390937.6214
  -3696414.93748  -2012996.14546  21945890.3444                   21945891.6254
 11  7 31  3  7  0.0000000  0  7G10G29G12G05G02G04G25
 -15285770.18047 -11885608.69545  22492084.6564                   22492084.0274
   4917042.11347   3855145.09445  23564032.0004                   23564032.8954
 -18683875.91448 -12835853.18746  21095034.4924                   21095032.1094
 -19920573.60948 -15481398.30547  20426394.3754                   20426391.9494
 -25075931.77748 -19508990.32446  21330811.6804                   21330808.0554
 -16078174.97746 -12495268.71542  24399866.1094                   24399866.0514
  -3763895.61748  -2065578.44146  21933049.5784                   21933050.2154
 11  7 31  3  7 30.0000000  0  7G10G29G12G05G02G04G25
 -15232061.39547 -11843757.71945  22502305.6954                   22502304.5204
   4800167.82846   3764074.32445  23541791.7664                   23541792.5474
 -18682816.08248 -12835027.34046  21095236.1414                   21095233.7774
 -19963655.73448 -15514968.77047  20418195.9694                   20418193.8754
 -25075954.29348 -19509007.84846  21330807.2584                   21330803.7344
 -16031298.12546 -12458741.32042  24408786.0554                   24408786.9064
  -3830811.20348  -2117720.40646  21920315.4144                   21920316.4304
 11  7 31  3  8  0.0000000  0  7G10G29G12G05G02G04G25
 -15178003.12147 -11801634.40245  22512592.3674                   22512591.1094
   4683292.62946   3673002.87544  23519551.1254                   23519551.5004
 -18681210.43448 -12833776.19146  21095541.4224                   21095539.7234
 -20006159.54748 -15548088.58247  20410107.8134                   20410105.7234
 -25075853.91448 -19508929.60946  21330826.5394                   21330823.0514
 -15984471.43046 -12422253.02742  24417696.7814                   24417698.0514
  -3897166.08248  -2169425.45346  21907688.9304                   21907689.2234
 11  7 31  3  8 30.0000000  0  7G10G29G12G05G02G04G25
 -15123593.16447 -11759237.05144  22522946.4304                   22522945.3984
   4566422.62947   3581935.46144  23497311.2114                   23497311.3834
 -18679055.64148 -12832097.13346  21095951.8834                   21095949.6094
 -20048080.39148 -15580754.14847  20402130.3054                   20402128.6484
 -25075626.40648 -19508752.31246  21330869.6724                   21330865.6174
 -15937690.47346 -12385800.35542  24426599.5004                   24426600.5864
  -3962954.26248  -2220688.94146  21895169.5084                   21895170.4694
 11  7 31  3  9  0.0000000  0  7G10G29G12G05G02G04G25
 -15068831.80147 -11716565.87944  22533367.0084                   22533365.8594
   4449561.85947   3490875.18044  23475073.8594                   23475072.8164
 -18676350.46548 -12829989.19546  21096466.1804                   21096464.1374
 -20089415.95748 -15612963.64847  20394264.6094                   20394262.1844
 -25075269.77348 -19508474.40646  21330937.3284                   21330934.2154
 -15890952.48046 -12349381.22343  24435492.9144                   24435494.0004
  -4028171.97348  -2271507.89846  21882758.9224                   21882759.4924
 11  7 31  3  9 30.0000000  0  8G26G10G29G12G05G02G04G25
  13929622.10256  10879441.19553  24898618.3054                   24898620.7114
 -15013724.55147 -11673625.19144  22543853.8054                   22543852.5704
   4332708.78547   3399820.91444  23452837.5164                   23452835.8984
 -18673098.98448 -12827455.57046  21097084.6884                   21097082.7934
 -20130169.09848 -15644719.31247  20386509.5394                   20386507.5004
 -25074787.15648 -19508098.32446  21331029.4384                   21331025.5234
 -15844260.99246 -12312998.24642  24444377.7734                   24444379.4924
  -4092820.96948  -2321883.70346  21870456.6024                   21870457.1684
 11  7 31  3 10  0.0000000  0  8G26G10G29G12G05G02G04G25
  13801749.88746  10779800.77743  24874284.6954                   24874287.2234
 -14958282.14547 -11630423.30944  22554403.4534                   22554402.3134
   4215857.16447   3308767.79744  23430600.8134                   23430600.0044
 -18669310.41848 -12824503.43746  21097806.0394                   21097803.9694
 -20170347.88348 -15676027.41847  20378863.4304                   20378861.0634
 -25074187.03148 -19507630.68746  21331143.1484                   21331139.6134
 -15797623.96146 -12276657.74242  24453252.6724                   24453254.4494
  -4156907.95748  -2371821.59046  21858261.3284                   21858262.1024
 11  7 31  3 10 30.0000000  0  8G26G10G29G12G05G02G04G25
  13673755.33646  10680065.00443  24849928.0084                   24849930.0044
 -14902506.78947 -11586962.02744  22565017.5944                   22565016.7274
   4099008.71147   3217717.14844  23408365.2734                   23408364.8324
 -18664986.21148 -12821133.91846  21098628.7814                   21098626.4734
 -20209952.21548 -15706887.91047  20371327.1804                   20371324.9384
 -25073469.88747 -19507071.86346  21331280.2424                   21331276.3874
 -15751041.35546 -12240359.70342  24462117.5164                   24462119.0744
  -4220431.67648  -2421320.57846  21846173.0474                   21846173.3404
 11  7 31  3 11  0.0000000  0  8G26G10G29G12G05G02G04G25
  13545646.84046  10580240.46543  24825549.2194                   24825552.0274
 -14846396.16847 -11543239.48044  22575695.4064                   22575694.3594
   3982170.25847   3126674.32444  23386131.0554                   23386131.3594
 -18660122.10248 -12817343.70746  21099554.2114                   21099552.4144
 -20248976.75848 -15737296.61347  20363900.9694                   20363898.7304
 -25072630.27748 -19506417.60546  21331439.5474                   21331436.0664
 -15704507.86746 -12204099.87542  24470972.9064                   24470973.9614
  -4283385.48448  -2470375.45346  21834193.4224                   21834194.3874
 11  7 31  3 11 30.0000000  0  8G26G10G29G12G05G02G04G25
  13417426.02346  10480328.34843  24801150.4534                   24801151.9734
 -14789954.40647 -11499258.89844  22586435.4224                   22586434.5664
   3865341.68047   3035639.23844  23363899.2114                   23363899.7774
 -18654721.43448 -12813135.39546  21100582.0634                   21100580.0044
 -20287423.33648 -15767254.94947  20356584.7584                   20356582.9224
 -25071670.32448 -19505669.57046  21331622.4614                   21331618.9694
 -15658025.15646 -12167879.66042  24479819.2894                   24479819.1564
  -4345769.99248  -2518986.72346  21822321.9844                   21822322.6844
 11  7 31  3 12  0.0000000  0  8G26G10G29G12G05G02G04G25
  13289095.11746  10380330.49643  24776728.0394                   24776730.9224
 -14733184.99647 -11455023.01644  22597238.5234                   22597238.1134
   3748523.80547   2944612.43844  23341669.2664                   23341669.4654
 -18648785.84448 -12808510.26646  21101711.7664                   21101709.5984
 -20325293.02348 -15796763.76247  20349378.4224                   20349376.3874
 -25070591.20748 -19504828.68446  21331827.6954                   21331824.0784
 -15611594.18046 -12131699.69142  24488653.4844                   24488654.5044
  -4407584.75448  -2567154.04746  21810559.0234                   21810560.0904
 11  7 31  3 12 30.0000000  0  8G26G10G29G12G05G02G04G25
  13160662.19946  10280253.10943  24752288.7974                   24752290.7814
 -14676085.72347 -11410530.08244  22608104.8204                   22608102.9384
   3631722.93047   2853598.89544  23319443.3284                   23319442.7814
 -18642312.19548 -12803465.85946  21102943.4454                   21102941.5204
 -20362581.02748 -15825819.32447  20342282.7424                   20342280.5124
 -25069388.32048 -19503891.36346  21332056.7344                   21332052.8754
 -15565210.17246 -12095556.35542  24497478.9384                   24497481.0474
  -4468823.98048  -2614872.89546  21798905.5554                   21798906.3014
 11  7 31  3 13  0.0000000  0  8G26G10G29G12G05G02G04G25
  13032127.76646  10180096.58643  24727830.3674                   24727831.3484
 -14618661.63347 -11365784.04344  22619031.7814                   22619030.3524
   3514938.46147   2762598.09844  23297220.2814                   23297219.2194
 -18635304.03948 -12798004.96146  21104277.1254                   21104275.3914
 -20399290.07848 -15854423.74647  20335297.1174                   20335294.9774
 -25068064.71148 -19502859.97746  21332308.5314                   21332304.3984
 -15518875.69946 -12059451.58242  24506296.9694                   24506299.1054
  -4529489.01248  -2662144.32846  21787361.1884                   21787362.0314
 11  7 31  3 13 30.0000000  0  8G26G10G29G12G05G02G04G25
  12903493.05146  10079861.96143  24703350.7424                   24703352.9454
 -14560917.63347 -11320788.73844  22630019.9774                   22630018.7074
   3398169.87547   2671609.62544  23274999.9454                   23274998.3594
 -18627764.98848 -12792130.37946  21105711.7034                   21105709.8364
 -20435422.29748 -15882578.69147  20328421.5704                   20328419.0984
 -25066622.76648 -19501736.37946  21332582.8834                   21332578.9844
 -15472592.85246 -12023387.12142  24515104.3674                   24515106.7974
  -4589580.80948  -2708969.07046  21775926.0314                   21775926.8364
 11  7 31  3 14  0.0000000  0  8G26G10G29G12G05G02G04G25
  12774766.23846   9979555.52743  24678854.3984                   24678857.1414
 -14502851.85247 -11275542.68745  22641069.5704                   22641068.9104
   3281423.66447   2580638.62544  23252783.2194                   23252783.0824
 -18619691.87948 -12785839.64846  21107248.0004                   21107246.2734
 -20470973.43448 -15910280.85547  20321656.0474                   20321653.8524
 -25065057.86348 -19500516.97746  21332880.7114                   21332877.2034
 -15426356.85546 -11987359.15642  24523903.0944                   24523904.7384
  -4649093.61748  -2755342.66446  21764601.3054                   21764602.1994
 11  7 31  3 14 30.0000000  0  8G26G10G29G12G05G02G04G25
  12645948.34046   9879178.10943  24654341.5314                   24654342.6954
 -14444468.56247 -11230049.22744  22652179.8054                   22652178.7274
   3164699.45746   2489684.84844  23230571.4454                   23230570.9104
 -18611088.04748 -12779135.36746  21108885.2584                   21108883.0314
 -20505945.44548 -15937531.74647  20315001.2734                   20314999.4024
 -25063372.29348 -19499203.53946  21333201.7664                   21333197.6954
 -15380169.61746 -11951369.12542  24532692.4454                   24532693.6294
  -4708028.41448  -2801265.84046  21753386.2584                   21753387.0514
 11  7 31  3 15  0.0000000  0  8G26G10G29G12G05G02G04G25
  12517042.62546   9778732.27743  24629811.4844                   24629813.4774
 -14385770.37947 -11184310.39144  22663350.2504                   22663348.2544
   3047998.76247   2398749.33245  23208363.9304                   23208363.0234
 -18601954.98848 -12772018.70346  21110623.1724                   21110621.2624
 -20540338.81648 -15964331.75447  20308456.4384                   20308454.4654
 -25061566.54348 -19497796.45746  21333545.3284                   21333541.4224
 -15334031.52346 -11915417.46542  24541472.7194                   24541472.9344
  -4766384.21548  -2846737.87146  21742281.4304                   21742282.1094
 11  7 31  3 15 30.0000000  0  8G26G10G29G12G05G02G04G25
  12388047.62146   9678216.82843  24605264.0944                   24605266.2774
 -14326764.57847 -11138331.84444  22674578.0004                   22674576.7814
   2931318.69947   2307829.90645  23186160.2274                   23186159.9844
 -18592298.76648 -12764494.38346  21112460.4844                   21112458.8244
 -20574158.62548 -15990684.82847  20302020.5704                   20302018.5274
 -25059645.23448 -19496299.30546  21333910.6484                   21333907.3054
 -15287946.91046 -11879507.39142  24550241.5084                   24550243.4964
  -4824164.74648  -2891761.62546  21731286.3444                   21731287.0554
 11  7 31  3 16  0.0000000  0  8G26G10G29G12G05G02G04G25
  12258971.30546   9577638.01643  24580701.8134                   24580703.9384
 -14267449.27347 -11092112.12944  22685865.1644                   22685864.3134
   2814665.33647   2216931.27345  23163962.1954                   23163961.5004
 -18582116.39548 -12756560.07446  21114398.1884                   21114396.3874
 -20607400.44148 -16016587.50447  20295695.1484                   20295693.0044
 -25057604.47748 -19494709.09046  21334298.5864                   21334294.8054
 -15241911.37546 -11843635.62542  24559002.4534                   24559004.2934
  -4881364.46948  -2936332.82046  21720401.5784                   21720402.0394
 11  7 31  3 16 30.0000000  0  8G26G10G29G12G05G02G04G25
  12129815.03546   9476996.89143  24556124.3054                   24556125.7774
 -14207829.02347 -11045654.79744  22697210.6254                   22697209.5394
   2698038.66847   2126053.40645  23141768.2814                   23141767.7664
 -18571411.48848 -12748218.59846  21116435.6094                   21116433.5234
 -20640066.52048 -16042041.56647  20289478.7584                   20289477.0824
 -25055446.27748 -19493027.35246  21334709.6644                   21334705.7974
 -15195926.56646 -11807803.30142  24567753.3054                   24567754.3204
  -4937984.31248  -2980452.16046  21709627.4304                   21709627.7034
 11  7 31  3 17  0.0000000  0  8G26G10G29G12G05G02G04G25
  12000579.57446   9376294.07443  24531531.1954                   24531533.1254
 -14147909.23047 -10998964.05545  22708612.9384                   22708611.9264
   2581437.91847   2035195.72744  23119579.6334                   23119579.2974
 -18560188.03948 -12739473.05146  21118571.3524                   21118569.5824
 -20672159.70748 -16067049.21147  20283371.6024                   20283369.3364
 -25053173.50848 -19491256.34046  21335142.1334                   21335137.9264
 -15149995.19546 -11772012.72342  24576493.0004                   24576494.1564
  -4994025.93048  -3024120.92246  21698962.8284                   21698963.8594
 11  7 31  3 17 30.0000000  0  8G26G10G29G12G05G02G04G25
  11871272.59046   9275535.51643  24506924.7584                   24506926.6024
 -14087687.98447 -10952038.41444  22720072.5004                   22720071.8794
   2464869.25047   1944363.05944  23097397.8444                   23097396.9224
 -18548442.62148 -12730320.77746  21120806.2894                   21120804.1214
 -20703676.39148 -16091607.63747  20277374.2584                   20277372.2154
 -25050781.51248 -19489392.43046  21335597.6094                   21335593.2544
 -15104112.69546 -11736260.12542  24585224.5634                   24585224.9534
  -5049483.96948  -3067334.94946  21688409.1254                   21688409.9734
 11  7 31  3 18  0.0000000  0  8G26G10G29G12G05G02G04G25
  11741892.64146   9174720.08243  24482305.2034                   24482306.3634
 -14027172.30547 -10904883.32444  22731588.5314                   22731587.5744
   2348329.65647   1853553.05945  23075220.5944                   23075220.8954
 -18536182.18448 -12720767.19146  21123139.6334                   21123137.5634
 -20734621.05148 -16115720.32847  20271485.7424                   20271483.4264
 -25048275.47348 -19487439.64546  21336074.2194                   21336070.0204
 -15058283.85945 -11700549.36742  24593945.7974                   24593946.0394
  -5104362.34448  -3110097.30146  21677966.4614                   21677967.3874
 11  7 31  3 18 30.0000000  0  8G26G10G29G12G05G02G04G25
  11612444.39146   9073851.46543  24457671.4144                   24457673.0004
 -13966363.59047 -10857499.91844  22743160.4144                   22743158.4804
   2231822.08647   1762768.00845  23053050.1804                   23053049.6374
 -18523406.98848 -12710812.49646  21125570.3364                   21125568.2194
 -20764993.21148 -16139386.91847  20265706.1414                   20265704.0904
 -25045654.62948 -19485397.41046  21336573.0474                   21336569.2194
 -15012507.43445 -11664879.45342  24602656.2584                   24602657.6334
  -5158659.03948  -3152406.38346  21667633.7584                   21667635.2034
 11  7 31  3 19  0.0000000  0  8G26G10G29G12G05G02G04G25
  11482929.42246   8972930.84443  24433026.0084                   24433026.4844
 -13905266.52747 -10809891.80144  22754785.9534                   22754784.7704
   2115346.49647   1672007.91445  23030885.7584                   23030885.4734
 -18510120.47748 -12700459.37946  21128098.7424                   21128096.8324
 -20794795.11348 -16162609.14547  20260034.8674                   20260032.5984
 -25042920.90248 -19483267.20746  21337093.4304                   21337089.2274
 -14966785.18045 -11629251.78542  24611356.8984                   24611358.5434
  -5212375.00048  -3194262.95346  21657412.1094                   21657413.1054
 11  7 31  3 19 30.0000000  0  8G26G10G29G12G05G02G04G25
  11353354.85946   8871963.78943  24408367.3674                   24408369.7544
 -13843879.87947 -10762058.02744  22766467.6564                   22766467.1844
   1998908.32047   1581276.94145  23008729.0164                   23008727.5514
 -18496319.97348 -12689705.73446  21130724.9144                   21130722.9104
 -20824023.52348 -16185384.49647  20254472.8364                   20254470.4494
 -25040070.91848 -19481046.42646  21337635.8054                   21337631.5824
 -14921112.90245 -11593663.04342  24620049.0554                   24620050.1524
  -5265505.61748  -3235663.41846  21647301.7734                   21647302.1954
 11  7 31  3 20  0.0000000  0  8G26G10G29G12G05G02G04G25
  11223715.97746   8770946.57443  24383698.7274                   24383700.4264
 -13782214.35547 -10714006.96544  22778202.3754                   22778201.1094
   1882501.50847   1490570.40645  22986576.7114                   22986576.5234
 -18482015.40648 -12678559.30946  21133446.9384                   21133445.2974
 -20852686.66848 -16207719.38747  20249018.1414                   20249016.1454
 -25037112.50448 -19478741.14846  21338198.5944                   21338194.4774
 -14875498.76245 -11558119.64542  24628728.9144                   24628729.8204
  -5318058.13748  -3276613.42246  21637301.3524                   21637302.2154
 11  7 31  3 20 30.0000000  0  8G26G10G29G12G05G02G04G25
  11094019.83246   8669884.78543  24359018.1024                   24359019.9654
 -13720268.89147 -10665737.77044  22789990.3444                   22789988.7854
   1766131.75047   1399892.77345  22964431.8674                   22964431.3014
 -18467205.48048 -12667019.09846  21136265.1884                   21136263.5084
 -20880781.54748 -16229611.46547  20243672.1174                   20243669.8714
 -25034042.25448 -19476348.72746  21338782.5944                   21338779.3244
 -14829939.06646 -11522618.58642  24637397.9924                   24637400.1294
  -5370028.32048  -3317109.64846  21627411.5704                   21627412.7584
 11  7 31  3 21  0.0000000  0  8G26G10G29G12G05G02G04G25
  10964274.30947   8568784.51243  24334328.5084                   24334329.5394
 -13658041.44947 -10617248.84444  22801831.3284                   22801830.7424
   1649805.04747   1309248.68445  22942295.8594                   22942295.4344
 -18451886.77348 -12655082.44146  21139180.0554                   21139178.0704
 -20908304.35948 -16251057.79747  20238434.7274                   20238432.3594
 -25030855.78548 -19473865.75446  21339389.1174                   21339384.8754
 -14784429.04346 -11487156.25842  24646058.5784                   24646060.8754
  -5421410.71948  -3357147.86346  21617634.2034                   21617634.3594
 11  7 31  3 21 30.0000000  0  7G26G10G29G12G05G02G25
  10834486.41447   8467651.21143  24309629.8754                   24309631.5084
 -13595531.35547 -10568539.68044  22813727.1484                   22813726.0004
   1533526.70347   1218642.27345  22920169.0944                   22920168.2854
 -18436057.47348 -12642747.91846  21142192.8834                   21142190.1134
 -20935252.11348 -16272056.01647  20233306.4614                   20233304.3674
 -25027549.92248 -19471289.75446  21340018.3364                   21340014.2704
  -5472201.35248  -3396724.94946  21607968.7504                   21607969.2774
 11  7 31  3 22  0.0000000  0  7G26G10G29G12G05G02G25
  10704654.96546   8366484.02043  24284923.5314                   24284924.9924
 -13532745.77747 -10519615.82044  22825674.8594                   22825673.0784
   1417294.17247   1128071.57845  22898050.4064                   22898049.8054
 -18419723.66848 -12630020.27046  21145300.6954                   21145298.4184
 -20961629.86348 -16292610.08247  20228287.1644                   20228284.8364
 -25024129.48048 -19468624.46146  21340668.7894                   21340665.0164
  -5522404.00448  -3435843.88346  21598415.6884                   21598416.1214
 11  7 31  3 22 30.0000000  0  7G26G10G29G12G05G02G25
  10574780.12546   8265283.00444  24260210.0634                   24260210.7774
 -13469690.33247 -10470481.73044  22837674.1094                   22837672.4064
   1301105.97347   1037535.44145  22875939.9454                   22875939.3094
 -18402890.92648 -12616903.84046  21148504.1724                   21148501.7304
 -20987441.37948 -16312722.92247  20223375.1484                   20223373.1094
 -25020597.80148 -19465872.50046  21341341.0084                   21341336.8164
  -5572021.23848  -3474506.63746  21588973.5704                   21588974.1294
 11  7 31  3 23  0.0000000  0  7G26G10G29G12G05G02G25
  10444874.44946   8164057.99244  24235489.3134                   24235490.7734
 -13406358.55147 -10421132.28544  22849725.1884                   22849724.1994
   1184972.92647    947042.29745  22853840.4614                   22853840.1884
 -18385551.69548 -12603392.75446  21151803.5554                   21151801.3444
 -21012678.16048 -16332387.93447  20218572.9924                   20218570.5274
 -25016945.89548 -19463026.87146  21342035.9614                   21342032.0744
  -5621043.36748  -3512705.67646  21579645.2274                   21579645.8284
 11  7 31  3 23 30.0000000  0  7G26G10G29G12G05G02G25
  10314936.06346   8062807.53143  24210762.5474                   24210763.9384
 -13342758.34047 -10371573.69144  22861827.8834                   22861826.7664
   1068891.60247    856589.41045  22831751.1884                   22831750.0474
 -18367712.95348 -12589492.43446  21155197.7974                   21155196.1024
 -21037346.30948 -16351609.84047  20213878.4774                   20213876.3284
 -25013179.02348 -19460091.64546  21342752.6954                   21342748.8874
  -5669475.11748  -3550444.68046  21570428.5864                   21570429.3714
 11  7 31  3 24  0.0000000  0  7G26G10G29G12G05G02G25
  10184969.85946   7961535.35243  24186030.2814                   24186031.5004
 -13278891.07047 -10321807.01244  22873981.8674                   22873980.7194
    952865.55947    766179.59445  22809672.3364                   22809670.5944
 -18349375.28948 -12575203.34446  21158687.5234                   21158685.4494
 -21061445.22348 -16370388.19947  20209292.7974                   20209290.5864
 -25009296.00848 -19457065.92646  21343491.8444                   21343488.2504
  -5717314.56248  -3587722.14546  21561325.4454                   21561325.7344
 11  7 31  3 24 30.0000000  0  7G26G10G29G12G05G02G25
  10054976.60246   7860242.11343  24161293.7894                   24161295.4884
 -13214762.02346 -10271836.34444  22886185.1564                   22886183.5984
    836893.80547    675812.05545  22787603.3284                   22787602.4344
 -18330542.44948 -12560528.40246  21162271.2194                   21162269.3524
 -21084978.25448 -16388725.61347  20204814.4064                   20204812.0984
 -25005299.71548 -19453951.94146  21344251.6884                   21344248.2814
  -5764563.78148  -3624539.70346  21552334.1254                   21552334.7424
 11  7 31  3 25  0.0000000  0  7G26G10G29G12G05G02G25
   9924959.26646   7758930.19943  24136550.8984                   24136553.3284
 -13150374.06247 -10221663.93044  22898437.4534                   22898436.2234
    720977.81647    585488.03145  22765545.2584                   22765544.7894
 -18311217.53548 -12545470.02746  21165949.1174                   21165946.5204
 -21107946.53148 -16406622.95747  20200443.7974                   20200441.6644
 -25001190.75048 -19450750.17246  21345033.5164                   21345030.1764
  -5811222.79748  -3660897.35246  21543455.1484                   21543455.8794
 11  7 31  3 25 30.0000000  0  7G26G10G29G12G05G02G25
   9794911.85546   7657594.75443  24111803.6254                   24111805.3244
 -13085739.32047 -10171299.22744  22910737.3524                   22910736.5824
    605110.07847    495201.60245  22743495.7114                   22743495.4454
 -18291411.91848 -12530037.09046  21169717.7894                   21169715.6334
 -21130360.10948 -16424088.07047  20196178.5084                   20196176.4734
 -24996978.84048 -19447468.18046  21345835.4614                   21345831.4774
  -5857300.60948  -3696802.12946  21534686.6334                   21534687.4384
 11  7 31  3 26  0.0000000  0  7G26G10G29G12G05G02G25
   9664846.93046   7556245.62943  24087054.0474                   24087054.3794
 -13020851.69147 -10120737.46544  22923085.1954                   22923083.5944
    489301.33247    404961.12145  22721458.6024                   22721457.8094
 -18271118.47348 -12514224.02346  21173579.8204                   21173577.2934
 -21152210.75448 -16441114.53147  20192020.5864                   20192018.5904
 -24992655.15248 -19444099.10246  21346658.4844                   21346654.5354
  -5902787.83248  -3732246.70746  21526030.8674                   21526031.5824
 11  7 31  3 26 30.0000000  0  7G26G10G29G12G05G02G25
   9534765.43047   7454883.60543  24062300.5234                   24062299.6844
 -12955715.57047 -10069982.09044  22935480.1804                   22935479.8164
    373551.28147    314766.35545  22699431.8054                   22699430.8164
 -18250341.11348 -12498033.87946  21177533.2424                   21177531.0594
 -21173501.72748 -16457704.87947  20187968.7814                   20187966.8204
 -24988221.79748 -19440644.56646  21347501.8674                   21347498.2304
  -5947686.26648  -3767232.48046  21517486.9924                   21517487.5784
 11  7 31  3 27  0.0000000  0  7G26G10G29G12G05G02G25
   9404661.69947   7353504.24643  24037541.8054                   24037542.0434
 -12890343.04347 -10019042.49644  22947919.5554                   22947918.3834
    257852.34847    224611.42245  22677415.2584                   22677414.3794
 -18229091.19548 -12481475.51246  21181576.7584                   21181574.9694
 -21194243.18448 -16473867.04347  20184022.1174                   20184020.1134
 -24983688.60548 -19437112.22746  21348364.6334                   21348360.9454
  -5992004.97348  -3801766.52046  21509053.1484                   21509053.7504
 11  7 31  3 27 30.0000000  0  7G26G10G29G12G05G02G25
   9274549.94947   7252118.57843  24012782.7344                   24012782.4384
 -12824726.24647  -9967912.54744  22960406.6414                   22960405.7814
    142217.03547    134506.07045  22655410.2344                   22655409.2304
 -18207359.90248 -12464542.04746  21185712.0554                   21185710.0044
 -21214425.18748 -16489593.26647  20180181.5784                   20180179.3834
 -24979044.74248 -19433493.65246  21349248.5944                   21349244.9144
  -6035732.85248  -3835840.16846  21500732.3134                   21500732.7504
 11  7 31  3 28  0.0000000  0  7G26G10G29G12G05G02G25
   9144427.85246   7150724.89543  23988021.2424                   23988021.3484
 -12758873.51647  -9916598.73044  22972938.0084                   22972936.2584
     26641.78947     44447.53545  22633417.0634                   22633416.5634
 -18185154.93448 -12447239.48846  21189937.3914                   21189935.2034
 -21234054.66048 -16504888.94547  20176446.1414                   20176443.9844
 -24974295.98448 -19429793.34846  21350151.9924                   21350148.2814
  -6078875.32848  -3869457.66846  21492522.1954                   21492523.0904
 11  7 31  3 28 30.0000000  0  7G26G10G29G12G05G02G25
   9014297.35946   7049324.66443  23963257.7424                   23963258.4144
 -12692788.75847  -9865104.16844  22985513.6024                   22985512.1914
    -88872.98847    -45563.88345  22611435.6884                   22611434.4224
 -18162480.27348 -12429570.94946  21194252.0554                   21194250.5664
 -21253133.95748 -16519755.91447  20172815.5084                   20172813.4774
 -24969443.85548 -19426012.48446  21351075.4844                   21351071.6954
  -6121433.73448  -3902620.04346  21484423.7734                   21484424.5204
 11  7 31  3 29  0.0000000  0  7G26G10G29G12G05G02G25
   8884165.10546   6947923.03944  23938494.4924                   23938495.2624
 -12626471.45747  -9813428.38344  22998132.7814                   22998132.1214
   -204322.33247   -135524.32845  22589466.0084                   22589465.3244
 -18139334.66448 -12411535.41446  21198657.0554                   21198655.0084
 -21271660.78148 -16534192.38747  20169289.7274                   20169287.3134
 -24964485.68448 -19422148.99246  21352019.0234                   21352015.3014
  -6163404.53148  -3935324.55946  21476437.1414                   21476437.3324
 11  7 31  3 29 30.0000000  0  7G26G10G29G12G05G02G25
   8754036.20746   6846524.06343  23913730.5634                   23913733.0434
 -12559922.88747  -9761572.39544  23010796.7114                   23010795.1094
   -319702.99647   -225431.27345  22567509.6484                   22567508.2424
 -18115718.41048 -12393133.15246  21203150.7664                   21203148.7704
 -21289634.69548 -16548198.02347  20165869.7114                   20165867.7344
 -24959420.19948 -19418201.87546  21352982.7034                   21352978.7974
  -6204786.19548  -3967569.99646  21468562.1564                   21468562.7304
 11  7 31  3 30  0.0000000  0  7G26G10G29G12G05G02G25
  10199336.42646   7972732.16443  24188763.0634                   24188764.1804
 -10917729.77747  -8481941.37944  23323295.7274                   23323294.5554
   1140409.12547    912318.52045  22845359.7114                   22845358.3244
 -16516216.45348 -11146768.01246  21507525.8834                   21507524.6644
 -19731637.98448 -15334174.60547  20462346.2274                   20462344.1604
 -23378829.19548 -18186572.53946  21653759.1174                   21653755.2774
  -4670158.97348  -2771756.56646  21760592.4614                   21760592.7704
 11  7 31  3 30 30.0000000  0  7G26G10G29G12G05G02G25
  10069222.07446   7871344.54344  24164003.4694                   24164003.7624
 -10850729.10947  -8429733.07844  23336045.6024                   23336044.8014
   1025169.34847    822521.35545  22823430.3444                   22823428.6914
 -16491667.73448 -11127639.15646  21512197.3914                   21512195.9614
 -19748511.48048 -15347322.77047  20459135.6724                   20459133.4774
 -23373551.46948 -18182460.03146  21654763.8364                   21654760.1334
  -4710364.17648  -2803085.27046  21752941.6644                   21752942.1024
 11  7 31  3 31  0.0000000  0  7G26G10G29G12G05G02G25
   9939123.70346   7769969.30144  24139246.0944                   24139247.0354
 -10783502.60246  -8377348.81243  23348838.3054                   23348837.3594
    910006.55147    732784.20745  22801515.0234                   22801514.5704
 -16466652.93048 -11108147.11346  21516957.7664                   21516956.0984
 -19764832.96948 -15360040.80147  20456029.7424                   20456027.6804
 -23368164.07848 -18178262.06646  21655788.7274                   21655785.0354
  -4749977.48048  -2833952.76246  21745403.0234                   21745403.7814
 11  7 31  3 31 30.0000000  0  7G26G10G29G12G05G02G25
   9809037.33647   7668603.40244  24114491.4144                   24114491.8444
 -10716060.68447  -8324796.67244  23361671.6334                   23361671.0784
    794914.85247    643102.44945  22779613.9694                   22779612.6454
 -16441181.46148 -11088299.22746  21521805.3054                   21521803.3404
 -19780610.92648 -15372335.29347  20453027.2274                   20453025.0394
 -23362675.02348 -18173984.88346  21656833.3674                   21656829.6094
  -4789006.51248  -2864364.96146  21737976.5164                   21737976.6724
 11  7 31  3 32  0.0000000  0  7G26G10G29G12G05G02G25
   9678964.78946   7567248.28544  24089739.3284                   24089740.2234
 -10648407.77747  -8272080.13343  23374545.7974                   23374545.4804
    679894.49247    553476.25445  22757726.6804                   22757724.9534
 -16415257.14848 -11068098.47746  21526738.6484                   21526736.1604
 -19795848.10248 -15384208.39847  20450127.8524                   20450125.5594
 -23357086.22348 -18169629.96946  21657896.8444                   21657893.3524
  -4827452.80548  -2894323.09446  21730660.1564                   21730661.0434
 11  7 31  3 32 30.0000000  0  7G26G10G29G12G05G02G25
   9548912.28146   7465908.71944  24064990.8984                   24064991.3834
 -10580543.71946  -8219199.06644  23387460.5784                   23387459.2974
    564950.15247    463909.30545  22735853.4614                   22735852.1414
 -16388879.52748 -11047544.49646  21531757.7504                   21531755.7504
 -19810543.18448 -15395659.09847  20447331.3834                   20447329.0784
 -23351394.82448 -18165195.10946  21658979.6414                   21658976.3094
  -4865313.68448  -2923825.05946  21723455.3594                   21723456.1644
 11  7 31  3 33  0.0000000  0  7G26G10G29G12G05G02G25
   9418886.36346   7364589.89843  24040248.1094                   24040247.7814
 -10512468.08246  -8166153.12943  23400414.9144                   23400413.6334
    450086.18847    374404.95745  22713995.1954                   22713993.8164
 -16362047.69148 -11026636.58246  21536863.8444                   21536861.4774
 -19824694.18448 -15406685.83247  20444638.3834                   20444636.3284
 -23345598.04348 -18160678.11746  21660083.0004                   21660079.4304
  -4902586.18748  -2952868.54346  21716362.4924                   21716363.2034
